Date StartTime U_cm/s V_cm/s W_cm/s Ustd_cm/s Vstd_cm/s Wstd_cm/s Uvar_(cm/s)^2 Vvar_(cm/s)^2 Wvar_(cm/s)^2 KE_(m/s)^2 TurbulentKE_(m/s)^2 HorizWindSpeed_cm/s FrictionSpeec_cm/s DragCoef SpeedOfSound_m/s SonicTemperature_C Pressure_mb 
05/24/2014  00:00:00     -105.178      115.100      -21.534       36.922       44.131       24.995     1363.210     1947.589      624.726        1.435        0.197      155.918       21.388        0.019      343.829       20.216      861.633
05/24/2014  00:01:00      -66.020       87.536       -9.413       35.901       38.362       26.956     1288.899     1471.607      726.638        0.780        0.174      109.642       24.119        0.048      343.763       20.102      861.630
05/24/2014  00:02:00      -77.249       86.249      -15.197       39.769       33.255       21.654     1581.555     1105.912      468.895        0.840        0.158      115.786       20.835        0.032      343.800       20.167      861.630
05/24/2014  00:03:00      -66.770       49.307      -11.953       23.739       32.740       23.197      563.536     1071.898      538.104        0.460        0.109       83.002       15.897        0.037      343.755       20.090      861.624
05/24/2014  00:04:00      -89.978      116.363      -18.151       41.897       43.644       24.747     1755.376     1904.785      612.412        1.312        0.214      147.093       25.434        0.030      343.857       20.264      861.622
05/24/2014  00:05:00      -58.166       98.751      -11.142       34.740       47.980       22.372     1206.843     2302.119      500.511        0.863        0.200      114.608       26.732        0.054      343.827       20.213      861.623
05/24/2014  00:06:00      -66.036       85.262      -12.421       24.879       24.907       19.250      618.989      620.353      370.550        0.670        0.080      107.845       14.567        0.018      343.768       20.113      861.628
05/24/2014  00:07:00      -55.077       99.999      -10.281       30.536       35.235       25.768      932.463     1241.493      663.998        0.799        0.142      114.163       26.333        0.053      343.801       20.168      861.635
05/24/2014  00:08:00     -103.841      115.677      -25.762       37.436       47.437       22.170     1401.438     2250.269      491.513        1.448        0.207      155.448       25.327        0.027      343.861       20.271      861.633
05/24/2014  00:09:00     -120.060      138.310      -27.816       36.237       39.984       25.349     1313.151     1598.682      642.551        1.894        0.178      183.150       19.882        0.012      343.823       20.206      861.627
05/24/2014  00:10:00      -98.591      116.668      -22.683       40.023       42.032       22.302     1601.806     1766.660      497.374        1.386        0.193      152.747       21.357        0.020      343.819       20.198      861.628
05/24/2014  00:11:00     -124.069      103.859      -26.787       33.322       46.307       24.899     1110.372     2144.303      619.971        1.539        0.194      161.802       20.866        0.017      343.830       20.216      861.627
05/24/2014  00:12:00     -103.768       80.940      -20.282       35.893       35.347       24.867     1288.337     1249.433      618.353        1.044        0.158      131.601       20.236        0.024      343.754       20.088      861.627
05/24/2014  00:13:00     -104.963       37.614      -10.837       34.219       37.012       21.107     1170.946     1369.887      445.521        0.777        0.149      111.499       18.315        0.027      343.681       19.963      861.630
05/24/2014  00:14:00     -107.862        0.375      -11.391       31.832       50.386       19.261     1013.290     2538.787      370.991        0.784        0.196      107.863       13.241        0.015      343.641       19.894      861.629
05/24/2014  00:15:00      -76.899       -8.613      -10.470       22.770       26.447       23.304      518.462      699.418      543.071        0.393        0.088       77.379       15.240        0.039      343.563       19.762      861.631
05/24/2014  00:16:00      -68.323      -10.968       -4.148       26.244       31.942       17.543      688.740     1020.311      307.751        0.341        0.101       69.198       15.838        0.052      343.459       19.586      861.632
05/24/2014  00:17:00     -130.068        6.377      -19.101       37.790       41.407       27.462     1428.061     1714.538      754.161        1.061        0.195      130.224       22.944        0.031      343.458       19.585      861.639
05/24/2014  00:18:00     -126.388      -51.515       -4.109       48.016       32.286       23.532     2305.573     1042.414      553.734        1.127        0.195      136.484       22.176        0.026      343.365       19.425      861.652
05/24/2014  00:19:00     -136.046       11.189      -22.578       36.148       31.863       27.076     1306.642     1015.254      733.116        1.110        0.153      136.505       11.515        0.007      343.398       19.482      861.669
05/24/2014  00:20:00      -74.060       -9.047        0.497       32.858       49.371       23.670     1079.632     2437.448      560.265        0.482        0.204       74.610       13.839        0.034      343.356       19.409      861.682
05/24/2014  00:21:00     -106.509       -1.748      -17.258       52.120       52.339       29.073     2716.470     2739.404      845.218        0.897        0.315      106.524       18.921        0.032      343.297       19.309      861.686
05/24/2014  00:22:00     -123.518       30.250      -22.301       45.939       35.526       23.436     2110.360     1262.094      549.260        1.029        0.196      127.169       24.617        0.037      343.254       19.237      861.688
05/24/2014  00:23:00     -126.627       35.713      -25.091       56.910       80.482       28.989     3238.710     6477.302      840.347        1.425        0.528      131.566       27.961        0.045      343.243       19.217      861.687
05/24/2014  00:24:00      -38.319       37.369       -1.152       26.307       38.392       20.551      692.072     1473.941      422.344        0.273        0.129       53.523       16.260        0.092      343.237       19.209      861.685
05/24/2014  00:25:00      -68.953       55.104       -1.237       40.957       39.528       27.348     1677.482     1562.463      747.898        0.589        0.199       88.266       21.185        0.058      343.326       19.359      861.684
05/24/2014  00:26:00      -76.567      124.959       -9.639       32.217       37.630       26.929     1037.945     1415.992      725.152        1.237        0.159      146.551       23.020        0.025      343.303       19.319      861.686
05/24/2014  00:27:00      -71.487       91.830       -9.044       32.420       36.136       18.801     1051.073     1305.788      353.493        0.817        0.136      116.375       18.560        0.025      343.284       19.287      861.681
05/24/2014  00:28:00      -38.405      136.257      -17.138       26.744       23.636       18.513      715.244      558.655      342.737        1.098        0.081      141.566        5.761        0.002      343.373       19.439      861.690
05/24/2014  00:29:00      -38.774      153.523      -20.908       31.474       38.347       23.368      990.607     1470.519      546.043        1.426        0.150      158.343       15.209        0.009      343.325       19.356      861.707
05/24/2014  00:30:00      -97.403      200.416      -27.457       51.947       60.677       34.124     2698.510     3681.671     1164.461        2.897        0.377      222.832       24.077        0.012      343.308       19.325      861.729
05/24/2014  00:31:00      -55.374      105.545       -7.241       40.327       41.821       29.109     1626.260     1748.999      847.348        0.924        0.211      119.189       23.579        0.039      343.272       19.265      861.746
05/24/2014  00:32:00      -83.572       82.819      -16.341       34.506       47.923       28.791     1190.667     2296.588      828.906        0.921        0.216      117.658       21.537        0.034      343.312       19.335      861.761
05/24/2014  00:33:00     -138.700      159.535      -38.092       48.650       59.987       38.908     2366.801     3598.419     1513.827        2.681        0.374      211.398       38.831        0.034      343.411       19.502      861.755
05/24/2014  00:34:00     -138.431      204.002      -34.415       46.338       56.010       31.079     2147.226     3137.098      965.906        3.411        0.313      246.537       30.586        0.015      343.435       19.541      861.750
05/24/2014  00:35:00     -134.904      204.923      -38.350       63.691       72.250       36.949     4056.583     5220.075     1365.259        3.615        0.532      245.342       38.802        0.025      343.441       19.550      861.765
05/24/2014  00:36:00      -91.099      183.552      -23.548       58.921       57.644       35.146     3471.715     3322.871     1235.237        2.529        0.401      204.915       25.713        0.016      343.480       19.618      861.771
05/24/2014  00:37:00      -27.886      266.420      -34.350       58.258       71.475       27.809     3394.032     5108.654      773.323        4.110        0.464      267.876       25.347        0.009      343.323       19.349      861.803
05/24/2014  00:38:00     -112.201      212.063      -26.498       48.988       58.728       37.659     2399.845     3448.929     1418.182        3.276        0.363      239.916       32.510        0.018      343.283       19.281      861.809
05/24/2014  00:39:00      -66.251      173.388      -19.630       49.592       60.158       36.120     2459.333     3618.959     1304.651        2.111        0.369      185.614       22.443        0.015      343.358       19.412      861.802
05/24/2014  00:40:00      -68.783      184.385      -19.596       46.815       74.964       37.551     2191.617     5619.544     1410.047        2.417        0.461      196.796       35.980        0.033      343.394       19.473      861.791
05/24/2014  00:41:00     -120.542      141.011      -20.033       58.851       53.488       36.542     3463.384     2860.979     1335.283        2.124        0.383      185.511       29.130        0.025      343.324       19.354      861.800
05/24/2014  00:42:00      -83.729      187.494      -18.362       58.101       67.548       38.828     3375.735     4562.719     1507.608        2.597        0.472      205.340       35.356        0.030      343.315       19.337      861.796
05/24/2014  00:43:00      -98.848      166.403      -30.329       50.298       97.222       33.907     2529.924     9452.163     1149.714        2.575        0.657      193.549       37.158        0.037      343.326       19.357      861.771
05/24/2014  00:44:00      -67.963      108.889       -7.375       52.337       66.364       38.573     2739.187     4404.210     1487.876        1.258        0.432      128.359       33.534        0.068      343.289       19.295      861.750
05/24/2014  00:45:00      -56.499      238.855      -31.203       65.725       99.242       38.073     4319.799     9848.995     1449.524        3.841        0.781      245.446       42.195        0.030      343.342       19.386      861.745
05/24/2014  00:46:00      -92.298      175.183      -17.020       79.514      115.953       44.400     6322.539    13445.214     1971.404        3.061        1.087      198.010       43.637        0.049      343.265       19.252      861.732
05/24/2014  00:47:00     -123.278      179.824      -16.684       72.038      106.278       52.838     5189.468    11294.949     2791.822        3.354        0.964      218.023       49.143        0.051      343.253       19.231      861.721
05/24/2014  00:48:00     -105.293      189.309      -19.740       65.403       97.986       42.842     4277.543     9601.344     1835.419        3.151        0.786      216.621       39.397        0.033      343.263       19.247      861.741
05/24/2014  00:49:00     -143.036      234.311      -37.672       65.961      105.282       49.911     4350.870    11084.294     2491.089        4.735        0.896      274.520       57.616        0.044      343.282       19.281      861.755
05/24/2014  00:50:00     -132.220      202.158      -12.494       82.982      105.526       59.374     6886.087    11135.784     3525.244        4.002        1.077      241.558       58.558        0.059      343.249       19.225      861.763
05/24/2014  00:51:00     -149.213      194.167      -26.368       75.293       81.404       44.160     5669.110     6626.590     1950.127        3.745        0.712      244.878       48.831        0.040      343.254       19.232      861.779
05/24/2014  00:52:00     -191.817      174.158      -46.345       96.927      105.524       55.257     9394.897    11135.390     3053.347        4.642        1.179      259.085       61.210        0.056      343.256       19.236      861.768
05/24/2014  00:53:00     -149.568      179.772      -36.243       76.378       71.255       50.087     5833.524     5077.254     2508.689        3.471        0.671      233.856       39.722        0.029      343.250       19.228      861.779
05/24/2014  00:54:00     -140.133      183.902      -28.459       78.574       85.670       47.938     6173.850     7339.411     2298.032        3.504        0.791      231.208       52.982        0.053      343.216       19.169      861.778
05/24/2014  00:55:00     -138.241      226.343      -25.674      108.055      136.609       53.922    11675.976    18662.136     2907.569        5.212        1.662      265.220       66.944        0.064      343.245       19.218      861.776
05/24/2014  00:56:00     -116.460      167.948      -21.848       53.798       78.799       46.459     2894.248     6209.300     2158.428        2.675        0.563      204.376       47.093        0.053      343.225       19.185      861.773
05/24/2014  00:57:00      -85.111      129.806      -11.850       85.520       73.556       44.095     7313.736     5410.421     1944.399        1.945        0.733      155.221       39.045        0.063      343.207       19.157      861.762
05/24/2014  00:58:00      -72.645      178.469      -26.255       56.496       83.807       48.313     3191.835     7023.696     2334.178        2.518        0.627      192.687       46.817        0.059      343.180       19.107      861.767
05/24/2014  00:59:00     -204.358      256.634      -43.579      105.720      100.343       63.773    11176.802    10068.776     4067.050        6.741        1.266      328.060       59.948        0.033      343.201       19.143      861.774
05/24/2014  01:00:00     -141.586      203.974      -24.955      110.645      137.997       56.775    12242.376    19043.157     3223.430        4.838        1.725      248.298       55.508        0.050      343.200       19.140      861.783
05/24/2014  01:01:00     -184.258      292.800      -49.948       82.067       88.062       54.079     6734.917     7754.884     2924.525        6.979        0.871      345.952       51.544        0.022      343.164       19.078      861.789
05/24/2014  01:02:00     -163.862      226.419      -50.307       87.147       71.116       42.029     7594.606     5057.448     1766.408        4.753        0.721      279.493       44.330        0.025      343.143       19.042      861.799
05/24/2014  01:03:00      -99.216      162.322      -10.406       69.950       76.576       47.411     4893.044     5863.879     2247.809        2.465        0.650      190.243       39.323        0.043      343.087       18.950      861.815
05/24/2014  01:04:00     -113.450      152.384      -26.973       64.096       71.596       45.153     4108.292     5126.056     2038.776        2.404        0.564      189.978       37.448        0.039      343.065       18.911      861.820
05/24/2014  01:05:00     -191.871      267.142      -49.862       91.773      120.388       53.393     8422.272    14493.240     2850.782        6.821        1.288      328.907       51.408        0.024      343.091       18.954      861.833
05/24/2014  01:06:00     -167.770      266.872      -47.394      106.337       89.731       57.353    11307.506     8051.657     3289.325        6.213        1.132      315.226       58.157        0.034      343.060       18.901      861.845
05/24/2014  01:07:00     -113.182      232.058      -25.753       62.114      118.071       45.354     3858.118    13940.660     2057.029        4.359        0.993      258.188       31.703        0.015      343.040       18.867      861.851
05/24/2014  01:08:00     -135.238      229.412      -36.965       71.698       89.705       54.627     5140.616     8046.915     2984.095        4.423        0.809      266.307       52.744        0.039      343.018       18.831      861.861
05/24/2014  01:09:00     -202.618      246.335      -43.905       82.000       93.611       60.166     6723.955     8762.931     3619.944        6.138        0.955      318.959       55.996        0.031      343.001       18.801      861.871
05/24/2014  01:10:00     -186.406      218.094      -47.069       98.237       76.321       52.379     9650.494     5824.852     2743.584        5.137        0.911      286.901       61.141        0.045      342.998       18.794      861.870
05/24/2014  01:11:00     -181.449      216.413      -47.538       90.986       79.400       52.564     8278.542     6304.382     2762.957        4.968        0.867      282.416       46.650        0.027      343.034       18.859      861.870
05/24/2014  01:12:00     -190.452      286.670      -44.201      115.830      131.384       54.038    13416.640    17261.749     2920.066        7.700        1.680      344.168       72.947        0.045      343.032       18.856      861.889
05/24/2014  01:13:00     -203.221      320.975      -44.793      103.365      128.580       74.282    10684.415    16532.891     5517.820        8.953        1.637      379.899       83.960        0.049      343.058       18.899      861.909
05/24/2014  01:14:00     -194.328      237.012      -52.114      116.708      102.711       58.651    13620.804    10549.592     3439.885        6.213        1.381      306.493       61.002        0.040      343.084       18.944      861.908
05/24/2014  01:15:00     -206.578      248.169      -60.105       96.546       86.434       50.464     9321.193     7470.901     2546.595        6.360        0.967      322.897       55.620        0.030      343.064       18.908      861.908
05/24/2014  01:16:00     -207.353      288.016      -54.231      106.337      112.857       62.239    11307.497    12736.802     3873.695        7.840        1.396      354.892       61.023        0.030      343.072       18.921      861.904
05/24/2014  01:17:00     -188.426      240.998      -18.879       99.631      100.255       69.327     9926.373    10050.976     4806.257        5.936        1.239      305.916       64.433        0.044      343.032       18.854      861.887
05/24/2014  01:18:00     -261.126      310.275      -60.178      135.314      126.166       77.232    18309.901    15917.796     5964.797       10.413        2.010      405.534       83.894        0.043      343.043       18.873      861.891
05/24/2014  01:19:00     -219.140      258.935      -49.356       90.409      118.280       53.850     8173.857    13990.076     2899.861        7.128        1.253      339.220       53.404        0.025      343.025       18.841      861.900
05/24/2014  01:20:00     -190.346      216.334      -27.404       84.507      104.612       56.820     7141.448    10943.580     3228.495        5.254        1.066      288.153       46.451        0.026      342.980       18.766      861.879
05/24/2014  01:21:00     -156.766      199.094      -29.701       76.736      129.037       54.582     5888.437    16650.450     2979.168        4.530        1.276      253.405       41.692        0.027      342.971       18.753      861.878
05/24/2014  01:22:00     -216.623      195.422      -39.140      108.296      153.691       60.372    11727.977    23620.850     3644.789        6.281        1.950      291.745       61.566        0.045      342.980       18.765      861.884
05/24/2014  01:23:00     -205.234      194.299      -59.562       85.288      125.293       51.324     7274.099    15698.255     2634.121        5.451        1.280      282.619       64.631        0.052      342.969       18.747      861.885
05/24/2014  01:24:00     -231.984      183.781      -33.139      111.725      110.253       52.978    12482.463    12155.744     2806.687        5.806        1.372      295.960       57.641        0.038      342.929       18.678      861.879
05/24/2014  01:25:00     -223.478      179.174      -33.304      128.559       94.788       56.339    16527.522     8984.856     3174.030        5.591        1.434      286.436       66.436        0.054      342.900       18.630      861.877
05/24/2014  01:26:00     -165.726      185.307      -27.931       87.560      105.563       55.222     7666.784    11143.587     3049.488        4.222        1.093      248.604       62.282        0.063      342.829       18.509      861.874
05/24/2014  01:27:00     -234.933      200.416      -36.427      102.857      108.574       66.360    10579.583    11788.410     4403.609        6.172        1.339      308.804       64.026        0.043      342.840       18.528      861.875
05/24/2014  01:28:00     -159.821      180.179      -33.291       97.143       79.217       51.236     9436.831     6275.329     2625.134        3.872        0.917      240.847       57.743        0.057      342.797       18.457      861.888
05/24/2014  01:29:00     -201.908      144.253      -28.889       87.352       82.325       57.127     7630.315     6777.365     3263.477        4.004        0.884      248.145       54.391        0.048      342.780       18.426      861.877
05/24/2014  01:30:00     -202.705      168.913      -48.499       80.988       62.999       49.732     6559.111     3968.866     2473.278        4.248        0.650      263.858       36.964        0.020      342.788       18.438      861.888
05/24/2014  01:31:00     -190.173      147.139      -30.916      124.646      100.054       65.205    15536.728    10010.705     4251.672        4.428        1.490      240.449       72.591        0.091      342.761       18.395      861.874
05/24/2014  01:32:00     -205.142      169.204      -35.587      101.886      147.549       68.192    10380.680    21770.682     4650.085        5.438        1.840      265.920       60.553        0.052      342.778       18.421      861.879
05/24/2014  01:33:00     -198.935      184.027      -35.505      100.038      109.558       64.805    10007.699    12002.991     4199.694        5.045        1.311      271.001       51.107        0.036      342.757       18.387      861.900
05/24/2014  01:34:00     -196.909      214.686      -36.120      131.015      111.984       77.319    17165.031    12540.496     5978.298        6.092        1.784      291.313       64.188        0.049      342.755       18.383      861.887
05/24/2014  01:35:00     -179.573      186.492      -23.757      104.505       95.049       60.021    10921.288     9034.345     3602.534        4.557        1.178      258.893       48.954        0.036      342.756       18.384      861.880
05/24/2014  01:36:00     -177.901      296.486      -31.700      115.514      155.262       75.585    13343.385    24106.150     5713.035        8.185        2.158      345.764       85.332        0.061      342.789       18.442      861.875
05/24/2014  01:37:00     -149.143      168.392      -21.818       71.817       84.378       56.470     5157.734     7119.704     3188.886        3.327        0.773      224.943       33.639        0.022      342.771       18.411      861.884
05/24/2014  01:38:00     -197.121      271.269      -47.798       97.552      101.623       54.622     9516.349    10327.292     2983.567        6.877        1.141      335.326       43.560        0.017      342.779       18.424      861.887
05/24/2014  01:39:00     -243.579      241.178      -44.449      123.453      113.264       66.237    15240.561    12828.722     4387.285        7.596        1.623      342.779       80.568        0.055      342.786       18.435      861.882
05/24/2014  01:40:00     -220.888      260.699      -40.841       92.568      121.971       55.982     8568.809    14876.929     3133.969        7.250        1.329      341.695       39.907        0.014      342.775       18.416      861.892
05/24/2014  01:41:00     -245.982      250.238      -55.995      120.836       89.239       59.579    14601.358     7963.599     3549.684        7.618        1.306      350.893       57.012        0.026      342.791       18.444      861.886
05/24/2014  01:42:00     -204.646      209.714      -54.262       74.687       94.659       56.342     5578.173     8960.258     3174.391        5.325        0.886      293.018       51.036        0.030      342.787       18.437      861.887
05/24/2014  01:43:00     -144.972      308.539      -33.020       73.705      107.333       56.085     5432.478    11520.386     3145.525        6.870        1.005      340.901       42.123        0.015      342.781       18.429      861.890
05/24/2014  01:44:00     -187.740      232.811      -23.211      148.871      117.359       78.423    22162.711    13773.073     6150.192        6.603        2.104      299.077       84.767        0.080      342.796       18.455      861.893
05/24/2014  01:45:00     -138.040      123.804      -11.488       95.518       83.655       57.689     9123.741     6998.181     3327.999        2.698        0.972      185.425       40.176        0.047      342.777       18.422      861.911
05/24/2014  01:46:00     -171.306      230.521      -32.376       74.076       91.834       45.329     5487.226     8433.430     2054.738        4.975        0.799      287.203       35.984        0.016      342.767       18.403      861.924
05/24/2014  01:47:00     -203.554      203.018      -36.697       89.624      103.204       57.927     8032.499    10651.060     3355.499        5.301        1.102      287.490       57.821        0.040      342.803       18.465      861.928
05/24/2014  01:48:00     -143.744      122.479      -15.670       72.248       82.171       52.442     5219.754     6752.067     2750.178        2.531        0.736      188.848       51.372        0.074      342.785       18.437      861.929
05/24/2014  01:49:00     -177.546      247.850      -28.037       89.087      115.215       58.015     7936.501    13274.463     3365.738        5.915        1.229      304.880       59.100        0.038      342.819       18.493      861.933
05/24/2014  01:50:00     -172.661      202.387      -28.612       88.847      134.715       56.877     7893.865    18148.221     3234.979        5.043        1.464      266.031       61.468        0.053      342.806       18.468      861.946
05/24/2014  01:51:00     -154.713      223.889      -24.233       85.118      104.040       56.052     7245.153    10824.233     3141.815        4.793        1.061      272.144       35.510        0.017      342.835       18.519      861.947
05/24/2014  01:52:00     -158.318      180.289      -29.017       94.001       81.878       55.494     8836.226     6704.085     3079.618        3.851        0.931      239.935       47.444        0.039      342.824       18.501      861.945
05/24/2014  01:53:00     -176.045      215.994      -39.434      108.729       93.774       67.156    11821.906     8793.501     4509.882        5.216        1.256      278.649       65.766        0.056      342.831       18.513      861.945
05/24/2014  01:54:00     -173.036      191.458      -39.681       85.276      112.932       51.050     7272.023    12753.681     2606.118        4.540        1.132      258.065       50.771        0.039      342.829       18.507      861.934
05/24/2014  01:55:00     -225.037      212.982      -34.990      116.826      111.874       60.829    13648.240    12515.749     3700.205        6.354        1.493      309.844       59.562        0.037      342.842       18.531      861.913
05/24/2014  01:56:00     -278.947      262.727      -52.139      129.284      131.305       76.995    16714.250    17240.958     5928.163        9.471        1.994      383.193       81.420        0.045      342.847       18.539      861.900
05/24/2014  01:57:00     -244.175      316.857      -46.967       89.029      151.562       77.259     7926.192    22971.021     5968.981        9.954        1.843      400.025       58.851        0.022      342.820       18.493      861.908
05/24/2014  01:58:00     -290.339      263.469      -53.285      126.350      109.235       63.619    15964.402    11932.272     4047.437        9.424        1.597      392.062       66.983        0.029      342.821       18.496      861.897
05/24/2014  01:59:00     -172.088      204.243      -16.820       96.719      148.328       61.355     9354.594    22001.286     3764.489        5.336        1.756      267.076       73.815        0.076      342.807       18.469      861.900
05/24/2014  02:00:00     -241.835      276.443      -50.014      113.584      138.881       75.389    12901.231    19287.933     5683.449        8.763        1.894      367.294       67.516        0.034      342.869       18.578      861.888
05/24/2014  02:01:00     -233.374      240.504      -57.816      102.735      120.960       64.199    10554.495    14631.340     4121.521        7.247        1.465      335.121       56.118        0.028      342.886       18.606      861.882
05/24/2014  02:02:00     -194.638      224.388      -34.146       97.400       84.387       53.053     9486.846     7121.236     2814.638        5.441        0.971      297.042       44.292        0.022      342.825       18.502      861.862
05/24/2014  02:03:00     -181.957      179.931      -13.712       93.025      111.174       64.464     8653.584    12359.580     4155.587        4.542        1.258      255.898       68.379        0.071      342.800       18.459      861.846
05/24/2014  02:04:00     -183.756      216.846      -40.353       91.314      133.916       53.897     8338.244    17933.586     2904.915        5.579        1.459      284.234       61.943        0.047      342.806       18.471      861.831
05/24/2014  02:05:00     -184.414      185.921      -23.759       91.676       83.609       55.386     8404.402     6990.457     3067.563        4.380        0.923      261.868       54.282        0.043      342.746       18.368      861.816
05/24/2014  02:06:00     -227.206      240.531      -38.544      100.320       95.376       64.953    10064.129     9096.537     4218.919        6.717        1.169      330.874       58.971        0.032      342.794       18.448      861.800
05/24/2014  02:07:00     -187.053      181.197      -32.301       81.558       94.747       54.264     6651.777     8977.086     2944.557        4.372        0.929      260.425       43.984        0.029      342.760       18.392      861.786
05/24/2014  02:08:00     -237.530      137.478      -38.784      135.917      107.858       61.777    18473.491    11633.359     3816.402        5.537        1.696      274.447       70.000        0.065      342.799       18.459      861.777
05/24/2014  02:09:00     -153.051      104.707      -31.024       80.365       71.102       43.137     6458.464     5055.498     1860.786        2.436        0.669      185.440       44.009        0.056      342.770       18.410      861.760
05/24/2014  02:10:00     -146.772      136.268      -26.839       89.142       86.696       48.562     7946.290     7516.192     2358.299        2.932        0.891      200.278       40.660        0.041      342.767       18.405      861.742
05/24/2014  02:11:00     -135.270      146.676      -20.734       92.458      115.825       43.249     8548.518    13415.396     1870.467        3.203        1.192      199.529       41.724        0.044      342.720       18.325      861.713
05/24/2014  02:12:00     -189.747      188.835      -41.687       87.492      108.329       55.465     7654.862    11735.131     3076.349        4.793        1.123      267.698       48.752        0.033      342.759       18.389      861.709
05/24/2014  02:13:00     -188.034      161.846      -36.270       71.661       90.031       47.804     5135.349     8105.639     2285.219        3.919        0.776      248.094       37.613        0.023      342.700       18.288      861.692
05/24/2014  02:14:00     -240.464      156.762      -48.310       81.483       83.795       56.232     6639.421     7021.621     3162.046        5.077        0.841      287.049       50.924        0.031      342.739       18.356      861.689
05/24/2014  02:15:00     -161.246      130.465      -17.451       73.712       77.734       50.033     5433.496     6042.626     2503.265        2.865        0.699      207.416       40.047        0.037      342.703       18.294      861.685
05/24/2014  02:16:00     -126.504       79.711      -13.069       68.012       81.543       46.477     4625.676     6649.292     2160.107        1.798        0.672      149.523       36.209        0.059      342.684       18.263      861.680
05/24/2014  02:17:00     -156.679       39.860      -16.800       66.991      118.196       40.432     4487.815    13970.234     1634.737        2.325        1.005      161.670       33.253        0.042      342.664       18.229      861.667
05/24/2014  02:18:00     -205.605       18.382      -27.548       87.887       90.406       41.611     7724.209     8173.241     1731.507        3.050        0.881      206.425       37.658        0.033      342.668       18.236      861.658
05/24/2014  02:19:00     -129.621        2.018        4.457      108.353       90.379       46.138    11740.326     8168.359     2128.722        1.943        1.102      129.637       51.733        0.159      342.640       18.189      861.637
05/24/2014  02:20:00     -191.681       87.907      -15.856       99.119      102.874       55.291     9824.666    10583.139     3057.040        3.409        1.173      210.877       38.951        0.034      342.666       18.233      861.643
05/24/2014  02:21:00     -125.882       72.145       -1.494      100.035       71.963       55.317    10007.072     5178.715     3060.009        1.965        0.912      145.090       48.467        0.112      342.657       18.219      861.631
05/24/2014  02:22:00      -81.367       67.084        2.473      110.602       65.937       59.291    12232.886     4347.691     3515.448        1.561        1.005      105.456       40.331        0.146      342.665       18.234      861.616
05/24/2014  02:23:00     -175.937       48.287      -18.038       71.834       62.418       49.475     5160.132     3895.973     2447.737        2.256        0.575      182.443       39.878        0.048      342.658       18.220      861.586
05/24/2014  02:24:00     -121.687       79.617      -24.704       51.945       63.556       34.249     2698.240     4039.409     1172.976        1.483        0.396      145.418       32.543        0.050      342.652       18.211      861.560
05/24/2014  02:25:00     -114.636       73.392      -19.577       47.216       55.952       32.540     2229.315     3130.604     1058.868        1.266        0.321      136.117       22.529        0.027      342.622       18.160      861.533
05/24/2014  02:26:00      -96.188       81.629      -11.485       47.721       56.616       39.955     2277.292     3205.335     1596.425        1.156        0.354      126.156       28.505        0.051      342.577       18.085      861.525
05/24/2014  02:27:00     -128.802       44.266      -27.398       45.349       62.217       31.959     2056.522     3870.969     1021.381        1.312        0.347      136.196       24.425        0.032      342.580       18.089      861.535
05/24/2014  02:28:00      -92.102       51.012       -7.167       61.487       67.338       30.054     3780.707     4534.426      903.213        1.018        0.461      105.286       28.995        0.076      342.583       18.093      861.532
05/24/2014  02:29:00     -100.036       59.841      -22.232       66.724       62.876       45.329     4452.137     3953.441     2054.681        1.227        0.523      116.568       41.511        0.127      342.578       18.085      861.550
05/24/2014  02:30:00      -96.978       55.378      -32.069       67.555       59.880       33.460     4563.733     3585.669     1119.559        1.138        0.463      111.675       27.666        0.061      342.574       18.078      861.562
05/24/2014  02:31:00     -114.301       94.473      -22.756       52.539       66.192       35.664     2760.344     4381.325     1271.913        1.546        0.421      148.290       27.568        0.035      342.579       18.087      861.562
05/24/2014  02:32:00     -103.040       48.648       -6.885       58.731       83.721       28.222     3449.273     7009.204      796.485        1.214        0.563      113.947       25.487        0.050      342.570       18.072      861.574
05/24/2014  02:33:00      -85.463      -13.395        2.597       70.925       44.495       29.018     5030.392     1979.835      842.027        0.767        0.393       86.506       31.192        0.130      342.534       18.013      861.563
05/24/2014  02:34:00     -104.666      -24.064       -4.808       66.685       49.660       21.575     4446.825     2466.150      465.464        0.947        0.369      107.397       20.193        0.035      342.496       17.946      861.580
05/24/2014  02:35:00     -151.703      -47.878       -3.211       59.851       51.223       32.121     3582.202     2623.800     1031.738        1.628        0.362      159.079       33.670        0.045      342.443       17.855      861.590
05/24/2014  02:36:00     -102.643      -58.049        5.819       64.500       62.104       34.886     4160.268     3856.864     1217.004        1.158        0.462      117.920       35.856        0.092      342.405       17.792      861.609
05/24/2014  02:37:00     -162.452      -46.038      -12.908       54.844       65.820       27.117     3007.887     4332.227      735.330        1.837        0.404      168.849       26.447        0.025      342.423       17.822      861.627
05/24/2014  02:38:00     -110.315      -57.495       -1.455       53.422       58.104       34.161     2853.889     3376.112     1166.965        1.144        0.370      124.398       34.588        0.077      342.349       17.696      861.648
05/24/2014  02:39:00     -109.191      -84.511      -10.194       65.265       68.256       36.075     4259.503     4658.893     1301.402        1.469        0.511      138.076       32.765        0.056      342.203       17.448      861.663
05/24/2014  02:40:00     -140.066      -28.238       -8.001       89.140       48.119       34.394     7945.946     2315.443     1182.957        1.596        0.572      142.884       31.014        0.047      342.171       17.394      861.680
05/24/2014  02:41:00     -173.558      -30.765       -3.682       84.167       66.184       39.453     7084.079     4380.257     1556.512        2.205        0.651      176.264       36.731        0.043      342.153       17.361      861.696
05/24/2014  02:42:00     -261.934      -67.300      -16.389       76.411       82.909       43.953     5838.568     6873.914     1931.887        4.402        0.732      270.442       40.941        0.023      342.302       17.613      861.701
05/24/2014  02:43:00     -260.621      -99.670      -23.745       78.208       86.844       46.462     6116.552     7541.833     2158.697        4.712        0.791      279.030       38.991        0.020      342.448       17.860      861.704
05/24/2014  02:44:00     -255.341      -15.987      -24.545      100.867       97.460       48.853    10174.167     9498.446     2386.639        4.405        1.103      255.841       48.320        0.036      342.513       17.972      861.738
05/24/2014  02:45:00     -178.123       -3.919       -6.834       93.365       82.985       41.571     8716.990     6886.487     1728.127        2.456        0.867      178.167       40.116        0.051      342.534       18.009      861.748
05/24/2014  02:46:00     -178.717      -20.974      -17.367       76.514       46.333       34.016     5854.414     2146.792     1157.104        2.092        0.458      179.944       38.477        0.046      342.528       18.001      861.770
05/24/2014  02:47:00     -127.092       10.390       -5.859       58.229       51.380       33.215     3390.616     2639.942     1103.247        1.171        0.357      127.516       27.898        0.048      342.502       17.956      861.782
05/24/2014  02:48:00     -178.483      137.414      -29.365       87.952       59.528       33.506     7735.632     3543.594     1122.636        3.200        0.620      225.253       26.079        0.013      342.573       18.074      861.787
05/24/2014  02:49:00      -91.451       86.145      -16.971       47.210       51.745       31.704     2228.790     2677.500     1005.175        1.099        0.296      125.636       22.752        0.033      342.516       17.981      861.771
05/24/2014  02:50:00      -70.873      162.192      -19.065       59.355       79.448       32.571     3522.972     6311.999     1060.887        2.129        0.545      177.001       43.252        0.060      342.550       18.037      861.765
05/24/2014  02:51:00     -174.525      227.038      -34.002       81.918       83.080       52.036     6710.549     6902.265     2707.770        4.974        0.816      286.366       50.432        0.031      342.518       17.979      861.748
05/24/2014  02:52:00     -158.515      142.993      -26.073       50.873       67.485       34.414     2588.060     4554.287     1184.325        2.729        0.416      213.480       24.444        0.013      342.484       17.921      861.740
05/24/2014  02:53:00     -147.880      130.536      -29.802       43.455       52.919       28.217     1888.315     2800.398      796.208        2.264        0.274      197.251       22.591        0.013      342.426       17.826      861.755
05/24/2014  02:54:00     -133.839       42.315      -11.183       52.315       32.782       22.664     2736.898     1074.662      513.650        1.208        0.216      140.369       11.797        0.007      342.419       17.814      861.767
05/24/2014  02:55:00      -70.565       15.529       -7.175       40.946       20.501       17.991     1676.616      420.287      323.680        0.385        0.121       72.254       15.669        0.047      342.390       17.764      861.768
05/24/2014  02:56:00     -116.309       20.564      -14.511       33.249       32.320       21.958     1105.475     1044.603      482.132        0.840        0.132      118.113       15.182        0.017      342.420       17.818      861.778
05/24/2014  02:57:00      -73.453       54.102      -12.710       27.613       27.278       20.235      762.486      744.098      409.460        0.520        0.096       91.227       16.337        0.032      342.376       17.741      861.793
05/24/2014  02:58:00     -103.745       91.504      -19.788       32.014       38.396       25.094     1024.876     1474.291      629.720        1.133        0.156      138.333       22.335        0.026      342.348       17.696      861.789
05/24/2014  02:59:00      -72.405       36.139       -6.688       31.178       43.755       23.207      972.054     1914.483      538.553        0.501        0.171       80.923       18.155        0.050      342.373       17.738      861.792
05/24/2014  03:00:00      -55.978       18.692      -12.846       22.018       17.034       17.886      484.774      290.154      319.907        0.237        0.055       59.016       14.818        0.063      342.322       17.649      861.794
05/24/2014  03:01:00      -85.866      108.434      -20.484       31.210       39.185       23.076      974.046     1535.497      532.480        1.130        0.152      138.314       19.423        0.020      342.328       17.661      861.794
05/24/2014  03:02:00      -80.021      127.571      -22.282       32.177       44.047       26.955     1035.338     1940.158      726.561        1.344        0.185      150.592       25.497        0.029      342.325       17.657      861.792
05/24/2014  03:03:00      -83.663       79.291      -20.893       27.052       34.840       18.791      731.802     1213.823      353.102        0.801        0.115      115.268       16.879        0.021      342.337       17.674      861.789
05/24/2014  03:04:00      -73.612       27.101      -13.576       23.371       31.471       20.600      546.207      990.454      424.379        0.415        0.098       78.442       10.405        0.018      342.338       17.678      861.801
05/24/2014  03:05:00      -16.228        0.264        5.073       18.323       24.436       12.070      335.719      597.121      145.679        0.068        0.054       16.230        6.318        0.152      342.241       17.513      861.804
05/24/2014  03:06:00      -48.425       57.876       -9.975       32.995       23.904       14.503     1088.679      571.380      210.332        0.383        0.094       75.462       14.686        0.038      342.279       17.578      861.808
05/24/2014  03:07:00      -90.379       86.072      -19.209       31.863       32.760       20.131     1015.255     1073.187      405.245        0.922        0.125      124.807       17.576        0.020      342.333       17.668      861.811
05/24/2014  03:08:00      -71.529       77.890      -10.112       41.891       34.831       22.066     1754.861     1213.193      486.924        0.737        0.173      105.750       20.404        0.037      342.304       17.620      861.809
05/24/2014  03:09:00      -72.201      123.896      -13.155       33.236       37.173       22.157     1104.622     1381.820      490.914        1.186        0.149      143.399       19.187        0.018      342.284       17.586      861.801
05/24/2014  03:10:00     -101.252       96.251      -18.555       26.037       35.561       21.258      677.909     1264.586      451.920        1.113        0.120      139.701       11.582        0.007      342.327       17.657      861.804
05/24/2014  03:11:00      -82.962       89.748      -17.193       27.435       24.505       18.715      752.681      600.518      350.248        0.847        0.085      122.219       13.422        0.012      342.324       17.654      861.802
05/24/2014  03:12:00      -90.277       38.773      -18.368       16.958       24.143        9.965      287.576      582.878       99.310        0.548        0.048       98.251        5.246        0.003      342.255       17.537      861.798
05/24/2014  03:13:00      -75.479       33.003      -13.241       14.341       27.492       12.059      205.660      755.818      145.412        0.403        0.055       82.379        6.064        0.005      342.271       17.563      861.796
05/24/2014  03:14:00      -70.441        3.448       -3.969       26.870       24.532       19.896      722.002      601.828      395.857        0.335        0.086       70.525       15.526        0.048      342.275       17.571      861.794
05/24/2014  03:15:00      -67.024        0.898      -12.492       25.626       37.489       14.645      656.671     1405.405      214.471        0.346        0.114       67.030       16.805        0.063      342.321       17.648      861.793
05/24/2014  03:16:00      -93.218       14.432       -6.408       36.317       29.302       19.529     1318.903      858.624      381.375        0.575        0.128       94.329       22.161        0.055      342.309       17.629      861.797
05/24/2014  03:17:00      -85.740       -7.133       -2.455       23.032       22.302       13.891      530.486      497.386      192.949        0.431        0.061       86.037       12.594        0.021      342.274       17.570      861.814
05/24/2014  03:18:00      -42.224       10.226       -1.968       23.009       19.161       15.017      529.401      367.134      225.502        0.151        0.056       43.445       10.537        0.059      342.225       17.483      861.829
05/24/2014  03:19:00      -49.224       78.244       -4.500       25.893       50.538       18.084      670.453     2554.091      327.045        0.606        0.178       92.440       22.743        0.061      342.291       17.596      861.838
05/24/2014  03:20:00      -45.686      118.872       -6.771       47.403       64.040       25.351     2247.053     4101.158      642.697        1.163        0.350      127.349       30.565        0.058      342.479       17.917      861.843
05/24/2014  03:21:00      -42.580      127.967      -12.316       30.844       42.884       20.621      951.336     1839.058      425.223        1.078        0.161      134.865       24.734        0.034      342.424       17.824      861.862
05/24/2014  03:22:00      -40.917       51.958       -1.165       40.535       52.073       20.271     1643.082     2711.555      410.919        0.457        0.238       66.135       17.527        0.070      342.332       17.669      861.878
05/24/2014  03:23:00      -57.692       45.354       -0.579       46.465       41.727       26.847     2159.016     1741.145      720.744        0.500        0.231       73.385       21.455        0.085      342.393       17.771      861.905
05/24/2014  03:24:00      -57.707       87.913      -14.005       49.898       27.979       20.730     2489.838      782.826      429.726        0.748        0.185      105.161       18.630        0.031      342.409       17.799      861.921
05/24/2014  03:25:00       -5.254      112.050       -6.341       29.609       29.007       20.678      876.685      841.417      427.589        0.738        0.107      112.173       14.746        0.017      342.420       17.818      861.943
05/24/2014  03:26:00      -32.287      189.179      -22.707       46.061       58.470       29.026     2121.631     3418.709      842.481        2.186        0.319      191.914       20.859        0.012      342.242       17.510      861.960
05/24/2014  03:27:00      -63.062      153.152      -22.936       48.701       74.840       24.494     2371.759     5601.041      599.935        1.826        0.429      165.627       25.563        0.024      342.193       17.428      861.978
05/24/2014  03:28:00      -64.348      128.879      -11.932       40.570       44.376       32.100     1645.943     1969.214     1030.385        1.277        0.232      144.050       29.336        0.041      342.156       17.368      861.983
05/24/2014  03:29:00      -73.086      151.651      -13.876       42.060       58.411       29.751     1769.015     3411.887      885.101        1.730        0.303      168.344       20.800        0.015      342.135       17.332      861.984
05/24/2014  03:30:00      -59.445      105.503       -9.700       59.697       61.429       37.823     3563.690     3773.555     1430.542        1.176        0.438      121.097       29.908        0.061      342.165       17.382      861.977
05/24/2014  03:31:00      -30.839      132.385      -14.739       49.813       63.123       33.438     2481.341     3984.568     1118.130        1.314        0.379      135.930       35.513        0.068      342.183       17.415      861.974
05/24/2014  03:32:00      -17.225      233.291      -19.022       57.045       96.502       48.998     3254.186     9312.715     2400.837        3.502        0.748      233.926       54.793        0.055      342.152       17.360      861.968
05/24/2014  03:33:00      -29.393      206.657      -16.077       54.000       82.470       43.445     2915.997     6801.262     1887.503        2.771        0.580      208.737       42.474        0.041      342.143       17.344      861.972
05/24/2014  03:34:00      -97.127      182.433      -22.254       74.405       84.879       41.924     5536.130     7204.372     1757.608        2.885        0.725      206.678       36.099        0.031      342.153       17.360      861.967
05/24/2014  03:35:00      -14.827      280.910      -30.838       62.866      101.892       40.603     3952.154    10381.905     1648.579        4.803        0.799      281.301       41.802        0.022      342.045       17.178      861.979
05/24/2014  03:36:00      -29.923      309.474      -38.818       58.030       96.174       35.864     3367.464     9249.432     1286.202        5.604        0.695      310.918       35.820        0.013      341.985       17.075      861.977
05/24/2014  03:37:00      -42.429      283.493      -37.084       73.993      106.145       41.998     5474.991    11266.697     1763.818        5.102        0.925      286.650       46.243        0.026      341.973       17.056      861.974
05/24/2014  03:38:00     -156.106      235.941      -37.923       77.695      102.541       46.410     6036.512    10514.683     2153.852        5.009        0.935      282.908       42.914        0.023      342.142       17.342      861.997
05/24/2014  03:39:00      -42.119      160.781      -22.427       37.806       46.821       24.603     1429.308     2192.173      605.319        1.618        0.211      166.207       17.459        0.011      342.095       17.264      862.003
05/24/2014  03:40:00      -24.482      158.295      -23.296       43.667       49.999       30.266     1906.823     2499.895      916.012        1.576        0.266      160.177       22.515        0.020      341.987       17.080      862.013
05/24/2014  03:41:00       -6.087      177.784      -16.514       33.070       62.965       26.782     1093.608     3964.578      717.293        1.885        0.289      177.889       31.877        0.032      341.932       16.985      862.034
05/24/2014  03:42:00      -31.011      172.890      -21.373       35.615       61.606       23.557     1268.460     3795.314      554.942        1.846        0.281      175.649       25.320        0.021      341.849       16.846      862.060
05/24/2014  03:43:00     -103.378       83.425      -19.260       52.569       57.353       31.454     2763.543     3289.424      989.331        1.253        0.352      132.841       34.318        0.067      341.899       16.932      862.075
05/24/2014  03:44:00     -142.154       71.801      -24.911       40.314       41.571       28.075     1625.257     1728.124      788.233        1.506        0.207      159.258       19.885        0.016      341.875       16.890      862.080
05/24/2014  03:45:00     -127.238      -15.352      -12.407       53.918       50.862       22.404     2907.130     2586.937      501.920        1.129        0.300      128.161       22.409        0.031      341.863       16.869      862.080
05/24/2014  03:46:00      -99.251      -16.952      -19.909       53.069       29.238       24.243     2816.347      854.878      587.738        0.740        0.213      100.688       14.286        0.020      341.870       16.882      862.086
05/24/2014  03:47:00      -16.570      -13.085        2.096       65.338       25.884       18.437     4269.003      669.986      339.940        0.286        0.264       21.113       23.958        1.288      341.809       16.780      862.106
05/24/2014  03:48:00      -74.093      -11.314      -13.315       49.402       29.404       23.137     2440.555      864.578      535.307        0.482        0.192       74.952       23.018        0.094      341.837       16.826      862.138
05/24/2014  03:49:00      -48.491       66.330      -13.706       46.095       45.723       30.271     2124.716     2090.636      916.322        0.603        0.257       82.165       40.213        0.240      341.798       16.761      862.148
05/24/2014  03:50:00       20.580       41.772        6.805       29.487       29.020       17.871      869.478      842.157      319.360        0.212        0.102       46.567       16.999        0.133      341.757       16.691      862.147
05/24/2014  03:51:00      -45.145       48.690      -12.060       16.233       28.543       12.978      263.501      814.701      168.436        0.290        0.062       66.399        7.094        0.011      341.843       16.838      862.154
05/24/2014  03:52:00      -39.006       22.319       -5.844       39.068       25.920       17.951     1526.307      671.848      322.237        0.229        0.126       44.940       24.615        0.300      341.821       16.801      862.159
05/24/2014  03:53:00       39.221       11.273        3.893       19.765       14.992       18.019      390.646      224.763      324.689        0.131        0.047       40.808       10.441        0.065      341.785       16.739      862.152
05/24/2014  03:54:00        8.998       25.832        4.439       38.894       20.637       17.773     1512.747      425.867      315.872        0.151        0.113       27.355       11.947        0.191      341.765       16.706      862.155
05/24/2014  03:55:00      -35.120       -7.421       -2.461       18.975       20.790        8.791      360.054      432.223       77.289        0.108        0.043       35.896        6.033        0.028      341.838       16.829      862.155
05/24/2014  03:56:00        2.223        2.519        9.273       36.119       24.491       14.928     1304.565      599.826      222.849        0.111        0.106        3.360       22.193       43.633      341.820       16.798      862.156
05/24/2014  03:57:00       39.632       13.226       11.946       27.741       18.817       15.817      769.581      354.073      250.167        0.163        0.069       41.781       12.350        0.087      341.787       16.741      862.167
05/24/2014  03:58:00       17.810        8.500       13.908       16.890       15.409       11.562      285.259      237.432      133.672        0.062        0.033       19.734        8.020        0.165      341.735       16.654      862.177
05/24/2014  03:59:00       12.686       14.139       -1.235       35.908       17.927       15.543     1289.356      321.361      241.578        0.111        0.093       18.996        8.938        0.221      341.766       16.705      862.205
05/24/2014  04:00:00      -11.296       12.021       11.187       20.860       12.863       14.126      435.132      165.450      199.553        0.060        0.040       16.495       11.033        0.447      341.707       16.607      862.231
05/24/2014  04:01:00        1.399      -12.404       15.813       13.768       20.160       11.990      189.564      406.437      143.765        0.057        0.037       12.482        8.825        0.500      341.685       16.569      862.242
05/24/2014  04:02:00       25.422       26.419       17.025       21.662       22.508       12.619      469.247      506.629      159.240        0.138        0.057       36.664        7.637        0.043      341.707       16.606      862.244
05/24/2014  04:03:00       65.406       38.353        1.849       19.139       20.925       12.522      366.286      437.839      156.799        0.336        0.048       75.822        7.209        0.009      341.683       16.565      862.249
05/24/2014  04:04:00       22.759      -20.623        7.264       27.030       22.013       21.565      730.606      484.574      465.070        0.134        0.084       30.713       17.544        0.326      341.676       16.553      862.239
05/24/2014  04:05:00       43.747      -51.362        6.140       30.648       37.241       31.985      939.316     1386.858     1023.039        0.397        0.167       67.468       29.113        0.186      341.460       16.189      862.238
05/24/2014  04:06:00        7.373      -55.292       -6.121       25.145       19.826       18.046      632.265      393.086      325.664        0.225        0.068       55.782        4.230        0.006      341.595       16.417      862.246
05/24/2014  04:07:00       12.879      -53.300       -3.560       22.656       27.572       16.344      513.276      760.215      267.137        0.228        0.077       54.834        8.038        0.021      341.600       16.426      862.252
05/24/2014  04:08:00       70.744       33.700       11.111       45.803       61.074       31.780     2097.879     3730.002     1009.979        0.655        0.342       78.361       36.088        0.212      341.505       16.263      862.268
05/24/2014  04:09:00       84.359      -37.287        2.342       45.293       43.305       31.079     2051.441     1875.313      965.894        0.670        0.245       92.232       20.023        0.047      341.383       16.058      862.282
05/24/2014  04:10:00       41.286      -18.531       34.523       42.661       26.317       19.377     1819.925      692.605      375.464        0.306        0.144       45.254       13.073        0.083      341.494       16.244      862.299
05/24/2014  04:11:00       -4.628      -72.508       17.266       26.649       30.173       22.810      710.154      910.381      520.294        0.386        0.107       72.655        8.897        0.015      341.732       16.648      862.299
05/24/2014  04:12:00      -31.407      -55.480        8.480       30.791       29.336       19.624      948.092      860.612      385.093        0.316        0.110       63.753       15.379        0.058      341.722       16.633      862.321
05/24/2014  04:13:00      -56.380      -12.125       -8.822       26.915       28.971       20.982      724.437      839.312      440.262        0.270        0.100       57.669        8.150        0.020      341.680       16.563      862.350
05/24/2014  04:14:00      -77.884      -13.165      -11.249       27.531       27.675       15.268      757.955      765.880      233.115        0.406        0.088       78.989        8.483        0.012      341.711       16.615      862.381
05/24/2014  04:15:00      -96.456      -57.501        1.113       48.219       42.009       18.957     2325.051     1764.723      359.349        0.853        0.222      112.294       16.043        0.020      341.671       16.545      862.379
05/24/2014  04:16:00      -68.575     -158.070       -7.660       35.274       32.317       18.587     1244.236     1044.374      345.460        1.619        0.132      172.304       21.367        0.015      341.673       16.550      862.368
05/24/2014  04:17:00      -61.963     -137.352       -6.276       39.980       51.698       27.626     1598.376     2672.720      763.204        1.389        0.252      150.682       22.610        0.023      341.648       16.510      862.343
05/24/2014  04:18:00      -86.386     -105.115       -0.195       56.375       44.565       26.223     3178.169     1986.043      687.627        1.218        0.293      136.058       27.947        0.042      341.616       16.453      862.330
05/24/2014  04:19:00      -56.578      -49.501        1.250       40.926       34.867       24.418     1674.897     1215.702      596.252        0.457        0.174       75.176       13.587        0.033      341.547       16.333      862.315
05/24/2014  04:20:00      -51.647      -58.182        1.776       47.787       39.438       23.778     2283.645     1555.331      565.380        0.523        0.220       77.798       14.206        0.033      341.605       16.435      862.310
05/24/2014  04:21:00     -168.879      -76.417      -16.627       54.708       66.760       25.990     2993.011     4456.962      675.464        2.138        0.406      185.364       21.397        0.013      341.539       16.320      862.299
05/24/2014  04:22:00      -81.651      -26.781        5.412       83.803       86.602       42.317     7022.913     7499.820     1790.720        1.186        0.816       85.930       42.719        0.247      341.502       16.257      862.284
05/24/2014  04:23:00      -80.383       25.476        6.280       79.583       46.930       36.475     6333.511     2202.447     1330.455        0.851        0.493       84.323       50.244        0.355      341.545       16.332      862.275
05/24/2014  04:24:00     -109.672       13.885       -3.901       49.012       33.999       20.113     2402.150     1155.955      404.549        0.810        0.198      110.547       22.034        0.040      341.643       16.497      862.263
05/24/2014  04:25:00     -135.643      -86.418      -10.951       85.704       42.021       24.397     7345.192     1765.729      595.223        1.784        0.485      160.833       23.057        0.021      341.542       16.325      862.267
05/24/2014  04:26:00      -47.963     -111.055        8.404       46.169       64.655       29.325     2131.551     4180.216      859.955        1.094        0.359      120.970       29.389        0.059      341.527       16.302      862.254
05/24/2014  04:27:00     -163.819     -119.689       -0.781       80.936       72.258       40.016     6550.635     5221.266     1601.258        2.727        0.669      202.884       36.103        0.032      341.545       16.330      862.236
05/24/2014  04:28:00     -122.859      -96.459        0.279       71.958       63.399       35.721     5177.897     4019.400     1276.013        1.743        0.524      156.201       33.001        0.045      341.516       16.281      862.229
05/24/2014  04:29:00     -166.427     -142.778       -2.713       90.060       66.528       49.143     8110.828     4425.969     2414.995        3.152        0.748      219.279       53.457        0.059      341.515       16.276      862.220
05/24/2014  04:30:00     -127.679      -92.674       -7.415       79.922       63.507       39.000     6387.534     4033.144     1521.029        1.844        0.597      157.767       40.325        0.065      341.467       16.197      862.213
05/24/2014  04:31:00      -76.291      -53.714        3.243       56.462       52.341       27.439     3187.932     2739.584      752.920        0.770        0.334       93.303       31.222        0.112      341.471       16.207      862.208
05/24/2014  04:32:00      -81.129      -46.861        2.297       53.218       54.967       26.068     2832.194     3021.422      679.516        0.766        0.327       93.690       27.137        0.084      341.492       16.240      862.203
05/24/2014  04:33:00      -93.078       -9.269       -3.693       48.962       41.342       27.850     2397.245     1709.149      775.614        0.682        0.244       93.539       28.630        0.094      341.560       16.357      862.195
05/24/2014  04:34:00     -105.315        7.155       -5.030       96.554       33.182       30.914     9322.725     1101.065      955.677        1.127        0.569      105.558       45.022        0.182      341.606       16.434      862.182
05/24/2014  04:35:00     -168.498       40.155      -28.198       50.894       37.791       18.942     2590.188     1428.140      358.814        1.759        0.219      173.216       12.980        0.006      341.665       16.534      862.174
05/24/2014  04:36:00      -34.540      -33.503       -0.132       21.036       24.296       18.594      442.523      590.282      345.742        0.185        0.069       48.119       13.739        0.082      341.621       16.462      862.152
05/24/2014  04:37:00     -139.342       48.254       -8.838       58.099       43.364       21.946     3375.484     1880.454      481.630        1.378        0.287      147.461       26.881        0.033      341.511       16.274      862.146
05/24/2014  04:38:00      -56.332       78.326       -1.241       61.612       44.273       32.543     3795.996     1960.074     1059.061        0.806        0.341       96.479       32.851        0.116      341.578       16.387      862.156
05/24/2014  04:39:00      -16.964      109.301       -5.047       55.666       54.518       31.280     3098.689     2972.167      978.410        0.965        0.352      110.610       26.095        0.056      341.700       16.593      862.106
05/24/2014  04:40:00     -146.031       86.277      -20.127       62.271       46.894       33.072     3877.721     2199.036     1093.736        1.817        0.359      169.614       14.659        0.007      341.615       16.449      862.089
05/24/2014  04:41:00     -159.016       77.229      -12.844       82.560       77.655       44.261     6816.140     6030.254     1959.028        2.311        0.740      176.777       44.733        0.064      341.554       16.344      862.076
05/24/2014  04:42:00      -99.512      192.631      -29.800       68.320       64.347       37.692     4667.674     4140.479     1420.691        2.906        0.511      216.817       28.811        0.018      341.680       16.558      862.081
05/24/2014  04:43:00      -30.577      228.205      -25.753       44.280       61.455       32.430     1960.679     3776.732     1051.713        3.023        0.339      230.244       21.272        0.009      341.647       16.501      862.058
05/24/2014  04:44:00      -40.896      266.068      -29.579       66.449       75.532       44.842     4415.441     5705.156     2010.761        4.273        0.607      269.192       36.382        0.018      341.535       16.312      862.051
05/24/2014  04:45:00     -164.198      359.944      -50.863       92.900      117.797       54.411     8630.496    13876.097     2960.545        9.228        1.273      395.627       39.282        0.010      341.650       16.506      862.056
05/24/2014  04:46:00     -107.257      227.376      -24.902       78.429       91.313       45.146     6151.099     8338.023     2038.136        4.017        0.826      251.404       46.635        0.034      341.639       16.489      862.064
05/24/2014  04:47:00      -99.792      219.302      -26.342       57.497       91.992       40.741     3305.864     8462.524     1659.816        3.608        0.671      240.939       36.895        0.023      341.604       16.429      862.082
05/24/2014  04:48:00      -57.933      274.213      -34.159       42.946       75.574       31.711     1844.369     5711.387     1005.605        4.414        0.428      280.266       28.689        0.010      341.581       16.389      862.078
05/24/2014  04:49:00      -77.803      212.107      -15.849       52.958       93.231       35.999     2804.601     8692.096     1295.963        3.204        0.640      225.927       44.259        0.038      341.451       16.170      862.092
05/24/2014  04:50:00      -85.212      223.581      -25.981       64.884       62.872       35.035     4209.966     3952.833     1227.421        3.366        0.470      239.269       36.974        0.024      341.408       16.096      862.107
05/24/2014  04:51:00      -59.149      147.495       -8.612       79.039       80.795       49.608     6247.113     6527.886     2460.991        2.028        0.762      158.913       42.042        0.070      341.389       16.066      862.115
05/24/2014  04:52:00      -38.738      339.585      -40.422       54.923       65.823       40.886     3016.502     4332.718     1671.669        6.373        0.451      341.787       31.843        0.009      341.452       16.171      862.115
05/24/2014  04:53:00      -95.408      259.700      -33.442       52.495       81.704       36.029     2755.746     6675.597     1298.084        4.420        0.536      276.671       41.739        0.023      341.454       16.173      862.120
05/24/2014  04:54:00       32.067      182.570      -19.475       62.837       58.504       42.685     3948.545     3422.662     1822.003        2.196        0.460      185.365       33.497        0.033      341.302       15.919      862.118
05/24/2014  04:55:00       22.430      139.084        1.621       52.473       88.921       48.307     2753.454     7906.859     2333.545        1.642        0.650      140.882       55.494        0.155      341.166       15.690      862.112
05/24/2014  04:56:00       68.146       92.970        9.032       59.052       53.815       50.429     3487.084     2896.049     2543.085        1.115        0.446      115.270       39.498        0.117      341.157       15.675      862.101
05/24/2014  04:57:00       18.120      156.746      -15.404       43.808       78.097       35.550     1919.098     6099.175     1263.787        1.721        0.464      157.790       39.693        0.063      341.179       15.711      862.083
05/24/2014  04:58:00       48.541      176.573      -14.687       53.861       93.805       52.016     2900.971     8799.454     2705.666        2.408        0.720      183.124       48.891        0.071      341.178       15.711      862.065
05/24/2014  04:59:00      -10.494      237.037      -21.583       88.431       74.492       53.823     7820.019     5549.110     2896.867        3.651        0.813      237.269       52.018        0.048      341.230       15.794      862.060
05/24/2014  05:00:00       40.059      193.336      -19.585       62.520       67.747       42.824     3908.735     4589.713     1833.885        2.485        0.517      197.443       36.034        0.033      341.176       15.704      862.056
05/24/2014  05:01:00       24.152      229.838      -22.925       66.827      112.100       54.908     4465.886    12566.439     3014.896        3.699        1.002      231.104       65.059        0.079      341.146       15.652      862.037
05/24/2014  05:02:00       16.186      221.801      -17.561       62.512       95.248       42.610     3907.754     9072.187     1815.644        3.228        0.740      222.390       52.455        0.056      341.095       15.566      862.026
05/24/2014  05:03:00       29.872      250.683      -31.251       50.582       74.463       41.966     2558.520     5544.717     1761.181        3.729        0.493      252.457       35.464        0.020      341.096       15.569      862.018
05/24/2014  05:04:00       41.553      264.599      -34.120       48.795       75.478       43.201     2380.928     5696.947     1866.285        4.142        0.497      267.842       38.855        0.021      341.149       15.659      862.007
05/24/2014  05:05:00       16.746      213.483      -23.903       61.857       85.249       41.784     3826.321     7267.468     1745.929        2.963        0.642      214.139       43.572        0.041      341.129       15.624      862.015
05/24/2014  05:06:00      -41.583      262.624      -26.096       54.605       61.677       30.157     2981.711     3804.027      909.469        3.954        0.385      265.896       33.566        0.016      341.199       15.742      862.034
05/24/2014  05:07:00      -28.207      226.099      -28.990       52.517       75.105       27.884     2757.988     5640.736      777.521        3.096        0.459      227.852       29.928        0.017      341.185       15.719      862.028
05/24/2014  05:08:00      -67.468      256.143      -38.354       68.955       74.726       35.834     4754.796     5583.939     1284.063        4.163        0.581      264.879       31.844        0.014      341.253       15.833      862.026
05/24/2014  05:09:00      -11.120      180.476      -17.940       59.931       65.777       42.922     3591.693     4326.556     1842.274        2.139        0.488      180.818       43.600        0.058      341.205       15.755      862.033
05/24/2014  05:10:00      -52.798      221.239      -23.676       49.186       56.720       23.931     2419.250     3217.189      572.707        2.925        0.310      227.452       22.791        0.010      341.246       15.823      862.032
05/24/2014  05:11:00      -26.107      149.372      -17.669       33.169       45.884       24.093     1100.177     2105.322      580.470        1.355        0.189      151.636       21.925        0.021      341.179       15.712      862.051
05/24/2014  05:12:00      -36.737      150.626      -11.629       53.935       53.587       28.334     2909.023     2871.607      802.820        1.538        0.329      155.041       25.849        0.028      341.241       15.817      862.065
05/24/2014  05:13:00      -43.214      117.545       -7.553       39.946       39.436       30.460     1595.721     1555.195      927.820        0.991        0.204      125.237       20.613        0.027      341.244       15.822      862.066
05/24/2014  05:14:00       -7.805      177.005      -23.789       40.340       69.998       31.000     1627.308     4899.777      961.030        1.972        0.374      177.177       30.839        0.030      341.211       15.764      862.070
05/24/2014  05:15:00       12.789      164.835       -9.037       44.926       76.784       36.608     2018.386     5895.782     1340.116        1.833        0.463      165.330       42.924        0.067      341.143       15.650      862.074
05/24/2014  05:16:00        1.316      173.507      -17.364       62.947       54.758       31.181     3962.355     2998.433      972.250        1.917        0.397      173.512       28.166        0.026      341.184       15.719      862.081
05/24/2014  05:17:00        7.026      180.510      -12.348       50.854       52.347       33.051     2586.115     2740.185     1092.349        1.960        0.321      180.647       26.755        0.022      341.184       15.720      862.089
05/24/2014  05:18:00       34.103      179.311      -14.001       47.165       69.414       39.016     2224.544     4818.239     1522.286        2.104        0.428      182.525       38.740        0.045      341.189       15.728      862.101
05/24/2014  05:19:00        6.962      135.385       -6.073       60.605       89.732       35.577     3673.005     8051.876     1265.737        1.570        0.650      135.564       43.946        0.105      341.149       15.658      862.100
05/24/2014  05:20:00      -38.223      246.915      -27.908       42.102       52.097       23.199     1772.596     2714.089      538.174        3.411        0.251      249.856       14.131        0.003      341.278       15.877      862.105
05/24/2014  05:21:00      -53.578      199.540      -24.098       47.718       59.520       26.768     2277.014     3542.675      716.525        2.490        0.327      206.608       30.975        0.022      341.287       15.892      862.115
05/24/2014  05:22:00     -104.958      186.981      -31.595       48.740       73.103       33.247     2375.566     5343.990     1105.358        2.790        0.441      214.425       23.836        0.012      341.285       15.889      862.116
05/24/2014  05:23:00      -78.043      151.539       -9.977       38.572      102.164       40.360     1487.811    10437.386     1628.914        2.135        0.678      170.455       49.511        0.084      341.280       15.882      862.107
05/24/2014  05:24:00      -65.522      247.348      -28.727       50.643       73.271       29.682     2564.686     5368.572      881.040        3.756        0.441      255.880       17.150        0.004      341.284       15.887      862.101
05/24/2014  05:25:00      -54.966      212.259      -23.485       32.065       50.217       24.700     1028.135     2521.786      610.096        2.639        0.208      219.261       18.013        0.007      341.336       15.977      862.111
05/24/2014  05:26:00      -16.381      247.684      -34.049       48.268       69.377       20.864     2329.756     4813.231      435.301        3.518        0.379      248.225       26.713        0.012      341.332       15.967      862.105
05/24/2014  05:27:00      -73.724      227.557      -33.666       59.590       44.546       27.577     3550.917     1984.304      760.484        3.232        0.315      239.201       22.843        0.009      341.291       15.898      862.080
05/24/2014  05:28:00      -54.608      241.023      -31.443       32.520       52.789       24.422     1057.528     2786.675      596.435        3.325        0.222      247.131       16.260        0.004      341.296       15.906      862.054
05/24/2014  05:29:00      -84.581      162.264      -25.587       45.974       64.730       33.429     2113.645     4189.942     1117.526        2.078        0.371      182.985       30.105        0.027      341.242       15.816      862.038
05/24/2014  05:30:00      -86.151      205.054      -25.016       51.791       57.193       26.627     2682.257     3271.063      708.990        2.838        0.333      222.417       21.136        0.009      341.246       15.822      862.016
05/24/2014  05:31:00     -126.507      175.542      -40.718       59.767       47.819       36.415     3572.084     2286.673     1326.052        2.783        0.359      216.377       29.725        0.019      341.199       15.741      862.005
05/24/2014  05:32:00     -141.953      114.200      -26.892       66.950       59.118       41.536     4482.337     3494.938     1725.267        2.181        0.485      182.188       39.833        0.048      341.177       15.707      861.999
05/24/2014  05:33:00     -203.048      157.646      -40.368       74.965       61.246       49.521     5619.798     3751.020     2452.325        3.976        0.591      257.062       40.822        0.025      341.220       15.778      862.008
05/24/2014  05:34:00     -163.281      221.742      -35.500       74.498       81.544       55.281     5549.998     6649.418     3055.949        4.617        0.763      275.373       46.173        0.028      341.152       15.663      862.004
05/24/2014  05:35:00     -191.733      127.841      -30.473       65.942      103.128       50.983     4348.321    10635.370     2599.248        3.580        0.879      230.445       31.649        0.019      341.145       15.651      861.999
05/24/2014  05:36:00     -173.922       90.171      -26.078       69.625       79.033       46.051     4847.607     6246.236     2120.670        2.613        0.661      195.908       38.004        0.038      341.141       15.645      861.979
05/24/2014  05:37:00     -138.801       20.216       -5.325       97.911       50.828       43.279     9586.546     2583.519     1873.087        1.687        0.702      140.265       51.384        0.134      341.161       15.681      861.969
05/24/2014  05:38:00     -204.602       78.304      -26.538       73.174       74.246       43.236     5354.374     5512.458     1869.376        3.071        0.637      219.074       31.427        0.021      341.146       15.655      861.964
05/24/2014  05:39:00      -91.059       48.536       -6.904       56.150       95.109       40.917     3152.793     9045.729     1674.192        1.228        0.694      103.187       32.330        0.098      341.149       15.660      861.949
05/24/2014  05:40:00     -150.092       11.304      -19.204       69.624       51.674       36.636     4847.474     2670.222     1342.193        1.594        0.443      150.517       36.040        0.057      341.164       15.685      861.934
05/24/2014  05:41:00     -223.888      -17.663      -16.343       90.376       59.079       45.181     8167.858     3490.353     2041.359        3.220        0.685      224.583       43.704        0.038      341.145       15.652      861.949
05/24/2014  05:42:00     -233.796      -20.321      -14.115       82.114       76.894       44.425     6742.636     5912.615     1973.560        3.495        0.731      234.678       42.262        0.032      341.041       15.475      861.962
05/24/2014  05:43:00     -137.245      -46.476        0.833       83.997       65.471       38.151     7055.418     4286.462     1455.475        1.689        0.640      144.900       39.914        0.076      340.965       15.348      861.984
05/24/2014  05:44:00     -165.063       -5.289        0.918       63.924       69.334       38.775     4086.302     4807.194     1503.490        1.883        0.520      165.147       23.826        0.021      341.000       15.407      862.012
05/24/2014  05:45:00     -119.074      -42.115       -1.186       52.889       51.247       28.331     2797.267     2626.291      802.632        1.109        0.311      126.302       21.581        0.029      340.886       15.216      862.059
05/24/2014  05:46:00     -140.927       21.561      -19.675       52.414       77.232       31.735     2747.224     5964.831     1007.128        1.521        0.486      142.567       22.916        0.026      340.833       15.124      862.090
05/24/2014  05:47:00     -105.082       48.720      -20.006       50.763       58.699       37.999     2576.833     3445.595     1443.905        1.064        0.373      115.827       30.281        0.068      340.836       15.130      862.121
05/24/2014  05:48:00      -22.625       31.942       11.330       47.675       43.337       33.714     2272.858     1878.132     1136.601        0.347        0.264       39.143       29.236        0.558      340.856       15.165      862.147
05/24/2014  05:49:00      -79.965      141.397      -14.418       57.685      114.068       39.781     3327.534    13011.493     1582.501        2.225        0.896      162.442       41.737        0.066      340.906       15.248      862.176
05/24/2014  05:50:00      -83.499      164.250      -11.138       43.851       68.927       41.134     1922.944     4750.923     1692.002        2.122        0.418      184.255       34.354        0.035      340.943       15.311      862.185
05/24/2014  05:51:00     -108.555      164.386      -25.376       58.635       91.425       36.986     3438.022     8358.550     1367.980        2.631        0.658      196.994       37.050        0.035      340.913       15.260      862.177
05/24/2014  05:52:00      -49.891      120.924       -2.754       39.523       55.062       35.533     1562.033     3031.783     1262.609        1.149        0.293      130.812       26.780        0.042      340.878       15.202      862.160
05/24/2014  05:53:00      -99.571      111.425      -21.394       42.449       43.868       29.197     1801.939     1924.430      852.480        1.368        0.229      149.433       10.920        0.005      340.887       15.218      862.148
05/24/2014  05:54:00      -67.635       96.963        3.627       59.704       88.350       40.631     3564.616     7805.786     1650.881        1.350        0.651      118.221       29.662        0.063      340.956       15.335      862.142
05/24/2014  05:55:00     -119.862       81.281      -24.704       39.967       92.031       25.335     1597.329     8469.697      641.879        1.614        0.535      144.822       19.972        0.019      341.046       15.487      862.145
05/24/2014  05:56:00     -108.478       69.658       -2.990       68.176       68.490       41.293     4647.967     4690.846     1705.075        1.383        0.552      128.918       29.000        0.051      340.994       15.398      862.183
05/24/2014  05:57:00     -150.389       85.482      -37.567       73.746      103.760       38.549     5438.462    10766.046     1486.017        2.451        0.885      172.986       37.070        0.046      341.087       15.554      862.197
05/24/2014  05:58:00     -122.233      -29.509      -10.167       68.220       68.769       42.466     4653.918     4729.212     1803.403        1.355        0.559      125.745       32.315        0.066      341.021       15.443      862.200
05/24/2014  05:59:00     -111.953      -30.853       -1.495       42.077       54.361       27.057     1770.447     2955.120      732.095        0.947        0.273      116.127       21.975        0.036      340.900       15.239      862.220
05/24/2014  06:00:00     -140.369       49.712      -11.045       40.216       55.459       26.976     1617.346     3075.671      727.692        1.386        0.271      148.912       12.777        0.007      340.989       15.389      862.235
05/24/2014  06:01:00      -60.153       24.419       -0.842       39.693       49.115       29.177     1575.547     2412.283      851.313        0.453        0.242       64.920       20.986        0.104      341.026       15.454      862.259
05/24/2014  06:02:00     -109.150       24.766       -3.504       60.406       73.406       37.739     3648.920     5388.378     1424.210        1.150        0.523      111.925       37.810        0.114      341.061       15.514      862.294
05/24/2014  06:03:00     -126.352       64.176      -34.018       43.975       56.382       29.385     1933.839     3178.896      863.472        1.361        0.299      141.716       20.375        0.021      341.026       15.455      862.336
05/24/2014  06:04:00     -103.477       33.514       -2.501       76.257       34.702       27.906     5815.073     1204.228      778.755        0.982        0.390      108.769       38.286        0.124      341.020       15.443      862.364
05/24/2014  06:05:00      -48.353       -8.300       -3.545       45.758       31.068       22.036     2093.815      965.228      485.565        0.298        0.177       49.060       15.659        0.102      341.026       15.452      862.380
05/24/2014  06:06:00      -62.510       30.972       -9.415       56.574       76.796       32.954     3200.643     5897.596     1085.962        0.757        0.509       69.763       17.219        0.061      341.045       15.486      862.399
05/24/2014  06:07:00      -43.104       76.232        4.169       44.948       44.149       31.770     2020.333     1949.096     1009.327        0.633        0.249       87.574       26.473        0.091      341.031       15.461      862.404
05/24/2014  06:08:00     -110.539       34.301      -16.562       59.566       30.116       26.572     3548.101      906.969      706.088        0.941        0.258      115.739       24.624        0.045      341.076       15.536      862.405
05/24/2014  06:09:00      -94.023       69.423      -12.946       38.995       36.881       20.926     1520.581     1360.234      437.916        0.857        0.166      116.875       19.733        0.029      341.036       15.470      862.414
05/24/2014  06:10:00      -72.437       -4.053       -6.138       38.311       43.224       20.510     1467.758     1868.303      420.658        0.453        0.188       72.551       18.038        0.062      341.021       15.443      862.431
05/24/2014  06:11:00     -130.512      -52.723       -8.191       55.550       35.503       19.437     3085.790     1260.496      377.798        1.230        0.236      140.759       11.107        0.006      340.900       15.240      862.439
05/24/2014  06:12:00     -145.573      -19.146      -10.735       46.702       39.634       26.074     2181.084     1570.865      679.876        1.305        0.222      146.827       16.539        0.013      340.845       15.146      862.451
05/24/2014  06:13:00     -114.838       -8.655       -2.828       39.876       26.404       20.788     1590.106      697.167      432.121        0.799        0.136      115.164       19.828        0.030      340.882       15.211      862.455
05/24/2014  06:14:00     -126.406      -32.837       -7.488       28.483       31.023       19.838      811.279      962.419      393.533        0.964        0.108      130.601       14.905        0.013      340.866       15.184      862.464
05/24/2014  06:15:00     -114.459      -53.759       -5.265       27.073       28.276       13.692      732.931      799.508      187.460        0.887        0.086      126.455        4.740        0.001      340.898       15.239      862.470
05/24/2014  06:16:00      -45.330      -18.245        0.565       46.966       32.908       16.206     2205.850     1082.957      262.638        0.297        0.178       48.864       16.226        0.110      340.987       15.387      862.467
05/24/2014  06:17:00      -59.327      -23.120       -7.638       38.797       19.425       12.011     1505.229      377.336      144.270        0.307        0.101       63.673        6.914        0.012      340.897       15.236      862.460
05/24/2014  06:18:00      -49.550      -20.948       -6.546       23.486       21.919       17.828      551.572      480.461      317.825        0.214        0.067       53.796        7.738        0.021      340.934       15.297      862.464
05/24/2014  06:19:00      -68.249      -13.394       -0.044       32.170       24.695       15.251     1034.924      609.850      232.582        0.336        0.094       69.551       17.756        0.065      340.947       15.319      862.467
05/24/2014  06:20:00      -45.093      -21.098       -0.396       22.977       18.293       11.521      527.964      334.634      132.735        0.174        0.050       49.785        5.717        0.013      340.965       15.350      862.474
05/24/2014  06:21:00      -42.930      -35.073        3.173       35.996       21.767       17.319     1295.716      473.802      299.963        0.258        0.103       55.435       14.844        0.072      341.009       15.423      862.480
05/24/2014  06:22:00      -31.990      -31.181        1.552       29.756       19.049       15.552      885.405      362.853      241.879        0.174        0.075       44.673       13.145        0.087      340.982       15.379      862.485
05/24/2014  06:23:00      -43.761      -30.948       -2.806       20.642       18.341        9.747      426.112      336.397       95.010        0.187        0.043       53.598        4.215        0.006      340.954       15.331      862.490
05/24/2014  06:24:00      -24.590      -11.673        3.204       15.680       15.164       12.555      245.857      229.954      157.637        0.069        0.032       27.220       11.153        0.168      340.990       15.392      862.492
05/24/2014  06:25:00       -7.546       -7.243        7.471       12.654       12.304       11.838      160.130      151.398      140.132        0.031        0.023       10.459       10.318        0.973      341.158       15.676      862.511
05/24/2014  06:26:00       -3.085       -8.130        2.125       16.235       23.247       16.402      263.565      540.436      269.019        0.058        0.054        8.696       12.865        2.189      341.112       15.597      862.536
05/24/2014  06:27:00        1.445      -45.751        0.672       17.958       16.993       15.506      322.505      288.770      240.446        0.147        0.043       45.774       10.257        0.050      341.048       15.491      862.556
05/24/2014  06:28:00       37.080      -25.426       11.913       19.174       20.439       17.395      367.642      417.746      302.574        0.163        0.054       44.960       11.536        0.066      340.984       15.382      862.597
05/24/2014  06:29:00       15.320       -7.758       10.171       14.815       17.546       13.283      219.487      307.867      176.438        0.055        0.035       17.173        9.028        0.276      341.113       15.599      862.617
05/24/2014  06:30:00       10.848       12.328       21.734       17.499       16.308       13.536      306.203      265.946      183.227        0.075        0.038       16.421       11.454        0.487      341.120       15.613      862.639
05/24/2014  06:31:00       12.073      -19.024       11.886       20.744       22.617       20.322      430.312      511.510      412.989        0.100        0.068       22.531       16.744        0.552      341.070       15.527      862.659
05/24/2014  06:32:00       -0.800      -12.521       18.754       21.011       27.201       24.049      441.475      739.917      578.358        0.113        0.088       12.546       10.765        0.736      341.286       15.893      862.665
05/24/2014  06:33:00       36.222      -24.293        4.071       35.308       31.633       27.259     1246.675     1000.632      743.031        0.245        0.150       43.614       23.547        0.291      341.135       15.640      862.678
05/24/2014  06:34:00       12.212      -14.173       22.502       20.306       29.620       23.389      412.352      877.318      547.063        0.135        0.092       18.708       15.031        0.646      341.249       15.831      862.683
05/24/2014  06:35:00       11.765       -2.283       29.703       16.967       24.224       17.398      287.865      586.802      302.675        0.110        0.059       11.985       15.140        1.596      341.292       15.902      862.694
05/24/2014  06:36:00       15.931      -40.501       14.495       19.392       28.405       18.863      376.048      806.853      355.802        0.182        0.077       43.522       15.831        0.132      341.294       15.906      862.704
05/24/2014  06:37:00       44.257      -17.923        6.998       31.553       19.047       18.251      995.587      362.773      333.095        0.201        0.085       47.748       17.614        0.136      341.163       15.685      862.711
05/24/2014  06:38:00       12.877      -23.240       24.834       27.787       40.620       23.161      772.131     1650.004      536.417        0.214        0.148       26.569       25.694        0.935      341.354       16.009      862.712
05/24/2014  06:39:00       22.120      -55.996        3.733       28.801       29.086       20.976      829.516      845.999      439.992        0.288        0.106       60.206       12.136        0.041      341.280       15.883      862.699
05/24/2014  06:40:00      -15.808      -14.577        4.524       19.005       21.943       18.201      361.175      481.478      331.265        0.083        0.059       21.503       14.380        0.447      341.439       16.151      862.699
05/24/2014  06:41:00        6.144        7.812        8.246       20.835        7.698       10.705      434.088       59.262      114.598        0.039        0.030        9.939        6.251        0.396      341.356       16.011      862.714
05/24/2014  06:42:00       16.780       31.267        7.723       20.195       28.372       17.027      407.832      804.943      289.924        0.141        0.075       35.485       15.469        0.190      341.234       15.806      862.725
05/24/2014  06:43:00       21.885       19.012       -3.404        9.772       11.464       12.908       95.487      131.428      166.614        0.062        0.020       28.990        5.787        0.040      341.085       15.553      862.729
05/24/2014  06:44:00       26.546        0.023        6.705       16.844       16.707       14.146      283.705      279.137      200.106        0.076        0.038       26.546        9.463        0.127      341.232       15.802      862.735
05/24/2014  06:45:00       28.950       14.686       11.929       17.725       11.934       13.969      314.182      142.421      195.129        0.092        0.033       32.462        9.579        0.087      341.162       15.683      862.737
05/24/2014  06:46:00        7.684        5.234        7.685       13.319        7.988       11.554      177.394       63.801      133.504        0.026        0.019        9.297        7.086        0.581      341.471       16.207      862.733
05/24/2014  06:47:00       12.773       23.926       28.002       24.777       18.167       11.636      613.921      330.028      135.392        0.130        0.054       27.122       13.263        0.239      341.469       16.203      862.742
05/24/2014  06:48:00        7.543        4.002       24.287       14.709       23.765       12.544      216.368      564.774      157.343        0.080        0.047        8.539       11.756        1.895      341.555       16.350      862.740
05/24/2014  06:49:00        4.493      -10.871       -0.099       16.409       18.722       18.286      269.267      350.528      334.362        0.055        0.048       11.763       11.774        1.002      341.388       16.067      862.751
05/24/2014  06:50:00       -3.450       14.939       16.165       15.438       23.130       12.457      238.339      535.014      155.187        0.071        0.046       15.332        4.602        0.090      341.561       16.359      862.754
05/24/2014  06:51:00      -10.772       10.140       10.883       12.265       19.173       10.628      150.426      367.596      112.954        0.048        0.032       14.794        5.368        0.132      341.514       16.278      862.759
05/24/2014  06:52:00        6.068        9.268       19.601       20.557       17.646       19.437      422.600      311.398      377.812        0.081        0.056       11.078       10.301        0.865      341.521       16.291      862.759
05/24/2014  06:53:00        5.981       12.763       31.819       16.756       16.740       19.519      280.777      280.226      381.004        0.108        0.047       14.094        9.665        0.470      341.642       16.497      862.756
05/24/2014  06:54:00        8.211       18.461       31.632       23.010       17.946       17.471      529.456      322.068      305.220        0.128        0.058       20.205       13.500        0.446      341.607       16.437      862.764
05/24/2014  06:55:00       53.569       28.781       17.922       34.938       31.653       22.137     1220.656     1001.889      490.058        0.337        0.136       60.811       13.460        0.049      341.456       16.181      862.762
05/24/2014  06:56:00       79.564       21.967        1.110       43.934       50.308       33.898     1930.161     2530.864     1149.079        0.621        0.281       82.541       22.842        0.077      341.322       15.955      862.760
05/24/2014  06:57:00       66.273       31.332       24.105       50.364       33.438       30.875     2536.513     1118.127      953.247        0.528        0.230       73.306       17.447        0.057      341.474       16.210      862.765
05/24/2014  06:58:00       55.252       32.881       12.612       31.543       28.691       28.897      994.960      823.199      835.013        0.347        0.133       64.296       22.033        0.117      341.462       16.190      862.774
05/24/2014  06:59:00       10.813       26.034       13.563       24.294       26.956       18.378      590.176      726.648      337.735        0.132        0.083       28.190       17.769        0.397      341.853       16.855      862.779
05/24/2014  07:00:00       23.707       41.605        3.609       21.973       13.886       18.901      482.809      192.830      357.252        0.167        0.052       47.885       15.960        0.111      341.507       16.267      862.782
05/24/2014  07:01:00       27.600       23.674       12.810       34.166       17.817       22.583     1167.308      317.459      510.001        0.174        0.100       36.362       20.312        0.312      341.522       16.294      862.779
05/24/2014  07:02:00        2.328      -38.671       19.779       30.740       35.023       26.146      944.945     1226.641      683.625        0.237        0.143       38.741       18.934        0.239      341.396       16.080      862.776
05/24/2014  07:03:00      -11.091        7.287        3.604       25.155       28.615       25.107      632.756      818.818      630.338        0.114        0.104       13.271       15.969        1.448      341.498       16.254      862.787
05/24/2014  07:04:00       10.168       10.884       19.203       12.511        9.883        9.418      156.524       97.669       88.704        0.047        0.017       14.895        5.904        0.157      341.684       16.568      862.793
05/24/2014  07:05:00       53.347       28.924       14.544       33.895       19.229       19.270     1148.889      369.769      371.317        0.289        0.094       60.683        7.329        0.015      341.385       16.059      862.796
05/24/2014  07:06:00        7.223        9.831       26.951       28.568       20.816       15.592      816.107      433.318      243.111        0.118        0.075       12.199       13.300        1.189      341.866       16.878      862.797
05/24/2014  07:07:00        0.122       13.242       12.176        9.984       10.640       14.091       99.679      113.204      198.566        0.037        0.021       13.243       10.174        0.590      341.965       17.044      862.796
05/24/2014  07:08:00      -11.591      -38.790       -4.829       21.550       18.194       15.989      464.414      331.029      255.637        0.136        0.053       40.485       13.064        0.104      341.625       16.466      862.799
05/24/2014  07:09:00      -17.135      -14.968       11.081       16.264       14.580       12.744      264.516      212.568      162.421        0.064        0.032       22.752        9.393        0.170      341.684       16.567      862.807
05/24/2014  07:10:00       -6.047      -12.607       -1.609       40.858       20.673       15.669     1669.368      427.386      245.512        0.127        0.117       13.982       10.330        0.546      341.519       16.288      862.815
05/24/2014  07:11:00       16.939       34.678        0.431       17.432       24.745       22.350      303.889      612.295      499.523        0.145        0.071       38.594       16.721        0.188      341.583       16.397      862.826
05/24/2014  07:12:00       16.067       32.233       29.496       22.892       23.692       26.175      524.025      561.330      685.123        0.197        0.089       36.016       15.491        0.185      341.824       16.805      862.828
05/24/2014  07:13:00       35.004        9.748       41.427       26.100       27.254       22.348      681.194      742.784      499.434        0.248        0.096       36.336       18.154        0.250      341.733       16.649      862.838
05/24/2014  07:14:00       12.719       21.591       50.198       31.380       48.951       23.598      984.732     2396.224      556.871        0.354        0.197       25.059       19.470        0.604      341.873       16.888      862.833
05/24/2014  07:15:00       14.615      -25.016        8.857       33.140       71.229       31.436     1098.244     5073.552      988.245        0.404        0.358       28.973       25.021        0.746      341.591       16.410      862.814
05/24/2014  07:16:00       21.042      -26.764        7.267       21.904       24.751       23.837      479.790      612.621      568.198        0.144        0.083       34.045       19.425        0.326      341.759       16.694      862.807
05/24/2014  07:17:00       -3.616      -20.733       10.069        9.873       15.263       13.295       97.479      232.970      176.745        0.053        0.025       21.046        7.531        0.128      341.891       16.918      862.804
05/24/2014  07:18:00       24.036        1.859       30.393       29.319       20.019       18.256      859.581      400.761      333.285        0.155        0.080       24.108       15.602        0.419      341.973       17.059      862.804
05/24/2014  07:19:00       18.919      -43.931       -3.655       24.927       23.362       19.483      621.359      545.806      379.602        0.192        0.077       47.831        9.680        0.041      341.604       16.431      862.798
05/24/2014  07:20:00        3.197       34.207       11.786       25.497       35.667       21.941      650.075     1272.117      481.424        0.186        0.120       34.356       13.901        0.164      341.968       17.050      862.798
05/24/2014  07:21:00       13.668       -0.013        2.235       29.236       72.152       26.808      854.769     5205.841      718.677        0.348        0.339       13.668       30.943        5.125      341.643       16.498      862.797
05/24/2014  07:22:00      -32.021       -0.863        6.419       34.320       21.183       14.494     1177.837      448.740      210.063        0.145        0.092       32.033       13.568        0.179      341.841       16.834      862.783
05/24/2014  07:23:00       66.892       61.671       18.636       49.653       27.417       35.333     2465.397      751.690     1248.391        0.654        0.223       90.982        7.069        0.006      341.771       16.715      862.774
05/24/2014  07:24:00      -19.456      -20.960       30.944       35.876       32.062       30.798     1287.107     1027.986      948.511        0.252        0.163       28.598        8.843        0.096      342.022       17.140      862.771
05/24/2014  07:25:00       -8.343       -2.075       22.104       36.657       57.181       28.362     1343.720     3269.684      804.381        0.299        0.271        8.597       22.321        6.741      342.104       17.282      862.762
05/24/2014  07:26:00       65.260       51.315       12.125       65.186       35.662       34.665     4249.174     1271.755     1201.682        0.688        0.336       83.019       15.008        0.033      342.044       17.178      862.773
05/24/2014  07:27:00       83.354       61.959        6.936       38.314       32.001       26.398     1467.941     1024.044      696.878        0.701        0.159      103.860       20.482        0.039      341.946       17.012      862.773
05/24/2014  07:28:00       56.011       55.886        8.926       42.011       54.494       32.256     1764.913     2969.639     1040.453        0.606        0.289       79.123       25.936        0.107      342.164       17.382      862.787
05/24/2014  07:29:00       -5.262       37.858       -1.966       39.043       53.890       27.329     1524.319     2904.118      746.854        0.332        0.259       38.222       26.623        0.485      342.129       17.323      862.812
05/24/2014  07:30:00       20.021       34.715       27.399       29.121       25.956       20.786      848.005      673.707      432.044        0.215        0.098       40.074       20.640        0.265      342.276       17.572      862.810
05/24/2014  07:31:00       18.021       38.644        8.587       23.443       25.312       21.079      549.568      640.706      444.336        0.176        0.082       42.639       11.056        0.067      342.281       17.581      862.825
05/24/2014  07:32:00       20.787       77.077        2.834       39.715       50.670       28.809     1577.272     2567.472      829.985        0.568        0.249       79.831       25.797        0.104      342.270       17.560      862.831
05/24/2014  07:33:00       32.163       84.672        4.969       54.557       64.534       38.139     2976.447     4164.602     1454.568        0.841        0.430       90.575       40.420        0.199      342.123       17.312      862.827
05/24/2014  07:34:00       49.371      102.093        5.196       44.607       47.618       44.147     1989.749     2267.430     1948.966        0.955        0.310      113.404       35.989        0.101      342.097       17.267      862.850
05/24/2014  07:35:00      -10.861      121.706       -5.777       44.202       55.328       35.385     1953.809     3061.209     1252.122        1.061        0.313      122.190       31.525        0.067      342.157       17.371      862.868
05/24/2014  07:36:00        8.614      186.493      -16.596       29.502       61.205       30.799      870.396     3746.031      948.603        2.035        0.278      186.692       30.025        0.026      341.992       17.088      862.876
05/24/2014  07:37:00       45.801      119.562       -1.309       59.173       49.025       38.501     3501.385     2403.479     1482.297        1.189        0.369      128.034       28.615        0.050      342.241       17.512      862.879
05/24/2014  07:38:00       37.914      125.717       -9.963       60.599       48.115       42.624     3672.186     2315.013     1816.809        1.257        0.390      131.309       38.209        0.085      342.116       17.300      862.871
05/24/2014  07:39:00        3.697       85.219       14.626       29.764       46.939       33.534      885.897     2203.225     1124.499        0.585        0.211       85.299       29.513        0.120      342.417       17.813      862.876
05/24/2014  07:40:00      -17.074      103.240       -4.866       38.306       40.608       26.648     1467.323     1649.048      710.099        0.740        0.191      104.642       18.937        0.033      342.285       17.588      862.878
05/24/2014  07:41:00      -29.736      185.133      -15.687       64.447       83.657       41.572     4153.392     6998.574     1728.218        2.414        0.644      187.506       49.586        0.070      342.180       17.409      862.885
05/24/2014  07:42:00      -11.888      138.263        0.982       46.783       89.675       46.039     2188.629     8041.523     2119.569        1.580        0.617      138.773       43.090        0.096      342.362       17.717      862.876
05/24/2014  07:43:00       -7.880      190.876      -12.181       54.414      104.165       39.860     2960.870    10850.335     1588.787        2.602        0.770      191.039       48.502        0.064      342.178       17.403      862.880
05/24/2014  07:44:00       -0.463      190.810      -12.705       57.911       73.003       38.655     3353.686     5329.371     1494.242        2.337        0.509      190.811       40.812        0.046      342.223       17.481      862.875
05/24/2014  07:45:00        6.141      168.736       -7.562       53.700       80.609       43.715     2883.695     6497.860     1911.044        1.993        0.565      168.848       37.693        0.050      342.276       17.569      862.879
05/24/2014  07:46:00       34.160      236.816      -22.665       72.272      113.566       54.130     5223.183    12897.253     2930.046        3.940        1.053      239.267       68.260        0.081      342.053       17.190      862.878
05/24/2014  07:47:00      -10.174      257.060      -30.736       56.387       89.131       34.334     3179.455     7944.405     1178.820        3.971        0.615      257.262       43.297        0.028      342.047       17.178      862.885
05/24/2014  07:48:00      -16.864       91.810       -4.191       64.861       53.535       39.116     4206.931     2865.946     1530.079        0.867        0.430       93.346       28.498        0.093      342.321       17.647      862.892
05/24/2014  07:49:00        1.414      190.150      -13.126       53.500       90.158       44.051     2862.204     8128.522     1940.529        2.463        0.647      190.155       40.392        0.045      342.269       17.559      862.894
05/24/2014  07:50:00       14.428      170.102       -9.966       45.822      105.140       49.596     2099.670    11054.319     2459.752        2.242        0.781      170.713       53.044        0.097      342.260       17.542      862.894
05/24/2014  07:51:00       17.426      117.680       -6.765       57.621       74.547       43.922     3320.232     5557.266     1929.151        1.250        0.540      118.963       46.322        0.152      342.393       17.771      862.903
05/24/2014  07:52:00        6.843      214.404      -28.827       46.710       76.355       34.201     2181.840     5830.144     1169.697        2.801        0.459      214.513       37.010        0.030      342.212       17.459      862.916
05/24/2014  07:53:00      -14.004      158.219       -0.976       53.969       92.939       47.922     2912.608     8637.635     2296.513        1.954        0.692      158.837       56.929        0.128      342.382       17.751      862.901
05/24/2014  07:54:00       -1.946      120.974       -0.530       33.882       60.760       36.373     1147.977     3691.782     1322.979        1.040        0.308      120.990       36.484        0.091      342.418       17.813      862.874
05/24/2014  07:55:00       42.289       70.486       13.955       45.678       62.784       33.065     2086.462     3941.801     1093.326        0.704        0.356       82.198       26.841        0.107      342.460       17.885      862.835
05/24/2014  07:56:00      -20.879       35.864       16.192       69.352       46.011       36.414     4809.646     2116.987     1325.953        0.512        0.413       41.499       37.477        0.816      342.387       17.761      862.823
05/24/2014  07:57:00      -63.523      115.242      -13.104       71.278       45.913       35.699     5080.546     2107.968     1274.435        1.297        0.423      131.590       28.603        0.047      342.275       17.571      862.799
05/24/2014  07:58:00       37.244       45.065       20.827       38.765       26.977       28.415     1502.737      727.766      807.440        0.344        0.152       58.463       17.667        0.091      342.501       17.955      862.804
05/24/2014  07:59:00      -50.134       56.935       -2.174       44.615       32.833       22.501     1990.538     1077.983      506.300        0.467        0.179       75.862       24.473        0.104      342.382       17.751      862.807
05/24/2014  08:00:00       47.099       93.072       -6.917       37.431       49.202       31.588     1401.092     2420.872      997.788        0.787        0.241      104.311       30.700        0.087      342.447       17.863      862.834
05/24/2014  08:01:00      -52.042       39.106        1.156       45.499       27.541       22.369     2070.134      758.506      500.385        0.378        0.166       65.097       14.848        0.052      342.271       17.563      862.836
05/24/2014  08:02:00       -2.221      108.453       -8.424       47.553       47.586       33.685     2261.305     2264.463     1134.676        0.875        0.283      108.476       25.675        0.056      342.315       17.639      862.840
05/24/2014  08:03:00       11.533       79.752        8.578       52.382       53.433       34.638     2743.834     2855.080     1199.801        0.668        0.340       80.581       29.815        0.137      342.553       18.044      862.856
05/24/2014  08:04:00      -20.872      138.610       -8.041       34.671       62.765       33.430     1202.104     3939.437     1117.569        1.298        0.313      140.173       31.357        0.050      342.530       18.004      862.855
05/24/2014  08:05:00      -45.650       97.044       -8.018       56.129       61.922       32.821     3150.424     3834.371     1077.199        0.981        0.403      107.245       43.408        0.164      342.514       17.976      862.839
05/24/2014  08:06:00      -87.942      112.203      -18.397       56.454       53.604       37.187     3187.098     2873.368     1382.850        1.405        0.372      142.560       36.788        0.067      342.183       17.414      862.813
05/24/2014  08:07:00       -0.689       87.347        3.608       42.411       91.172       33.144     1798.657     8312.416     1098.528        0.942        0.560       87.350       43.957        0.253      342.594       18.112      862.793
05/24/2014  08:08:00      -11.879      179.901        0.174       59.205       83.030       43.685     3505.287     6894.013     1908.375        2.240        0.615      180.293       44.206        0.060      342.484       17.923      862.774
05/24/2014  08:09:00      -16.601      223.068      -17.073       59.054       49.230       37.074     3487.334     2423.614     1374.460        2.880        0.364      223.685       32.976        0.022      342.330       17.660      862.768
05/24/2014  08:10:00      -27.440       73.781       11.322       37.487       65.750       44.393     1405.303     4323.101     1970.730        0.701        0.385       78.719       37.440        0.226      342.666       18.235      862.760
05/24/2014  08:11:00      -25.185      152.414       -4.749       29.517       51.440       33.012      871.233     2646.056     1089.812        1.425        0.230      154.481       28.680        0.034      342.471       17.904      862.740
05/24/2014  08:12:00       41.689      111.441       11.633       59.184       66.858       43.876     3502.767     4469.963     1925.070        1.209        0.495      118.983       47.166        0.157      342.465       17.893      862.731
05/24/2014  08:13:00       80.988       69.416       25.813       55.119       47.377       40.090     3038.121     2244.533     1607.229        0.947        0.344      106.666       29.329        0.076      342.639       18.190      862.733
05/24/2014  08:14:00        1.324      134.123       -1.024       73.885       63.354       43.747     5459.034     4013.759     1913.765        1.469        0.569      134.129       49.907        0.138      342.435       17.841      862.768
05/24/2014  08:15:00       -6.916      121.019        4.862       36.116       74.659       37.104     1304.338     5573.968     1376.703        1.148        0.413      121.217       44.130        0.133      342.658       18.222      862.797
05/24/2014  08:16:00       27.412      127.633       -9.054       55.983       50.903       33.898     3134.084     2591.143     1149.070        1.200        0.344      130.543       30.542        0.055      342.590       18.105      862.803
05/24/2014  08:17:00      133.557       72.616        4.513       54.554       38.778       31.747     2976.149     1503.758     1007.851        1.431        0.274      152.021       19.166        0.016      342.271       17.563      862.793
05/24/2014  08:18:00       92.515       59.595        7.736       88.814       39.845       39.355     7887.955     1587.605     1548.842        1.160        0.551      110.048       25.746        0.055      342.615       18.148      862.790
05/24/2014  08:19:00      142.786      111.353        5.247       67.728       52.832       44.231     4587.063     2791.270     1956.373        2.107        0.467      181.073       31.138        0.030      342.372       17.734      862.784
05/24/2014  08:20:00      193.084      138.290       32.867       61.384       55.540       51.492     3768.032     3084.641     2651.464        3.349        0.475      237.498       23.899        0.010      342.311       17.628      862.796
05/24/2014  08:21:00       78.764      143.465       18.705       73.360       64.904       56.918     5381.758     4212.576     3239.662        1.998        0.642      163.664       42.206        0.067      342.598       18.118      862.818
05/24/2014  08:22:00       76.517      130.579       -0.357       56.266       59.269       50.807     3165.850     3512.761     2581.330        1.608        0.463      151.347       42.771        0.080      342.464       17.892      862.844
05/24/2014  08:23:00       58.303       27.161        7.420       64.732       32.143       30.552     4190.277     1033.175      933.418        0.517        0.308       64.319       23.459        0.133      342.546       18.032      862.855
05/24/2014  08:24:00       32.873       67.549       -3.988       31.120       52.769       30.589      968.474     2784.607      935.700        0.517        0.234       75.123       16.516        0.048      342.570       18.073      862.857
05/24/2014  08:25:00        7.808        7.086       30.872       21.043       22.553       10.271      442.809      508.659      105.492        0.106        0.053       10.544       10.068        0.912      343.235       19.205      862.868
05/24/2014  08:26:00       14.446       17.984       20.006       14.982       18.322       20.036      224.453      335.680      401.455        0.095        0.048       23.068       10.196        0.195      342.870       18.583      862.882
05/24/2014  08:27:00       -1.170       44.489        5.895       36.108       28.569       22.717     1303.789      816.191      516.079        0.233        0.132       44.505       22.507        0.256      342.795       18.455      862.918
05/24/2014  08:28:00       -2.155      110.923        1.510       43.021       92.395       37.269     1850.784     8536.777     1388.999        1.204        0.589      110.943       52.179        0.221      342.818       18.494      862.934
05/24/2014  08:29:00       17.465      180.550      -11.191       45.577       54.444       41.378     2077.287     2964.127     1712.154        1.989        0.338      181.393       35.314        0.038      342.722       18.331      862.949
05/24/2014  08:30:00      -31.121       53.684       11.574       41.731       48.216       33.449     1741.470     2324.771     1118.850        0.458        0.259       62.053       27.760        0.200      342.974       18.761      862.957
05/24/2014  08:31:00      -28.758       64.056        8.862       38.354       45.797       33.772     1471.008     2097.405     1140.581        0.486        0.235       70.215       32.929        0.220      343.228       19.192      862.965
05/24/2014  08:32:00      -56.460       59.888       14.350       81.342       59.114       34.052     6616.450     3494.439     1159.566        0.912        0.564       82.306       42.892        0.272      343.076       18.933      862.955
05/24/2014  08:33:00      -99.846      131.931      -11.788       52.828       93.005       45.115     2790.824     8649.921     2035.323        2.049        0.674      165.454       40.791        0.061      342.477       17.911      862.965
05/24/2014  08:34:00      -49.063       54.266        0.959       48.698       67.475       35.115     2371.476     4552.838     1233.054        0.675        0.408       73.157       39.717        0.295      342.889       18.615      862.943
05/24/2014  08:35:00      -93.702      -28.949        3.897       48.011       41.353       29.754     2305.102     1710.099      885.277        0.727        0.245       98.072       26.065        0.071      342.685       18.268      862.922
05/24/2014  08:36:00     -111.065       12.122        9.465       56.257       45.183       34.318     3164.852     2041.512     1177.744        0.948        0.319      111.724       34.423        0.095      342.612       18.143      862.915
05/24/2014  08:37:00      -36.915       81.671       19.984       66.447       94.618       49.450     4415.168     8952.472     2445.268        1.212        0.791       89.627       59.452        0.440      343.120       19.008      862.946
05/24/2014  08:38:00      -56.575      118.734       -3.382       63.401       42.503       42.066     4019.707     1806.489     1769.578        1.245        0.380      131.524       39.069        0.088      342.904       18.642      862.985
05/24/2014  08:39:00      -30.131      198.598      -12.970       60.336       61.468       35.897     3640.423     3778.299     1288.610        2.461        0.435      200.871       32.610        0.026      342.812       18.481      863.022
05/24/2014  08:40:00       93.024       89.588       14.595       52.803       43.962       43.382     2788.205     1932.636     1881.983        1.175        0.330      129.149       30.606        0.056      342.694       18.283      863.037
05/24/2014  08:41:00      121.647       43.530       13.446       50.530       32.613       38.208     2553.306     1063.588     1459.845        1.097        0.254      129.201       26.285        0.041      342.604       18.130      863.054
05/24/2014  08:42:00       68.675       57.794       24.906       60.920       31.595       31.547     3711.293      998.257      995.210        0.719        0.285       89.758       29.745        0.110      342.561       18.057      863.069
05/24/2014  08:43:00      -25.473      115.368       -2.238       25.690       42.087       25.958      659.960     1771.354      673.826        0.853        0.155      118.147       20.969        0.032      342.878       18.596      863.102
05/24/2014  08:44:00       34.443       76.570        1.895       64.328       44.538       29.186     4138.074     1983.662      851.826        0.701        0.349       83.960       21.819        0.068      342.844       18.539      863.131
05/24/2014  08:45:00      -10.886      176.846      -17.031       90.344       76.893       46.489     8162.081     5912.507     2161.188        2.396        0.812      177.181       51.424        0.084      342.753       18.380      863.153
05/24/2014  08:46:00       13.116      166.911      -15.163       52.416       73.482       43.011     2747.434     5399.624     1849.930        1.913        0.500      167.425       46.397        0.077      342.859       18.563      863.168
05/24/2014  08:47:00       66.096      135.292       -2.328       70.542       73.843       56.601     4976.213     5452.811     3203.649        1.815        0.682      150.574       42.055        0.078      343.138       19.037      863.164
05/24/2014  08:48:00      145.251       96.568       -3.763       54.570       37.930       42.085     2977.921     1438.687     1771.139        1.831        0.309      174.422       21.366        0.015      342.808       18.475      863.150
05/24/2014  08:49:00      102.659       85.615       69.464       65.259       52.734       41.844     4258.760     2780.857     1750.938        1.574        0.440      133.674        9.248        0.005      342.946       18.710      863.084
05/24/2014  08:50:00      175.608       88.275       49.550       87.868       52.904       51.953     7720.736     2798.826     2699.127        2.715        0.661      196.547       25.124        0.016      342.878       18.594      863.033
05/24/2014  08:51:00       93.842       87.522       11.114       66.993       47.085       47.231     4488.022     2217.001     2230.788        1.276        0.447      128.322       34.096        0.071      342.904       18.640      862.985
05/24/2014  08:52:00       83.675      219.972      -22.237       62.152       97.380       66.218     3862.853     9482.917     4384.762        3.680        0.887      235.350       65.533        0.078      342.720       18.324      862.993
05/24/2014  08:53:00      182.264      124.787       -9.499       61.572       48.646       40.555     3791.063     2366.388     1644.709        2.834        0.390      220.889       21.549        0.010      342.471       17.899      862.980
05/24/2014  08:54:00      120.234       81.536       15.966       56.407       41.058       37.304     3181.728     1685.735     1391.621        1.381        0.313      145.273       21.369        0.022      342.590       18.104      863.012
05/24/2014  08:55:00        5.195      146.707      -10.781       62.529       74.440       33.294     3909.822     5541.318     1108.463        1.611        0.528      146.799       37.763        0.066      342.936       18.695      863.029
05/24/2014  08:56:00      143.056      104.136       21.189       91.966       53.092       57.185     8457.658     2818.750     3270.124        2.315        0.727      176.944       22.991        0.017      342.823       18.501      863.020
05/24/2014  08:57:00       49.270      169.433      -15.972       47.653       54.896       41.317     2270.841     3013.605     1707.116        1.919        0.350      176.451       38.288        0.047      343.005       18.812      863.026
05/24/2014  08:58:00       45.331      126.767       -6.411       55.282       68.680       45.122     3056.127     4716.914     2035.988        1.399        0.490      134.629       44.347        0.109      342.780       18.428      863.027
05/24/2014  08:59:00       28.396      180.917      -17.444       35.839       45.014       38.876     1284.432     2026.267     1511.360        1.933        0.241      183.132       29.040        0.025      342.891       18.618      863.034
05/24/2014  09:00:00       26.709       74.061       19.510       52.008       43.264       39.925     2704.821     1871.766     1593.989        0.637        0.309       78.730       35.048        0.198      343.020       18.838      863.046
05/24/2014  09:01:00        8.442      112.594       -8.936       49.426       66.782       33.899     2442.964     4459.866     1149.172        1.044        0.403      112.910       35.804        0.101      342.895       18.625      863.030
05/24/2014  09:02:00      145.617       92.829       42.337       60.671       58.495       64.348     3680.981     3421.699     4140.698        2.143        0.562      172.689       33.964        0.039      342.918       18.662      862.985
05/24/2014  09:03:00        8.450       57.295        8.290       51.152       76.544       40.195     2616.526     5858.963     1615.670        0.675        0.505       57.915       29.005        0.251      343.062       18.909      862.932
05/24/2014  09:04:00      -54.647      222.963      -22.591       64.746      101.706       38.581     4191.993    10344.157     1488.468        3.461        0.801      229.562       46.409        0.041      342.838       18.526      862.902
05/24/2014  09:05:00      -88.853      168.670      -11.266       60.297       71.316       39.383     3635.700     5085.971     1550.985        2.337        0.514      190.642       37.963        0.040      342.946       18.710      862.858
05/24/2014  09:06:00      -73.651      131.762       -6.723       37.089       57.524       38.688     1375.608     3309.030     1496.743        1.450        0.309      150.949       39.427        0.068      343.001       18.805      862.828
05/24/2014  09:07:00      -39.962      130.916        3.234       46.900       51.908       35.161     2199.571     2694.457     1236.296        1.244        0.307      136.879       27.054        0.039      343.253       19.235      862.841
05/24/2014  09:08:00      -15.255       78.320        6.534       27.170       52.442       36.200      738.205     2750.178     1310.458        0.560        0.240       79.792       33.079        0.172      343.578       19.790      862.881
05/24/2014  09:09:00      -53.158       65.120       17.182       45.645       63.651       35.270     2083.500     4051.443     1243.950        0.737        0.369       84.062       35.976        0.183      343.387       19.464      862.913
05/24/2014  09:10:00      -61.413       79.533      -14.222       43.380       43.504       24.982     1881.865     1892.565      624.113        0.735        0.220      100.484       14.628        0.021      343.069       18.920      862.924
05/24/2014  09:11:00       51.200       58.272      -11.023       39.196       27.954       28.171     1536.316      781.420      793.603        0.462        0.156       77.570       16.738        0.047      342.792       18.451      862.864
05/24/2014  09:12:00       14.501       58.456       -9.260       39.807       67.215       25.448     1584.573     4517.909      647.609        0.523        0.338       60.228       21.311        0.125      342.977       18.764      862.787
05/24/2014  09:13:00        3.442        6.636       29.021       22.334       30.271       24.892      498.813      916.313      619.609        0.147        0.102        7.476       22.094        8.735      343.882       20.307      862.717
05/24/2014  09:14:00       -7.182       92.422      -18.630       27.419       65.033       21.465      751.799     4229.324      460.747        0.719        0.272       92.701       21.958        0.056      343.107       18.988      862.683
05/24/2014  09:15:00      -12.897      162.820      -25.364       55.917       51.008       31.939     3126.727     2601.807     1020.129        1.703        0.337      163.330       33.054        0.041      343.362       19.418      862.688
05/24/2014  09:16:00       31.712       39.141       -2.137       55.671       37.231       28.721     3099.249     1386.156      824.876        0.393        0.266       50.375       19.791        0.154      343.631       19.878      862.750
05/24/2014  09:17:00        7.835      147.090       -3.104       54.753       78.663       45.022     2997.895     6187.893     2026.965        1.646        0.561      147.298       48.286        0.107      343.481       19.623      862.803
05/24/2014  09:18:00      128.059      199.731      -18.235       91.676       75.900       51.590     8404.526     5760.821     2661.493        3.672        0.841      237.259       35.001        0.022      343.085       18.942      862.834
05/24/2014  09:19:00      177.879      109.033       12.746       40.095       56.695       44.177     1607.614     3214.379     1951.598        2.523        0.339      208.636       29.710        0.020      342.753       18.381      862.813
05/24/2014  09:20:00      107.981       90.259       -9.447       37.866       50.348       37.695     1433.856     2534.964     1420.930        1.264        0.269      140.736       33.087        0.055      342.940       18.701      862.779
05/24/2014  09:21:00       35.032       38.514       12.665       20.356       20.507       27.239      414.356      420.553      741.938        0.222        0.079       52.063       12.964        0.062      342.779       18.427      862.756
05/24/2014  09:22:00        5.309       25.014       30.049       22.902       22.884       17.583      524.502      523.678      309.153        0.146        0.068       25.571       15.871        0.385      343.635       19.887      862.745
05/24/2014  09:23:00       25.694       40.004       48.447       38.703       34.758       23.224     1497.899     1208.096      539.344        0.393        0.162       47.545       17.619        0.137      343.693       19.985      862.761
05/24/2014  09:24:00       26.502      -11.260       25.318       35.554       45.891       36.949     1264.100     2105.969     1365.239        0.310        0.237       28.795       32.911        1.306      343.660       19.928      862.775
05/24/2014  09:25:00       31.706       21.301       21.490       48.164       40.323       33.903     2319.724     1625.957     1149.406        0.351        0.255       38.197       31.832        0.694      343.844       20.244      862.787
05/24/2014  09:26:00       22.357       15.904        9.794       23.274       19.208       25.472      541.702      368.935      648.822        0.120        0.078       27.437       12.846        0.219      343.419       19.518      862.820
05/24/2014  09:27:00      -39.581       -1.959        2.870       48.026       21.535       19.453     2306.479      463.759      378.414        0.236        0.157       39.630       13.456        0.115      343.212       19.165      862.847
05/24/2014  09:28:00      -44.332       70.009       15.878       37.087       46.021       31.025     1375.459     2117.931      962.579        0.579        0.223       82.865       25.258        0.093      343.708       20.011      862.879
05/24/2014  09:29:00      -13.459      103.893       -3.301       34.435       59.342       31.849     1185.740     3521.477     1014.358        0.835        0.286      104.761       35.497        0.115      343.379       19.451      862.904
05/24/2014  09:30:00      -28.533      106.886        7.670       40.913       59.164       34.497     1673.877     3500.388     1190.039        0.933        0.318      110.629       35.401        0.102      343.623       19.865      862.899
05/24/2014  09:31:00     -121.273       88.729       -9.875       47.487       39.531       33.237     2255.022     1562.662     1104.670        1.380        0.246      150.267       32.284        0.046      343.095       18.965      862.892
05/24/2014  09:32:00      -69.051       80.690      -14.281       38.965       55.531       37.518     1518.250     3083.647     1407.612        0.874        0.300      106.202       20.921        0.039      343.326       19.359      862.874
05/24/2014  09:33:00      -19.819       51.291       29.984       37.374       58.089       35.126     1396.814     3374.358     1233.819        0.496        0.300       54.987       33.634        0.374      343.934       20.398      862.866
05/24/2014  09:34:00      -25.982       47.670       13.936       29.070       45.215       35.032      845.037     2044.434     1227.223        0.363        0.206       54.291       29.226        0.290      344.090       20.664      862.850
05/24/2014  09:35:00      -16.544       33.925        9.342       21.271       35.200       28.404      452.453     1239.059      806.798        0.200        0.125       37.745       20.656        0.299      344.116       20.707      862.830
05/24/2014  09:36:00       23.616       73.480       15.848       46.843       66.774       37.543     2194.271     4458.720     1409.468        0.713        0.403       77.182       35.930        0.217      344.247       20.933      862.827
05/24/2014  09:37:00       74.195       61.629       22.685       42.075       35.179       30.430     1770.347     1237.544      925.970        0.687        0.197       96.452       22.646        0.055      343.844       20.244      862.842
05/24/2014  09:38:00      119.813       86.611        9.521       57.276       47.410       35.696     3280.554     2247.747     1274.218        1.437        0.340      147.839       22.583        0.023      343.354       19.406      862.866
05/24/2014  09:39:00       80.684       87.490       -4.139       31.505       45.717       24.398      992.590     2090.073      595.266        0.893        0.184      119.014       21.580        0.033      343.171       19.096      862.879
05/24/2014  09:40:00       17.913       75.779        4.868       41.562       37.603       31.826     1727.391     1414.001     1012.913        0.512        0.208       77.868       14.412        0.034      343.641       19.896      862.878
05/24/2014  09:41:00       21.894       30.443       26.005       34.452       30.029       32.260     1186.967      901.747     1040.729        0.261        0.156       37.499       24.835        0.439      344.025       20.553      862.871
05/24/2014  09:42:00      -19.308       23.854       16.818       32.479       25.706       30.770     1054.886      660.804      946.775        0.194        0.133       30.689       18.520        0.364      344.191       20.835      862.863
05/24/2014  09:43:00      -74.881       37.150      -10.425       46.751       47.298       33.053     2185.624     2237.125     1092.532        0.630        0.276       83.590       30.254        0.131      343.357       19.412      862.852
05/24/2014  09:44:00       15.841       44.680        5.259       47.854       38.904       31.691     2290.018     1513.550     1004.349        0.354        0.240       47.405       24.133        0.259      343.671       19.949      862.826
05/24/2014  09:45:00      -43.508       -1.994        4.882       53.555       30.574       24.631     2868.086      934.748      606.689        0.316        0.220       43.554       30.318        0.485      343.519       19.689      862.818
05/24/2014  09:46:00      -24.181       18.278       -5.205       45.673       32.218       20.344     2086.012     1038.003      413.890        0.224        0.177       30.312       12.842        0.179      343.432       19.540      862.814
05/24/2014  09:47:00       19.142       11.362       15.335       29.009       63.581       22.791      841.515     4042.551      519.449        0.307        0.270       22.260       24.231        1.185      343.733       20.053      862.818
05/24/2014  09:48:00        3.004      120.523       -4.567       53.649       56.637       49.578     2878.190     3207.775     2457.939        1.155        0.427      120.561       35.454        0.086      343.705       20.006      862.810
05/24/2014  09:49:00       36.231       47.482       26.617       50.328       40.025       28.588     2532.877     1601.979      817.253        0.461        0.248       59.727        8.482        0.020      343.968       20.455      862.795
05/24/2014  09:50:00       -2.450        2.640       22.088       37.469       38.009       22.972     1403.941     1444.689      527.700        0.194        0.169        3.601       25.784       51.263      343.758       20.094      862.770
05/24/2014  09:51:00       36.272     -172.170       -6.105       60.430       70.687       33.961     3651.814     4996.687     1153.348        2.040        0.490      175.950       25.532        0.021      343.462       19.590      862.755
05/24/2014  09:52:00        0.460      -40.075       35.770       46.967       59.945       30.418     2205.892     3593.439      925.226        0.480        0.336       40.078       11.080        0.076      343.926       20.382      862.751
05/24/2014  09:53:00       36.191       38.165       34.357       51.232       55.126       37.840     2624.705     3038.855     1431.835        0.552        0.355       52.596       24.833        0.223      344.051       20.596      862.731
05/24/2014  09:54:00      154.128       84.792       38.172       82.547       57.838       52.217     6814.015     3345.263     2726.569        2.264        0.644      175.913       31.992        0.033      343.588       19.803      862.714
05/24/2014  09:55:00       77.456       55.866       32.231       56.430       56.507       42.406     3184.360     3193.037     1798.240        0.917        0.409       95.501       18.137        0.036      343.918       20.370      862.675
05/24/2014  09:56:00       11.797       37.723       54.325       47.044       86.563       52.523     2213.134     7493.104     2758.651        0.849        0.623       39.525       55.262        1.955      344.091       20.664      862.654
05/24/2014  09:57:00       31.492      -21.911       23.501       36.103       49.043       34.334     1303.418     2405.195     1178.837        0.345        0.244       38.365       26.174        0.465      344.477       21.324      862.643
05/24/2014  09:58:00       12.809       33.222        8.098       42.134       30.257       29.023     1775.236      915.495      842.311        0.243        0.177       35.606       19.924        0.313      343.972       20.462      862.646
05/24/2014  09:59:00       36.774       64.049       -2.586       29.349       36.715       28.102      861.377     1348.021      789.747        0.423        0.150       73.855       21.542        0.085      343.542       19.729      862.631
05/24/2014  10:00:00      153.454       77.129        8.470       53.739       45.592       42.125     2887.828     2078.634     1774.538        1.815        0.337      171.747       26.170        0.023      343.400       19.484      862.628
05/24/2014  10:01:00       83.237       74.332       50.223       62.186       44.136       44.420     3867.160     1947.957     1973.147        1.138        0.389      111.596       34.125        0.094      343.935       20.398      862.610
05/24/2014  10:02:00       30.584       81.067        0.418       80.978       50.208       36.803     6557.374     2520.872     1354.462        0.897        0.522       86.644       29.634        0.117      343.743       20.070      862.620
05/24/2014  10:03:00      -21.358      117.120       -8.876       57.548       86.834       30.281     3311.825     7540.164      916.925        1.301        0.588      119.052       30.544        0.066      343.611       19.845      862.616
05/24/2014  10:04:00      -12.171       41.898      -13.736       31.901       86.181       29.874     1017.688     7427.239      892.453        0.571        0.467       43.630       33.319        0.583      343.567       19.771      862.638
05/24/2014  10:05:00        1.547     -130.803       -3.111       32.595       30.783       32.148     1062.431      947.582     1033.494        1.008        0.152      130.812        9.690        0.005      343.293       19.303      862.628
05/24/2014  10:06:00       17.229      -15.788       13.509       32.892       66.918       27.680     1081.855     4478.017      766.171        0.353        0.316       23.369       21.038        0.810      344.002       20.512      862.619
05/24/2014  10:07:00       41.569      105.213       -4.429       70.738       78.873       49.939     5003.880     6220.876     2493.945        1.327        0.686      113.127       52.000        0.211      344.157       20.776      862.651
05/24/2014  10:08:00      -65.235       45.147      -13.744       42.062       68.492       25.766     1769.181     4691.098      663.877        0.680        0.356       79.334       25.512        0.103      343.559       19.757      862.650
05/24/2014  10:09:00      -38.793      109.631       -5.002       55.557       79.887       47.425     3086.576     6381.970     2249.178        1.263        0.586      116.292       52.006        0.200      343.920       20.372      862.638
05/24/2014  10:10:00     -112.002      259.945      -17.741      118.859      106.496       67.728    14127.389    11341.458     4587.126        5.524        1.503      283.047       61.028        0.046      343.727       20.038      862.626
05/24/2014  10:11:00     -134.489      247.767      -27.497       59.454       90.217       55.450     3534.823     8139.146     3074.737        4.749        0.737      281.914       51.791        0.034      343.625       19.865      862.637
05/24/2014  10:12:00        0.721      113.388       12.680       84.519      116.736       56.906     7143.467    13627.275     3238.247        1.851        1.200      113.391       65.524        0.334      344.505       21.369      862.616
05/24/2014  10:13:00       90.411      182.689      -11.844       94.390       94.347       62.565     8909.433     8901.303     3914.362        3.170        1.086      203.837       55.870        0.075      343.845       20.240      862.613
05/24/2014  10:14:00       92.359       74.966      -26.534       51.937       93.095       43.428     2697.456     8666.675     1886.021        1.405        0.663      118.954       40.574        0.116      343.680       19.961      862.595
05/24/2014  10:15:00       22.846       91.248        4.013       49.060       65.308       36.867     2406.930     4265.155     1359.187        0.845        0.402       94.064       33.885        0.130      344.179       20.815      862.600
05/24/2014  10:16:00     -192.524       22.580      -33.331       58.992      109.739       38.522     3480.062    12042.723     1483.982        2.784        0.850      193.844       33.621        0.030      343.694       19.984      862.615
05/24/2014  10:17:00     -142.848       27.109      -14.998       67.951       38.110       27.509     4617.299     1452.398      756.757        1.409        0.341      145.398       17.671        0.015      343.343       19.388      862.633
05/24/2014  10:18:00       -3.937      -54.313       -5.251       29.790       35.880       21.689      887.439     1287.359      470.415        0.282        0.132       54.456       19.147        0.124      343.378       19.447      862.633
05/24/2014  10:19:00      -75.456      -99.802      -16.858       39.384       41.167       26.885     1551.079     1694.692      722.782        0.995        0.198      125.116       25.364        0.041      343.339       19.381      862.612
05/24/2014  10:20:00      -41.257     -132.779       -2.745       40.046       72.960       27.304     1603.660     5323.127      745.505        1.350        0.384      139.041       12.988        0.009      343.328       19.362      862.602
05/24/2014  10:21:00      -58.274     -203.539       -9.105       40.618       56.929       22.065     1649.848     3240.884      486.866        2.514        0.269      211.717        6.403        0.001      343.249       19.224      862.598
05/24/2014  10:22:00      -61.020      -75.968       10.845       41.529       41.889       32.412     1724.657     1754.709     1050.567        0.707        0.226       97.440       18.380        0.036      343.817       20.196      862.581
05/24/2014  10:23:00      -65.617      -46.612       17.807       60.992       44.819       28.722     3720.056     2008.721      824.958        0.667        0.328       80.487       26.141        0.105      344.172       20.804      862.601
05/24/2014  10:24:00      -49.856      -12.523        8.990       55.848       35.610       31.347     3119.052     1268.055      982.623        0.405        0.268       51.405       31.377        0.373      344.482       21.333      862.631
05/24/2014  10:25:00      -24.475       48.674       17.338       41.860       47.706       36.917     1752.289     2275.866     1362.871        0.433        0.270       54.481       28.747        0.278      344.555       21.458      862.650
05/24/2014  10:26:00      -34.112       74.903       15.221       35.566       61.085       30.528     1264.970     3731.352      931.959        0.647        0.296       82.305       32.664        0.158      344.522       21.401      862.677
05/24/2014  10:27:00       49.389       45.450       25.863       49.502       54.407       45.714     2450.475     2960.153     2089.777        0.634        0.375       67.119       39.689        0.350      344.696       21.699      862.698
05/24/2014  10:28:00      159.130      112.862       23.474       98.673       60.879       48.286     9736.453     3706.295     2331.525        2.719        0.789      195.090       31.851        0.027      344.121       20.714      862.705
05/24/2014  10:29:00       30.673      149.808        7.556       69.049      114.882       58.935     4767.739    13197.938     3473.338        2.244        1.072      152.916       65.110        0.181      344.411       21.209      862.726
05/24/2014  10:30:00      122.131       33.767       21.054      105.921       71.972       48.908    11219.281     5180.028     2392.017        1.764        0.940      126.713       39.117        0.095      344.166       20.791      862.742
05/24/2014  10:31:00       56.356       48.682       52.376       63.108       38.517       41.753     3982.580     1483.574     1743.354        0.775        0.360       74.471       26.689        0.128      344.433       21.248      862.730
05/24/2014  10:32:00      185.342      117.060       26.029       61.615       58.459       60.906     3796.387     3417.512     3709.602        2.983        0.546      219.214       26.102        0.014      343.848       20.245      862.740
05/24/2014  10:33:00      197.473      121.061       23.070       96.634       86.080       64.680     9338.171     7409.797     4183.563        3.755        1.047      231.628       37.105        0.026      344.080       20.642      862.728
05/24/2014  10:34:00      264.222      168.407       40.765      114.824       84.649       76.210    13184.657     7165.405     5808.010        6.299        1.308      313.328       52.671        0.028      343.938       20.399      862.711
05/24/2014  10:35:00      217.186      143.182        8.847      120.510       71.719       55.010    14522.686     5143.628     3026.045        4.522        1.135      260.136       33.359        0.016      344.074       20.633      862.708
05/24/2014  10:36:00       56.073      223.863      -15.742       87.222      108.946       77.286     7607.604    11869.133     5973.062        3.947        1.272      230.779       71.708        0.097      344.093       20.664      862.721
05/24/2014  10:37:00       42.111      192.580       -7.958       66.286      107.037       62.655     4393.853    11456.936     3925.606        2.935        0.989      197.131       68.166        0.120      343.923       20.374      862.724
05/24/2014  10:38:00      -76.142      160.827      -22.139       50.455      108.619       35.040     2545.699    11798.020     1227.822        2.386        0.779      177.941       35.218        0.039      343.816       20.193      862.686
05/24/2014  10:39:00       64.435      133.914        7.333      110.882      102.093       77.705    12294.902    10423.068     6037.993        2.544        1.438      148.609       67.010        0.203      344.200       20.849      862.657
05/24/2014  10:40:00      230.256      147.613       15.145      110.997       74.562       68.462    12320.380     5559.515     4687.027        4.880        1.128      273.509       46.418        0.029      343.955       20.428      862.648
05/24/2014  10:41:00      120.737      146.627      -11.518       94.559       77.564       55.650     8941.439     6016.203     3096.941        2.713        0.903      189.940       45.922        0.058      344.074       20.633      862.626
05/24/2014  10:42:00      114.720      135.341       14.453      121.421       84.545       63.386    14743.178     7147.851     4017.723        2.879        1.295      177.420       43.606        0.060      344.330       21.070      862.630
05/24/2014  10:43:00       90.008       94.932       19.403       61.355       42.510       48.361     3764.412     1807.125     2338.826        1.270        0.396      130.819       29.516        0.051      344.295       21.013      862.650
05/24/2014  10:44:00       62.841      126.374       -2.150       68.150       75.769       53.085     4644.364     5741.014     2817.969        1.656        0.660      141.136       50.964        0.130      344.476       21.321      862.670
05/24/2014  10:45:00       31.043      187.241       -9.009       84.686      108.505       66.210     7171.714    11773.305     4383.713        2.971        1.166      189.796       65.394        0.119      344.151       20.765      862.707
05/24/2014  10:46:00      -62.180      217.713      -15.065       51.920       91.175       39.963     2695.643     8312.801     1597.017        3.205        0.630      226.419       33.192        0.021      344.121       20.713      862.737
05/24/2014  10:47:00      -55.785      199.352       -6.403       62.736       61.580       45.854     3935.827     3792.144     2102.607        2.636        0.492      207.010       42.229        0.042      344.324       21.059      862.767
05/24/2014  10:48:00      -26.279      119.768        4.474       53.725       79.737       45.323     2886.356     6357.974     2054.173        1.317        0.565      122.617       53.053        0.187      344.573       21.487      862.778
05/24/2014  10:49:00      -63.631      209.391      -21.250       60.204      106.645       43.687     3624.528    11373.102     1908.582        3.262        0.845      218.846       46.982        0.046      343.953       20.425      862.788
05/24/2014  10:50:00       -6.873       23.271       31.657       70.795       48.843       55.753     5011.963     2385.616     3108.413        0.605        0.525       24.265       57.426        5.601      344.361       21.126      862.787
05/24/2014  10:51:00       73.124       56.091       27.495       39.745       44.258       34.450     1579.635     1958.744     1186.834        0.699        0.236       92.159       19.303        0.044      344.293       21.009      862.800
05/24/2014  10:52:00       62.289       73.483       84.700       93.233       69.980       49.909     8692.426     4897.223     2490.911        1.626        0.804       96.331       29.137        0.091      345.021       22.255      862.793
05/24/2014  10:53:00      201.131      168.162      116.845       96.535       96.816       90.651     9318.975     9373.400     8217.535        5.464        1.345      262.169       75.837        0.084      344.333       21.074      862.779
05/24/2014  10:54:00      146.912      105.521       18.861       64.999       49.674       57.606     4224.831     2467.520     3318.465        2.154        0.501      180.880       46.012        0.065      343.879       20.299      862.806
05/24/2014  10:55:00       25.850       31.056       71.885       49.953       63.798       49.594     2495.305     4070.210     2459.524        0.791        0.451       40.407       46.905        1.347      344.626       21.579      862.801
05/24/2014  10:56:00       77.839       91.642       36.476       57.475       48.657       33.449     3303.387     2367.496     1118.851        1.129        0.339      120.238       16.942        0.020      344.331       21.074      862.779
05/24/2014  10:57:00       -8.038       30.408       42.233       34.951       55.811       45.355     1221.562     3114.849     2057.075        0.458        0.320       31.453       24.430        0.603      344.880       22.013      862.763
05/24/2014  10:58:00      112.585       90.517       30.812       68.821       52.237       46.797     4736.379     2728.733     2189.942        1.573        0.483      144.460       42.376        0.086      344.513       21.384      862.768
05/24/2014  10:59:00      158.552      130.610       18.532       66.564       35.696       56.691     4430.747     1274.217     3213.879        2.573        0.446      205.421       46.972        0.052      343.866       20.278      862.770
05/24/2014  11:00:00       94.831       85.558       58.177       87.851       40.535       41.103     7717.753     1643.079     1689.491        1.537        0.553      127.722       31.339        0.060      344.175       20.807      862.755
05/24/2014  11:01:00       16.488       46.738       61.677       41.186       52.309       34.094     1696.265     2736.269     1162.407        0.593        0.280       49.561       30.754        0.385      344.816       21.903      862.761
05/24/2014  11:02:00      114.729       90.731       10.469       67.958       42.150       39.644     4618.306     1776.660     1571.637        1.473        0.398      146.269       22.155        0.023      344.464       21.302      862.756
05/24/2014  11:03:00      -26.822       58.064      -22.252       30.136       33.959       18.897      908.193     1153.200      357.099        0.350        0.121       63.960        7.625        0.014      344.412       21.212      862.756
05/24/2014  11:04:00      -70.639      193.971       -7.173       47.702       74.837       42.850     2275.528     5600.534     1836.121        2.619        0.486      206.433       38.972        0.036      344.480       21.328      862.762
05/24/2014  11:05:00      -59.960       81.855        0.071       54.763       74.972       38.368     2999.011     5620.733     1472.087        1.019        0.505      101.466       36.813        0.132      344.926       22.093      862.762
05/24/2014  11:06:00     -130.250      -72.271       -5.139      103.841       65.627       46.367    10783.035     4306.965     2149.888        1.972        0.862      148.957       24.217        0.026      344.552       21.449      862.740
05/24/2014  11:07:00     -147.667      -97.140      -14.996      120.976       60.693       50.226    14635.186     3683.587     2522.618        2.615        1.042      176.754       48.376        0.075      344.292       21.005      862.712
05/24/2014  11:08:00      -91.080      -44.118        9.822      103.155       48.133       42.567    10640.970     2316.774     1811.908        1.255        0.738      101.202       56.356        0.310      344.665       21.646      862.688
05/24/2014  11:09:00     -132.932       -8.801      -11.237       41.958       46.289       26.463     1760.488     2142.695      700.268        1.124        0.230      133.223       23.843        0.032      344.013       20.532      862.669
05/24/2014  11:10:00      -36.379      -62.743        4.498       41.537       23.566       17.858     1725.338      555.334      318.902        0.394        0.130       72.527       18.584        0.066      343.968       20.454      862.631
05/24/2014  11:11:00      -39.943     -146.377       -0.794       46.904       80.099       32.111     2200.031     6415.925     1031.133        1.633        0.482      151.729       38.987        0.066      344.025       20.550      862.601
05/24/2014  11:12:00     -135.077      -79.152      -14.720       49.590       36.331       31.130     2459.174     1319.928      969.050        1.474        0.237      156.559       29.700        0.036      344.089       20.660      862.586
05/24/2014  11:13:00     -134.862      -99.717        3.605       72.334       67.554       39.487     5232.223     4563.545     1559.204        1.975        0.568      167.724       30.347        0.033      344.373       21.144      862.537
05/24/2014  11:14:00      -80.638     -109.425       15.114       86.133       65.516       43.102     7418.943     4292.337     1857.758        1.613        0.678      135.928       40.512        0.089      344.424       21.233      862.503
05/24/2014  11:15:00      -64.562     -117.487      -13.501       53.554       57.617       37.121     2868.043     3319.723     1377.954        1.286        0.378      134.058       16.469        0.015      344.138       20.745      862.474
05/24/2014  11:16:00        3.048       44.294       19.050       51.600       31.462       31.545     2662.596      989.854      995.091        0.349        0.232       44.399       18.548        0.175      344.810       21.892      862.455
05/24/2014  11:17:00        9.852      144.901        0.508      110.084       92.402       74.367    12118.416     8538.116     5530.441        2.364        1.309      145.236       46.864        0.104      344.584       21.505      862.468
05/24/2014  11:18:00       62.165      133.485      -23.709       62.463       64.322       44.518     3901.669     4137.374     1981.874        1.613        0.501      147.250       35.567        0.058      344.630       21.584      862.478
05/24/2014  11:19:00      -58.102      130.871       -3.709      108.148       63.119       50.921    11696.012     3984.026     2592.988        1.939        0.914      143.189       60.039        0.176      344.661       21.637      862.477
05/24/2014  11:20:00      -58.441      166.920       -4.963       56.916      105.537       41.231     3239.442    11138.093     1699.970        2.369        0.804      176.855       52.772        0.089      344.721       21.740      862.493
05/24/2014  11:21:00      -34.308      127.703        6.437       48.398       77.513       43.418     2342.389     6008.311     1885.110        1.388        0.512      132.231       41.712        0.100      345.233       22.615      862.498
05/24/2014  11:22:00      -47.518       90.924       11.503       54.666       49.981       44.604     2988.353     2498.124     1989.530        0.907        0.374      102.592       33.651        0.108      345.246       22.640      862.509
05/24/2014  11:23:00      -66.759      145.441       -3.744       66.258       71.692       49.919     4390.179     5139.740     2491.870        1.882        0.601      160.031       47.973        0.090      345.005       22.226      862.525
05/24/2014  11:24:00      -30.708      216.615      -14.645       77.911       93.317       47.667     6070.148     8708.081     2272.102        3.256        0.853      218.781       48.429        0.049      344.544       21.435      862.539
05/24/2014  11:25:00      -74.969      163.899       -3.519       61.473       90.136       48.462     3778.878     8124.532     2348.583        2.337        0.713      180.231       50.066        0.077      344.922       22.084      862.545
05/24/2014  11:26:00       40.045      328.146      -33.416       86.449      134.470       69.509     7473.467    18082.175     4831.518        7.039        1.519      330.580       75.713        0.052      344.617       21.561      862.569
05/24/2014  11:27:00       26.681      242.669       -1.605       81.586      129.108       56.335     6656.293    16668.885     3173.626        4.305        1.325      244.131       66.186        0.074      344.493       21.347      862.568
05/24/2014  11:28:00       33.255      277.014      -37.991       55.005      103.131       45.953     3025.582    10635.991     2111.681        4.753        0.789      279.003       44.561        0.026      344.407       21.200      862.583
05/24/2014  11:29:00       53.286      201.891       -3.183       79.602      114.051       62.752     6336.435    13007.587     3937.787        3.344        1.164      208.804       63.502        0.092      344.917       22.075      862.564
05/24/2014  11:30:00      156.206      142.118       12.018       94.846       78.343       73.031     8995.850     6137.699     5333.547        3.260        1.023      211.182       55.861        0.070      344.640       21.599      862.566
05/24/2014  11:31:00      105.640      150.763       13.946      102.215       86.245       83.366    10448.008     7438.249     6949.920        2.946        1.242      184.091       55.781        0.092      344.827       21.920      862.557
05/24/2014  11:32:00      -37.399      296.064      -30.805       75.424      106.858       53.864     5688.850    11418.578     2901.335        5.500        1.000      298.416       65.268        0.048      344.423       21.228      862.591
05/24/2014  11:33:00      -33.303      109.367        0.385       62.179       81.091       40.925     3866.263     6575.750     1674.818        1.259        0.606      114.325       41.911        0.134      345.297       22.728      862.601
05/24/2014  11:34:00      -81.442      266.674      -18.899       46.642       60.358       37.335     2175.468     3643.042     1393.880        4.266        0.361      278.833       32.649        0.014      344.384       21.161      862.587
05/24/2014  11:35:00      -46.618      176.988       -9.818       43.073       69.221       35.980     1855.287     4791.525     1294.548        2.077        0.397      183.024       35.544        0.038      344.676       21.662      862.576
05/24/2014  11:36:00      -10.695      142.102       -2.183       35.101       77.304       38.468     1232.084     5975.929     1479.825        1.450        0.434      142.504       39.660        0.077      344.915       22.073      862.561
05/24/2014  11:37:00     -122.792        7.852      -12.684       87.766      127.580       39.213     7702.820    16276.670     1537.688        2.040        1.276      123.043       36.763        0.089      344.927       22.092      862.544
05/24/2014  11:38:00     -111.226       84.723      -25.892       57.087       83.841       33.570     3258.908     7029.251     1126.939        1.582        0.571      139.818       31.164        0.050      344.324       21.062      862.548
05/24/2014  11:39:00      -74.866      -82.391      -20.047       37.999       49.217       35.590     1443.916     2422.321     1266.641        0.896        0.257      111.325       28.349        0.065      344.194       20.839      862.519
05/24/2014  11:40:00      -80.337      -20.987       -4.992       54.413       24.773       24.972     2960.733      613.700      623.580        0.556        0.210       83.033       26.566        0.102      344.534       21.420      862.490
05/24/2014  11:41:00       -1.385      136.175       -8.933       54.831       98.610       42.390     3006.401     9723.903     1796.940        1.657        0.726      136.182       49.310        0.131      344.940       22.114      862.486
05/24/2014  11:42:00       24.310      157.669       -6.688       53.256      105.275       43.904     2836.187    11082.807     1927.581        2.067        0.792      159.533       51.986        0.106      344.758       21.801      862.468
05/24/2014  11:43:00       93.457       98.879        9.622      101.157       85.514       48.790    10232.711     7312.701     2380.509        1.926        0.996      136.056       34.989        0.066      345.596       23.238      862.453
05/24/2014  11:44:00      151.953      122.699        0.949      102.529       76.144       60.843    10512.219     5797.924     3701.829        2.907        1.001      195.307       34.822        0.032      344.967       22.161      862.432
05/24/2014  11:45:00      138.302      113.729       16.253      102.503       65.931       53.432    10506.962     4346.834     2855.008        2.501        0.885      179.058       53.419        0.089      344.905       22.054      862.393
05/24/2014  11:46:00       27.382      104.529        7.536       42.021       56.063       35.472     1765.796     3143.072     1258.246        0.895        0.308      108.056       28.072        0.067      345.180       22.528      862.370
05/24/2014  11:47:00       80.515       49.154       -0.787       63.394       58.304       38.218     4018.850     3399.300     1460.606        0.889        0.444       94.334       26.315        0.078      345.269       22.678      862.338
05/24/2014  11:48:00       95.789       96.636       82.417       85.530       74.153       83.438     7315.426     5498.707     6961.852        2.254        0.989      136.066       75.971        0.312      345.148       22.471      862.311
05/24/2014  11:49:00       38.005       -4.244       53.553       51.609       65.007       41.956     2663.532     4225.887     1760.314        0.649        0.432       38.241       39.992        1.094      345.385       22.878      862.305
05/24/2014  11:50:00       94.479      -50.965       30.699       68.863      101.510       61.368     4742.116    10304.187     3766.052        1.564        0.941      107.348       73.058        0.463      345.127       22.435      862.276
05/24/2014  11:51:00       84.380      -97.613      -11.509       67.225       65.840       62.350     4519.222     4334.900     3887.567        1.476        0.637      129.028       46.282        0.129      344.944       22.122      862.238
05/24/2014  11:52:00       64.703      -37.815       26.049       74.429       80.622       44.789     5539.711     6499.935     2006.060        1.017        0.702       74.942       42.801        0.326      345.240       22.630      862.233
05/24/2014  11:53:00       87.222       55.880        2.040       29.137       36.527       33.714      848.959     1334.199     1136.666        0.703        0.166      103.587       28.115        0.074      344.679       21.669      862.233
05/24/2014  11:54:00       53.788       33.567       12.425       33.132       38.958       31.283     1097.759     1517.699      978.597        0.388        0.180       63.403       25.150        0.157      344.984       22.192      862.229
05/24/2014  11:55:00       76.587       64.242       -5.244       45.700       40.859       31.381     2088.530     1669.436      984.763        0.738        0.237       99.963       18.171        0.033      344.983       22.189      862.240
05/24/2014  11:56:00       28.730       51.681       15.912       49.125       43.852       32.159     2413.294     1923.015     1034.215        0.456        0.269       59.130       23.402        0.157      345.279       22.697      862.251
05/24/2014  11:57:00       62.912       77.977        0.127       50.498       61.557       44.656     2550.039     3789.305     1994.182        0.918        0.417      100.191       39.212        0.153      345.145       22.467      862.249
05/24/2014  11:58:00       55.661       36.304       28.014       60.600       25.455       32.569     3672.398      647.980     1060.751        0.529        0.269       66.454       22.959        0.119      345.513       23.097      862.268
05/24/2014  11:59:00       36.197       49.441       12.029       39.971       34.277       39.953     1597.712     1174.911     1596.219        0.413        0.218       61.275       29.092        0.225      345.762       23.524      862.269
05/24/2014  12:00:00       27.341       75.171       22.998       74.221       88.120       49.638     5508.723     7765.218     2463.954        1.133        0.787       79.988       46.106        0.332      345.441       22.975      862.284
05/24/2014  12:01:00       -0.267      129.614      -22.762       37.449       78.595       33.859     1402.434     6177.235     1146.461        1.302        0.436      129.614       23.461        0.033      344.770       21.825      862.298
05/24/2014  12:02:00      -39.204      113.444       -5.291       67.995       61.402       40.751     4623.336     3770.234     1660.650        1.224        0.503      120.027       40.457        0.114      344.849       21.959      862.285
05/24/2014  12:03:00     -144.218       90.990      -24.394       44.510       63.950       32.909     1981.133     4089.611     1082.998        1.841        0.358      170.523       30.773        0.033      344.517       21.392      862.278
05/24/2014  12:04:00     -176.687      -32.866      -14.106       65.060       47.076       44.776     4232.754     2216.103     2004.865        2.047        0.423      179.718       41.712        0.054      344.568       21.477      862.278
05/24/2014  12:05:00        7.215      -54.665       49.873       84.034       47.455       41.991     7061.755     2251.937     1763.267        0.830        0.554       55.139       44.401        0.648      345.254       22.655      862.264
05/24/2014  12:06:00      -49.454      -52.824       12.833       68.284       49.774       30.295     4662.758     2477.409      917.761        0.673        0.403       72.361       25.320        0.122      345.244       22.638      862.270
05/24/2014  12:07:00      -61.242      -25.618       14.238       45.123       53.381       29.592     2036.087     2849.561      875.661        0.518        0.288       66.384       23.847        0.129      345.483       23.047      862.269
05/24/2014  12:08:00      -80.305      -22.714       14.293       74.604       66.057       47.070     5565.702     4363.542     2215.562        0.965        0.607       83.456       43.354        0.270      345.701       23.421      862.242
05/24/2014  12:09:00     -111.608      -68.986       10.386       73.498       58.454       41.208     5401.894     3416.877     1698.083        1.392        0.526      131.207       35.106        0.072      344.799       21.876      862.235
05/24/2014  12:10:00     -258.838      -75.257      -15.091       61.080       48.086       32.129     3730.713     2312.217     1032.263        3.998        0.354      269.557       29.710        0.012      344.558       21.458      862.213
05/24/2014  12:11:00     -308.325     -101.991       -5.958       67.368       54.107       37.816     4538.409     2927.550     1430.060        5.720        0.445      324.757       34.156        0.011      344.622       21.567      862.185
05/24/2014  12:12:00     -240.192      -51.291       -9.129       87.346       80.212       44.478     7629.346     6434.038     1978.259        3.822        0.802      245.608       44.968        0.034      344.874       22.000      862.175
05/24/2014  12:13:00     -217.269      -73.742       -9.990       93.394       46.450       36.230     8722.498     2157.630     1312.637        3.247        0.610      229.443       46.436        0.041      344.799       21.870      862.170
05/24/2014  12:14:00     -113.690      -20.778      -13.293       79.381       51.734       32.508     6301.268     2676.439     1056.754        1.178        0.502      115.573       12.000        0.011      345.071       22.341      862.166
05/24/2014  12:15:00       15.320       31.133        6.477       58.893       51.809       37.501     3468.380     2684.217     1406.289        0.440        0.378       34.698       24.735        0.508      345.760       23.522      862.164
05/24/2014  12:16:00       -0.742      124.088      -25.396       48.491       65.273       35.030     2351.336     4260.620     1227.075        1.194        0.392      124.091       20.206        0.027      345.423       22.942      862.145
05/24/2014  12:17:00      -21.569       79.824        4.465       53.756       61.424       37.923     2889.744     3772.878     1438.149        0.748        0.405       82.687       33.886        0.168      345.882       23.731      862.146
05/24/2014  12:18:00     -112.338      181.046      -20.772       64.474       82.568       56.014     4156.922     6817.542     3137.591        2.997        0.706      213.066       46.221        0.047      345.157       22.484      862.154
05/24/2014  12:19:00       -5.622      188.245       -3.678       63.739      117.439       55.884     4062.605    13791.822     3123.023        2.823        1.049      188.329       65.345        0.120      345.248       22.640      862.153
05/24/2014  12:20:00     -109.495      150.198       -8.685       64.228       67.512       44.202     4125.253     4557.886     1953.783        2.263        0.532      185.873       34.816        0.035      345.547       23.155      862.181
05/24/2014  12:21:00     -252.598       19.659      -20.829      100.758       72.920       38.724    10152.126     5317.376     1499.515        4.079        0.848      253.362       36.090        0.020      344.990       22.197      862.182
05/24/2014  12:22:00     -213.711      -51.573      -25.773       81.793       67.603       38.139     6690.174     4570.164     1454.599        3.085        0.636      219.846       30.051        0.019      344.767       21.815      862.167
05/24/2014  12:23:00        0.248       27.931       26.609       30.396       37.569       31.405      923.936     1411.451      986.303        0.240        0.166       27.932       20.315        0.529      345.994       23.924      862.178
05/24/2014  12:24:00       82.794       63.126       -2.043       47.090       37.819       38.163     2217.495     1430.312     1456.448        0.797        0.255      104.114       25.283        0.059      345.106       22.401      862.168
05/24/2014  12:25:00      194.563      101.317       16.292       77.683       78.055       61.373     6034.609     6092.535     3766.661        3.214        0.795      219.362       40.123        0.033      345.095       22.376      862.158
05/24/2014  12:26:00      109.750       28.740       15.993       81.764       88.444       58.808     6685.276     7822.275     3458.338        1.554        0.898      113.451       42.951        0.143      345.212       22.582      862.142
05/24/2014  12:27:00       81.280       43.700       28.059       71.819       90.066       49.476     5157.979     8111.872     2447.893        1.251        0.786       92.283       35.944        0.152      345.685       23.391      862.099
05/24/2014  12:28:00      129.196      101.788       16.024      100.478       72.160       61.675    10095.824     5207.001     3803.753        2.320        0.955      164.476       43.694        0.071      345.703       23.422      862.098
05/24/2014  12:29:00       -5.381      206.105      -16.223       61.987       84.127       46.739     3842.367     7077.340     2184.572        2.794        0.655      206.175       44.456        0.046      345.335       22.790      862.096
05/24/2014  12:30:00       49.375      131.546       -5.382       76.698       88.509       45.874     5882.597     7833.802     2104.380        1.779        0.791      140.507       46.114        0.108      345.456       22.998      862.065
05/24/2014  12:31:00       38.746      109.936        2.760       61.700       64.692       42.808     3806.862     4185.021     1832.541        1.171        0.491      116.564       30.806        0.070      345.769       23.537      862.046
05/24/2014  12:32:00       33.218       73.740       26.448       78.749       64.224       46.270     6201.346     4124.669     2140.927        0.985        0.623       80.877       45.696        0.319      346.195       24.269      862.010
05/24/2014  12:33:00      144.975       91.811       47.452      119.508       98.909       72.629    14282.085     9782.975     5274.980        3.051        1.467      171.602       58.737        0.117      345.769       23.535      861.985
05/24/2014  12:34:00       92.661      134.466      124.645      107.533       58.254       68.038    11563.267     3393.542     4629.192        3.089        0.979      163.301       71.258        0.190      345.404       22.907      861.977
05/24/2014  12:35:00       49.298       88.014       86.720      101.073       79.766       70.306    10215.764     6362.689     4942.972        1.960        1.076      100.880       60.498        0.360      345.489       23.055      861.956
05/24/2014  12:36:00      127.674       74.327       35.398      108.669       79.851       88.654    11809.036     6376.202     7859.575        2.456        1.302      147.733       54.786        0.138      345.191       22.545      861.949
05/24/2014  12:37:00       89.482       68.320        9.521       55.422       56.595       45.136     3071.623     3203.043     2037.252        1.054        0.416      112.581       26.630        0.056      345.583       23.217      861.942
05/24/2014  12:38:00      167.896      135.626       38.830      105.804       59.139       58.146    11194.409     3497.431     3380.905        3.308        0.904      215.832       65.141        0.091      345.094       22.377      861.931
05/24/2014  12:39:00      222.177       98.603       10.427      101.346       85.131       61.232    10270.960     7247.228     3749.320        4.023        1.063      243.074       40.328        0.028      345.449       22.984      861.880
05/24/2014  12:40:00       65.873       91.556       36.852       86.420       67.011       53.399     7468.397     4490.435     2851.504        1.444        0.741      112.790       39.961        0.126      346.267       24.392      861.878
05/24/2014  12:41:00       73.422      142.548       12.523       84.784      111.121       55.389     7188.370    12347.893     3067.930        2.423        1.130      160.345       59.573        0.138      345.519       23.104      861.873
05/24/2014  12:42:00      189.962      122.432       20.684       83.759       60.059       45.806     7015.589     3607.089     2098.218        3.211        0.636      225.998       22.553        0.010      345.286       22.705      861.857
05/24/2014  12:43:00      127.189      197.064       -2.413       83.900      107.570       59.592     7039.188    11571.233     3551.254        3.858        1.108      234.544       54.170        0.053      345.315       22.754      861.878
05/24/2014  12:44:00       39.171      108.539       -2.173       54.319       94.977       50.854     2950.539     9020.574     2586.177        1.394        0.728      115.391       57.263        0.246      345.653       23.336      861.873
05/24/2014  12:45:00       69.110      133.248        6.460       84.997       97.240       64.361     7224.482     9455.685     4142.331        2.169        1.041      150.104       61.906        0.170      345.871       23.710      861.881
05/24/2014  12:46:00      137.657      207.039       21.089      121.635      154.252       88.803    14795.027    23793.534     7885.996        5.436        2.324      248.626       89.163        0.129      345.672       23.367      861.839
05/24/2014  12:47:00      270.718      155.219       19.040       92.602       75.126       67.683     8575.210     5643.906     4581.026        5.827        0.940      312.059       50.379        0.026      345.413       22.920      861.837
05/24/2014  12:48:00      139.758      156.484        9.480      113.193       99.567       68.013    12812.573     9913.613     4625.708        3.573        1.368      209.809       61.402        0.086      345.863       23.694      861.828
05/24/2014  12:49:00      249.918      186.968       10.568      110.304       84.580       63.413    12166.975     7153.804     4021.208        6.043        1.167      312.115       37.271        0.014      345.527       23.118      861.796
05/24/2014  12:50:00      255.923      172.265       16.935      132.458       87.180       70.027    17545.153     7600.313     4903.767        6.275        1.502      308.499       38.791        0.016      345.450       22.987      861.751
05/24/2014  12:51:00       44.776       77.099       55.515       91.819       81.602       68.789     8430.766     6658.956     4731.868        1.542        0.991       89.158       38.982        0.191      346.076       24.060      861.739
05/24/2014  12:52:00        0.775      188.046      -26.774       57.693       92.954       39.819     3328.465     8640.453     1585.565        2.481        0.678      188.048       35.127        0.035      345.614       23.269      861.772
05/24/2014  12:53:00      -74.457       68.893      -14.732       61.566       57.438       33.177     3790.383     3299.125     1100.697        0.935        0.410      101.440       27.934        0.076      345.960       23.864      861.735
05/24/2014  12:54:00      -72.789       71.770       -9.701       68.402       85.631       44.940     4678.832     7332.638     2019.578        1.228        0.702      102.221       48.964        0.229      345.586       23.223      861.704
05/24/2014  12:55:00        6.516       97.898      -13.275       72.327       68.813       39.829     5231.230     4735.258     1586.386        1.068        0.578       98.115       36.522        0.139      346.044       24.007      861.717
05/24/2014  12:56:00      -95.733      113.389       10.213       84.912      133.384       52.971     7210.074    17791.160     2805.933        2.496        1.390      148.398       51.740        0.122      345.962       23.866      861.708
05/24/2014  12:57:00      -10.344       72.160        7.477       64.939       73.496       40.450     4217.110     5401.634     1636.164        0.831        0.563       72.898       31.876        0.191      346.202       24.279      861.694
05/24/2014  12:58:00       31.667       94.457       17.753       83.689       76.553       52.641     7003.877     5860.337     2771.047        1.293        0.782       99.624       49.762        0.249      346.145       24.181      861.696
05/24/2014  12:59:00      -66.366      208.506       -9.157       63.943      160.474       51.259     4088.664    25752.031     2627.490        4.021        1.623      218.813       74.831        0.117      345.758       23.515      861.697
05/24/2014  13:00:00      -55.752       91.961       -3.418       48.524       71.706       42.164     2354.590     5141.798     1777.834        1.042        0.464      107.541       44.807        0.174      345.914       23.786      861.702
05/24/2014  13:01:00     -142.781       60.553      -18.313       32.035       39.332       29.792     1026.210     1547.005      887.578        1.392        0.173      155.090       20.069        0.017      345.288       22.713      861.685
05/24/2014  13:02:00     -135.359       40.859      -26.720       87.068       64.697       33.898     7580.806     4185.709     1149.079        1.681        0.646      141.391       36.444        0.066      345.248       22.642      861.666
05/24/2014  13:03:00       95.556       80.611       10.184       64.837       64.036       55.756     4203.795     4100.587     3108.729        1.357        0.571      125.016       41.008        0.108      345.905       23.770      861.651
05/24/2014  13:04:00       90.120      135.312      -10.357       66.583       72.537       52.282     4433.349     5261.676     2733.451        1.948        0.621      162.576       41.149        0.064      345.438       22.966      861.643
05/24/2014  13:05:00       54.467       19.772        6.687       57.546       52.829       34.791     3311.542     2790.912     1210.405        0.536        0.366       57.945       27.087        0.219      345.655       23.340      861.615
05/24/2014  13:06:00       -5.422     -176.547       -1.499       33.526       59.245       28.002     1123.989     3510.021      784.135        1.831        0.271      176.630       20.513        0.013      345.487       23.053      861.556
05/24/2014  13:07:00        0.821      -77.510        0.053       25.211       71.985       40.833      635.615     5181.901     1667.320        0.675        0.374       77.514       45.591        0.346      345.798       23.587      861.513
05/24/2014  13:08:00      111.776       69.348       82.881       92.999      133.225       80.599     8648.730    17749.014     6496.233        2.853        1.645      131.541       58.640        0.199      346.099       24.099      861.474
05/24/2014  13:09:00       87.655      150.524       -6.934       89.765       82.178       61.514     8057.786     6753.240     3783.982        2.449        0.930      174.187       50.030        0.082      345.805       23.595      861.464
05/24/2014  13:10:00       71.539      172.338       -6.796       82.290       86.284       56.432     6771.640     7444.964     3184.582        2.613        0.870      186.596       50.235        0.072      345.849       23.672      861.427
05/24/2014  13:11:00      115.813      243.687      -12.746      102.094      212.817       91.299    10423.152    45290.899     8335.419        6.849        3.202      269.808      110.845        0.169      346.074       24.058      861.451
05/24/2014  13:12:00      -23.060      499.162      -57.550       85.341      111.174       60.314     7283.126    12359.564     3637.828       13.814        1.164      499.694       51.878        0.011      345.458       22.999      861.470
05/24/2014  13:13:00      -89.182      284.443      -30.521       83.176      101.204       46.435     6918.299    10242.302     2156.205        5.455        0.966      298.096       48.461        0.026      345.739       23.482      861.479
05/24/2014  13:14:00      -52.128      185.389       -0.417       59.306       81.305       50.521     3517.246     6610.477     2552.381        2.488        0.634      192.578       48.938        0.065      346.161       24.208      861.478
05/24/2014  13:15:00      -96.600      213.557      -33.787       77.018      137.234       52.192     5931.811    18833.236     2724.006        4.178        1.374      234.389       23.987        0.010      345.843       23.661      861.495
05/24/2014  13:16:00      -88.038      213.341      -16.353      105.983      114.905       58.443    11232.463    13203.235     3415.546        4.069        1.393      230.792       70.378        0.093      345.793       23.576      861.538
05/24/2014  13:17:00       44.581      113.604        7.966       67.168       77.913       48.643     4511.517     6070.466     2366.157        1.395        0.647      122.038       51.584        0.179      345.794       23.580      861.495
05/24/2014  13:18:00      -33.102       52.347        0.626      140.716       44.842       39.776    19800.870     2010.849     1582.155        1.361        1.170       61.935       55.135        0.792      345.840       23.658      861.482
05/24/2014  13:19:00      -79.424      250.766      -32.753       58.899      149.999       53.181     3469.046    22499.567     2828.176        4.952        1.440      263.043       70.979        0.073      345.905       23.770      861.468
05/24/2014  13:20:00      -19.035      144.814       -3.515       47.620       47.576       35.465     2267.678     2263.450     1257.735        1.357        0.289      146.060       25.262        0.030      346.024       23.975      861.441
05/24/2014  13:21:00       42.734       77.410      -13.904       62.835       70.899       45.632     3948.259     5026.687     2082.321        0.953        0.553       88.423       44.023        0.248      346.203       24.283      861.410
05/24/2014  13:22:00      114.441      117.880        7.268       94.117       65.729       48.345     8857.931     4320.244     2337.258        2.128        0.776      164.293       46.617        0.081      346.095       24.095      861.367
05/24/2014  13:23:00       91.440      216.480        9.388      109.835      126.074       82.596    12063.707    15894.742     6822.164        4.504        1.739      235.000       75.383        0.103      346.130       24.154      861.346
05/24/2014  13:24:00       49.753      196.149      -15.985       83.141       90.690       60.302     6912.494     8224.663     3636.338        2.999        0.939      202.360       57.220        0.080      346.173       24.229      861.347
05/24/2014  13:25:00       31.918      186.065       12.936       86.340      124.813       61.176     7454.666    15578.294     3742.548        3.129        1.339      188.782       56.608        0.090      346.099       24.101      861.323
05/24/2014  13:26:00      140.204       97.437       -6.144       64.842       64.442       43.034     4204.462     4152.752     1851.945        1.970        0.510      170.737       33.225        0.038      345.788       23.568      861.271
05/24/2014  13:27:00       16.585      222.212       -2.445       78.528      150.075       78.826     6166.717    22522.471     6213.590        4.227        1.745      222.830       85.725        0.148      346.296       24.439      861.262
05/24/2014  13:28:00      -15.147      410.853      -48.431       75.541      121.235       54.126     5706.421    14697.927     2929.574        9.735        1.167      411.132       62.223        0.023      345.832       23.641      861.310
05/24/2014  13:29:00      -85.783      266.664      -25.312       81.523      148.031       65.389     6645.978    21913.083     4275.672        5.597        1.642      280.122       62.800        0.050      346.226       24.319      861.326
05/24/2014  13:30:00      -64.807      316.329      -22.879       79.762      136.125       60.335     6362.038    18529.999     3640.336        6.665        1.427      322.899       72.340        0.050      346.086       24.078      861.350
05/24/2014  13:31:00       15.699      255.455      -28.458       70.560      154.585       70.109     4978.726    23896.447     4915.228        5.005        1.690      255.937       78.035        0.093      346.097       24.097      861.341
05/24/2014  13:32:00      -33.810      267.424      -21.852       56.683       96.038       48.354     3213.002     9223.349     2338.110        4.395        0.739      269.553       54.417        0.041      345.919       23.791      861.336
05/24/2014  13:33:00      -86.864      191.872      -13.764       71.623       89.669       46.232     5129.798     8040.617     2137.403        2.993        0.765      210.619       52.032        0.061      346.183       24.245      861.329
05/24/2014  13:34:00      -38.532      260.523      -10.219       53.108       90.583       49.672     2820.454     8205.274     2467.317        4.147        0.675      263.357       46.706        0.031      346.060       24.033      861.313
05/24/2014  13:35:00     -200.446      305.416      -50.066      109.116      153.780       62.411    11906.343    23648.239     3895.128        8.770        1.972      365.318       60.566        0.027      346.263       24.381      861.343
05/24/2014  13:36:00      -70.163       35.177        4.190       92.235       57.806       42.164     8507.373     3341.519     1777.818        0.990        0.681       78.487       43.953        0.314      346.651       25.054      861.343
05/24/2014  13:37:00      -46.957      129.616       10.135       72.713       87.416       54.272     5287.199     7641.527     2945.485        1.749        0.794      137.860       48.170        0.122      346.577       24.925      861.346
05/24/2014  13:38:00       18.675       85.222       19.843       38.599       74.043       43.360     1489.880     5482.420     1880.128        0.843        0.443       87.245       48.007        0.303      346.744       25.213      861.322
05/24/2014  13:39:00       32.270      164.778       -5.658       71.720      120.645       73.725     5143.718    14555.268     5435.387        2.667        1.257      167.908       73.280        0.190      346.495       24.782      861.328
05/24/2014  13:40:00       97.002      173.384       11.417      143.227      122.863       67.473    20513.940    15095.275     4552.565        3.987        2.008      198.674       61.457        0.096      346.401       24.620      861.295
05/24/2014  13:41:00      -59.084      276.478      -18.248       98.154      192.287       57.148     9634.196    36974.135     3265.904        6.506        2.494      282.721       88.622        0.098      346.355       24.541      861.298
05/24/2014  13:42:00       19.823      127.225       10.573       92.997      109.351       64.336     8648.371    11957.670     4139.128        2.071        1.237      128.760       59.530        0.214      346.564       24.901      861.293
05/24/2014  13:43:00       15.131      121.139      -17.224       78.030       90.958       45.522     6088.691     8273.374     2072.279        1.581        0.822      122.081       49.237        0.163      346.230       24.327      861.262
05/24/2014  13:44:00      -13.894      284.651      -21.265       95.950      111.299       64.204     9206.446    12387.493     4122.124        5.369        1.286      284.990       63.853        0.050      346.178       24.236      861.280
05/24/2014  13:45:00      -65.242      373.593      -48.347      101.560      158.441       60.060    10314.501    25103.526     3607.193        9.259        1.951      379.247       72.090        0.036      346.035       23.991      861.277
05/24/2014  13:46:00        0.854      364.562      -31.604      149.268      162.788       87.428    22280.962    26499.937     7643.585        9.515        2.821      364.563       81.386        0.050      346.108       24.117      861.265
05/24/2014  13:47:00       35.490      174.751       -7.938      116.035      118.367       69.738    13464.236    14010.821     4863.424        3.209        1.617      178.318       75.164        0.178      346.498       24.786      861.220
05/24/2014  13:48:00        7.393      326.810      -34.542      102.142      148.659       77.581    10433.056    22099.571     6018.878        7.329        1.928      326.894       85.614        0.069      346.106       24.111      861.231
05/24/2014  13:49:00       96.019      197.820       -7.650      111.046      132.304       82.094    12331.152    17504.451     6739.444        4.249        1.829      219.892       79.376        0.130      346.078       24.065      861.188
05/24/2014  13:50:00      136.600      119.941       36.896      121.019       96.007       85.517    14645.546     9217.393     7313.099        3.279        1.559      181.784       63.693        0.123      346.427       24.664      861.159
05/24/2014  13:51:00      184.754      158.153       24.412      111.867       72.345       72.110    12514.326     5233.749     5199.844        4.134        1.147      243.201       33.296        0.019      346.124       24.145      861.116
05/24/2014  13:52:00        3.323      261.009      -38.926       58.925      104.087       43.242     3472.190    10834.145     1869.866        4.291        0.809      261.030       46.698        0.032      346.132       24.156      861.096
05/24/2014  13:53:00      103.986      145.886       13.834      151.794      113.221       62.139    23041.536    12818.920     3861.295        3.600        1.986      179.153       55.221        0.095      346.416       24.647      861.090
05/24/2014  13:54:00        0.037      304.845      -24.597       78.494      167.535       72.031     6161.230    28068.035     5188.501        6.647        1.971      304.845       85.645        0.079      346.261       24.379      861.109
05/24/2014  13:55:00      297.793      217.058       32.898      136.663      123.444       91.856    18676.855    15238.466     8437.577        8.961        2.118      368.503       59.802        0.026      346.189       24.255      861.062
05/24/2014  13:56:00      237.130      171.243       17.615      121.592       79.940       70.012    14784.565     6390.396     4901.693        5.597        1.304      292.497       20.562        0.005      346.208       24.288      861.050
05/24/2014  13:57:00      294.459      201.795       42.002      112.095       74.003       65.935    12565.343     5476.424     4347.469        7.579        1.119      356.970       42.811        0.014      346.126       24.145      861.009
05/24/2014  13:58:00       66.245      145.973        0.603      120.961       80.925       62.710    14631.605     6548.796     3932.598        2.540        1.256      160.301       40.495        0.064      346.458       24.718      861.049
05/24/2014  13:59:00       24.687      140.182       14.951      109.681      118.098       67.198    12029.832    13947.107     4515.566        2.548        1.525      142.339       69.746        0.240      346.604       24.969      861.048
05/24/2014  14:00:00       53.050      131.842      -22.571       86.515       91.199       47.590     7484.836     8317.259     2264.785        1.938        0.903      142.114       48.435        0.116      346.590       24.944      861.029
05/24/2014  14:01:00      -16.711      203.565       -7.331       87.495      125.258       65.969     7655.303    15689.632     4351.852        3.473        1.385      204.250       56.785        0.077      346.484       24.762      860.993
05/24/2014  14:02:00       74.928      162.041        6.402      106.091      131.657       90.269    11255.387    17333.687     8148.447        3.432        1.837      178.526       83.380        0.218      346.685       25.107      860.997
05/24/2014  14:03:00        5.962      251.146      -26.484       69.403      126.285       70.343     4816.740    15947.928     4948.144        4.476        1.286      251.216       71.789        0.082      346.529       24.840      861.008
05/24/2014  14:04:00       78.624      115.576        4.296      125.310       91.033       59.511    15702.555     8287.047     3541.562        2.354        1.377      139.784       54.795        0.154      346.786       25.281      861.015
05/24/2014  14:05:00       90.574      189.470        9.353      166.384      114.145       84.569    27683.765    13029.106     7151.839        4.602        2.393      210.006       79.738        0.144      346.588       24.940      861.045
05/24/2014  14:06:00      181.232      193.038       14.562      150.326      111.344       77.152    22598.038    12397.473     5952.463        5.563        2.047      264.781       64.858        0.060      346.237       24.338      861.025
05/24/2014  14:07:00      265.353      143.786       32.826       98.474       84.164       65.715     9697.100     7083.603     4318.432        5.663        1.055      301.806       46.336        0.024      346.254       24.365      860.985
05/24/2014  14:08:00      162.850      172.356        7.573      113.094      101.894       90.776    12790.181    10382.404     8240.256        4.384        1.571      237.122       70.095        0.087      346.308       24.458      861.002
05/24/2014  14:09:00       34.325      121.995        1.179       77.228       85.490       55.550     5964.231     7308.468     3085.849        1.621        0.818      126.732       57.198        0.204      346.514       24.815      860.996
05/24/2014  14:10:00      -22.737       88.895        9.466       59.875       81.640       48.014     3585.031     6665.161     2305.373        1.053        0.628       91.757       42.532        0.215      346.644       25.039      860.960
05/24/2014  14:11:00     -104.389      166.264      -34.673       74.976       88.492       44.848     5621.434     7830.912     2011.327        2.760        0.773      196.318       45.877        0.055      346.597       24.957      860.936
05/24/2014  14:12:00       70.063      177.281       -3.791      114.455      114.742       66.046    13099.872    13165.794     4362.057        3.348        1.531      190.623       66.628        0.122      346.914       25.501      860.924
05/24/2014  14:13:00       31.996      231.735        4.951      105.976      177.482       80.581    11230.868    31499.752     6493.348        5.198        2.461      233.934       83.680        0.128      346.690       25.118      860.953
05/24/2014  14:14:00       10.900      183.123        3.002      108.099      123.300       69.697    11685.419    15202.830     4857.729        3.270        1.587      183.447       72.820        0.158      346.408       24.631      860.957
05/24/2014  14:15:00       43.073      132.603       -0.102       73.555       96.811       57.583     5410.294     9372.348     3315.783        1.877        0.905      139.423       58.637        0.177      346.250       24.360      860.954
05/24/2014  14:16:00      145.598      108.962       12.914      105.515       88.169       55.833    11133.407     7773.745     3117.307        2.763        1.101      181.855       40.257        0.049      346.495       24.780      860.934
05/24/2014  14:17:00      -24.499      196.155      -11.922       82.991       91.982       52.330     6887.517     8460.654     2738.455        2.865        0.904      197.679       54.444        0.076      346.372       24.570      860.931
05/24/2014  14:18:00      297.689      141.662       33.273      134.236      111.476       70.452    18019.387    12426.900     4963.538        7.259        1.770      329.677       59.717        0.033      346.532       24.844      860.903
05/24/2014  14:19:00      234.972      127.914       29.400      136.828       87.992       69.247    18721.905     7742.547     4795.165        5.184        1.563      267.533       50.863        0.036      346.322       24.484      860.890
05/24/2014  14:20:00       72.691       42.048       35.110      100.852       73.379       49.719    10171.200     5384.469     2471.998        1.315        0.901       83.976       25.647        0.093      346.718       25.167      860.884
05/24/2014  14:21:00      126.732      120.928       -1.039       60.736       68.057       45.614     3688.916     4631.699     2080.667        2.054        0.520      175.170       37.631        0.046      346.773       25.259      860.875
05/24/2014  14:22:00      123.966      204.478       -4.233      110.424      129.659       80.688    12193.530    16811.575     6510.591        4.635        1.776      239.121       79.431        0.110      346.433       24.673      860.882
05/24/2014  14:23:00      288.890      186.427       54.521      162.523      121.900       88.518    26413.657    14859.514     7835.495        8.514        2.455      343.820       63.698        0.034      346.458       24.716      860.838
05/24/2014  14:24:00      340.775      255.931       35.786      158.962      122.157      105.593    25268.792    14922.388    11149.900       11.711        2.567      426.179       76.068        0.032      346.337       24.509      860.820
05/24/2014  14:25:00       84.525      274.588      -23.104      101.433      144.537       74.065    10288.650    20891.027     5485.690        5.986        1.833      287.303       83.699        0.085      346.301       24.447      860.860
05/24/2014  14:26:00      167.422      102.349       11.119       96.400       61.584       53.827     9292.971     3792.589     2897.329        2.730        0.799      196.228       29.014        0.022      346.224       24.316      860.841
05/24/2014  14:27:00      107.594      102.842        2.463      101.469       54.219       45.853    10296.027     2939.717     2102.521        1.875        0.767      148.838       44.161        0.088      346.289       24.429      860.857
05/24/2014  14:28:00       94.511       74.819       14.651      115.387       62.094       44.439    13314.136     3855.704     1974.792        1.694        0.957      120.541       15.544        0.017      346.564       24.902      860.863
05/24/2014  14:29:00       44.688       52.899       26.034      144.356       84.417       50.363    20838.526     7126.188     2536.419        1.798        1.525       69.248       45.553        0.433      347.055       25.746      860.852
05/24/2014  14:30:00     -100.079      185.669      -13.033       67.191       98.519       52.133     4514.565     9705.913     2717.897        3.079        0.847      210.923       50.917        0.058      346.657       25.060      860.891
05/24/2014  14:31:00      -50.651      119.477        3.314       44.848       91.995       38.971     2011.329     8463.011     1518.730        1.442        0.600      129.770       43.110        0.110      346.653       25.054      860.859
05/24/2014  14:32:00       15.666      220.162      -10.066      101.310      126.875       61.318    10263.727    16097.173     3759.841        3.946        1.506      220.719       58.460        0.070      346.890       25.460      860.868
05/24/2014  14:33:00      179.009      238.031      -12.162      133.022       99.182       65.865    17694.737     9837.073     4338.235        6.035        1.594      297.830       54.052        0.033      346.397       24.612      860.862
05/24/2014  14:34:00       97.561      122.777        4.546      162.106      133.879       68.095    26278.388    17923.615     4636.940        3.672        2.442      156.819       51.881        0.109      346.656       25.058      860.823
05/24/2014  14:35:00      -17.895      329.121      -50.411       67.916      136.996       39.000     4612.565    18767.841     1520.962        6.804        1.245      329.607       55.168        0.028      346.144       24.178      860.844
05/24/2014  14:36:00      127.111      231.830       -4.715      134.433      141.154       75.406    18072.199    19924.462     5686.066        5.679        2.184      264.391       70.658        0.071      346.524       24.831      860.821
05/24/2014  14:37:00      152.036      159.675       -7.077       68.712      108.237       62.843     4721.384    11715.269     3949.180        3.452        1.019      220.479       64.422        0.085      346.293       24.433      860.804
05/24/2014  14:38:00       43.827      178.955       -5.651       58.524      111.766       69.316     3425.035    12491.721     4804.681        2.735        1.036      184.244       68.648        0.139      346.507       24.802      860.750
05/24/2014  14:39:00       84.014      206.934        1.800      130.098      107.586       80.666    16925.371    11574.689     6506.966        4.244        1.750      223.339       65.496        0.086      346.537       24.855      860.740
05/24/2014  14:40:00       31.639      287.212      -39.966       74.202      131.798       60.630     5506.000    17370.679     3675.988        5.582        1.328      288.949       65.509        0.051      346.848       25.389      860.735
05/24/2014  14:41:00      -20.900      246.224      -12.042       97.211      163.572       69.031     9450.057    26755.678     4765.266        5.108        2.049      247.109       78.314        0.100      347.060       25.753      860.735
05/24/2014  14:42:00       -1.386      404.432      -44.547       88.179      109.059       59.930     7775.576    11893.867     3591.596        9.440        1.163      404.434       57.085        0.020      346.466       24.732      860.752
05/24/2014  14:43:00      -20.288      386.599      -37.345       98.097      115.201       54.566     9623.026    13271.268     2977.468        8.856        1.294      387.131       54.249        0.020      346.721       25.169      860.716
05/24/2014  14:44:00      -77.548      446.613      -62.242       92.635      138.905       60.856     8581.204    19294.577     3703.507       12.046        1.579      453.296       65.349        0.021      346.600       24.961      860.756
05/24/2014  14:45:00       23.361      450.539      -51.390       68.291      118.534       53.303     4663.716    14050.410     2841.203       11.386        1.078      451.144       58.818        0.017      346.367       24.560      860.724
05/24/2014  14:46:00      111.762      159.302      -16.171      106.348      106.963       72.246    11309.849    11441.133     5219.458        3.304        1.399      194.597       54.075        0.077      346.941       25.547      860.660
05/24/2014  14:47:00       71.288      271.277       -4.644      117.822      234.738       89.667    13881.982    55101.701     8040.135        7.784        3.851      280.488      116.515        0.173      346.650       25.048      860.678
05/24/2014  14:48:00       20.482      427.421      -42.049       93.414      182.478       78.784     8726.159    33298.365     6206.841       11.654        2.412      427.911       96.341        0.051      346.451       24.705      860.698
05/24/2014  14:49:00       19.518      403.538      -46.817       73.206      130.361       61.430     5359.187    16994.119     3773.629        9.577        1.306      404.010       70.718        0.031      346.341       24.515      860.693
05/24/2014  14:50:00       97.842      142.865       16.542       95.270      100.654       65.901     9076.421    10131.264     4342.943        2.690        1.178      173.157       60.512        0.122      346.758       25.234      860.652
05/24/2014  14:51:00      113.686      163.434       15.060       99.993      104.435       89.282     9998.536    10906.626     7971.333        3.436        1.444      199.086       69.048        0.120      346.649       25.047      860.636
05/24/2014  14:52:00       72.092      138.465        4.069       76.836      103.081       69.846     5903.718    10625.787     4878.431        2.289        1.070      156.108       67.058        0.185      346.561       24.896      860.642
05/24/2014  14:53:00      -56.253      262.908      -34.978       65.495      131.923       49.197     4289.630    17403.774     2420.298        4.881        1.206      268.859       56.032        0.043      346.684       25.106      860.648
05/24/2014  14:54:00      -49.362      183.127       -0.027       84.733      132.745       59.798     7179.654    17621.172     3575.761        3.217        1.419      189.663       68.101        0.129      346.886       25.455      860.634
05/24/2014  14:55:00       22.896       72.366       20.991       75.271       80.647       50.553     5665.776     6504.017     2555.645        1.046        0.736       75.901       38.240        0.254      346.824       25.349      860.589
05/24/2014  14:56:00       82.735      148.445       -2.098      102.115      110.925       78.680    10427.431    12304.253     6190.480        2.890        1.446      169.944       74.450        0.192      346.968       25.596      860.575
05/24/2014  14:57:00      -20.303      290.867      -38.062       58.785       77.360       32.663     3455.697     5984.630     1066.842        4.848        0.525      291.574       28.335        0.009      346.463       24.724      860.598
05/24/2014  14:58:00       10.706      213.074      -26.973       70.451       91.228       43.623     4963.370     8322.623     1902.937        3.071        0.759      213.343       42.642        0.040      346.608       24.977      860.568
05/24/2014  14:59:00      -45.741      132.195       -8.472       27.108       58.050       31.034      734.868     3369.843      963.124        1.235        0.253      139.885       32.036        0.052      346.596       24.957      860.543
05/24/2014  15:00:00     -113.568      153.298      -38.960       66.700       45.202       31.193     4448.834     2043.225      973.011        2.269        0.373      190.783       33.715        0.031      346.629       25.011      860.528
05/24/2014  15:01:00     -126.642      191.907      -15.671       83.776       88.848       49.214     7018.395     7893.953     2421.973        3.522        0.867      229.927       51.587        0.050      347.029       25.699      860.558
05/24/2014  15:02:00      -38.958      342.866      -42.363      102.289      160.807       64.296    10463.092    25858.988     4133.952        8.065        2.023      345.072       72.270        0.044      346.746       25.212      860.573
05/24/2014  15:03:00     -113.948      153.019      -31.148      111.674      121.337       46.517    12471.066    14722.683     2163.865        3.336        1.468      190.786       73.404        0.148      346.517       24.820      860.604
05/24/2014  15:04:00        9.554       36.706      -26.881       45.938       35.181       28.206     2110.313     1237.701      795.577        0.315        0.207       37.929       15.273        0.162      346.471       24.743      860.556
05/24/2014  15:05:00       65.724      -90.893       18.828       90.799      192.038       67.063     8244.381    36878.775     4497.426        3.127        2.481      112.166       41.757        0.139      346.570       24.913      860.467
05/24/2014  15:06:00      114.727      173.794      -20.175      103.962      107.542       58.194    10808.167    11565.192     3386.509        3.476        1.288      208.246       57.262        0.076      346.759       25.235      860.462
05/24/2014  15:07:00      102.298      104.828        6.219       57.238       64.328       51.097     3276.195     4138.124     2610.941        1.576        0.501      146.471       31.383        0.046      346.709       25.151      860.464
05/24/2014  15:08:00      103.720      106.449       13.357       82.295       94.138       71.132     6772.527     8861.977     5059.824        2.148        1.035      148.624       59.687        0.161      346.955       25.572      860.431
05/24/2014  15:09:00       75.060      144.551        5.962       87.793       91.967       54.931     7707.635     8457.873     3017.379        2.287        0.959      162.878       50.564        0.096      347.072       25.775      860.411
05/24/2014  15:10:00      120.772      136.461      -21.898      104.868       76.830       46.093    10997.269     5902.881     2124.588        2.635        0.951      182.229       19.999        0.012      346.930       25.529      860.403
05/24/2014  15:11:00       55.746       77.654       27.515       53.910       46.070       41.986     2906.333     2122.486     1762.801        0.834        0.340       95.591       13.931        0.021      347.151       25.913      860.367
05/24/2014  15:12:00        2.664      113.957      -15.898       36.774       81.576       33.309     1352.322     6654.622     1109.496        1.118        0.456      113.988       44.192        0.150      347.130       25.875      860.377
05/24/2014  15:13:00      -71.614      248.954      -40.193      112.597       95.342       40.292    12678.068     9090.156     1623.448        4.605        1.170      259.049       47.749        0.034      347.106       25.832      860.411
05/24/2014  15:14:00     -134.696      366.226      -39.601      103.513      133.777       63.902    10714.925    17896.189     4083.431        9.326        1.635      390.211       59.660        0.023      346.806       25.314      860.419
05/24/2014  15:15:00       -9.472      289.660      -25.009       95.931      129.930       66.193     9202.848    16881.909     4381.459        5.754        1.523      289.815       76.501        0.070      346.757       25.231      860.430
05/24/2014  15:16:00      178.350      152.481        3.459      115.869      109.374       62.054    13425.587    11962.727     3850.733        4.215        1.462      234.647       59.323        0.064      346.752       25.222      860.383
05/24/2014  15:17:00      129.249      208.097      -21.827      107.878      115.099       75.814    11637.652    13247.721     5747.782        4.555        1.532      244.969       60.769        0.062      346.758       25.231      860.352
05/24/2014  15:18:00      175.400      158.142       -0.229      109.986       98.268       64.259    12096.813     9656.512     4129.178        4.082        1.294      236.165       55.404        0.055      346.769       25.252      860.359
05/24/2014  15:19:00       83.797       79.272       44.840      131.708       92.710       72.384    17346.888     8595.091     5239.425        2.324        1.559      115.351       29.054        0.063      347.200       25.995      860.360
05/24/2014  15:20:00      124.780      284.504      -29.148      147.988      161.866      118.070    21900.509    26200.645    13940.498        7.969        3.102      310.665      105.783        0.116      346.976       25.608      860.388
05/24/2014  15:21:00       43.322      179.563      -13.282       84.868      109.235       65.909     7202.595    11932.347     4343.946        2.888        1.174      184.715       65.160        0.124      347.137       25.886      860.428
05/24/2014  15:22:00       11.907      155.560      -23.437       37.416       73.591       32.009     1399.958     5415.697     1024.582        1.636        0.392      156.015       36.531        0.055      346.503       24.797      860.383
05/24/2014  15:23:00       10.019       80.044       -2.196       28.712       39.093       28.681      824.369     1528.278      822.610        0.484        0.159       80.669       29.416        0.133      346.711       25.155      860.328
05/24/2014  15:24:00       49.405      173.510      -19.222       44.767       88.165       43.052     2004.099     7773.075     1853.468        2.227        0.582      180.407       51.904        0.083      346.596       24.955      860.349
05/24/2014  15:25:00      164.627      143.163       13.751      100.980       69.155       59.808    10196.937     4782.445     3576.955        3.317        0.928      218.170       34.453        0.025      346.549       24.873      860.344
05/24/2014  15:26:00      230.629      143.962       29.386      119.288       77.518       60.966    14229.628     6009.077     3716.849        4.936        1.198      271.872       17.297        0.004      346.665       25.072      860.279
05/24/2014  15:27:00      151.478      122.322       18.759      146.386       96.551       84.021    21428.775     9322.091     7059.577        3.803        1.891      194.700       39.612        0.041      346.977       25.611      860.261
05/24/2014  15:28:00      143.841       96.557       17.718      134.136       84.523       64.579    17992.388     7144.111     4170.452        2.981        1.465      173.244       38.734        0.050      347.233       26.052      860.262
05/24/2014  15:29:00      167.625      159.114       -3.363      105.010       83.276       75.135    11027.178     6934.930     5645.225        3.851        1.180      231.118       57.061        0.061      346.794       25.295      860.274
05/24/2014  15:30:00       76.887      168.238        2.076       85.024       79.318       58.109     7229.023     6291.283     3376.654        2.556        0.845      184.975       57.393        0.096      346.644       25.038      860.254
05/24/2014  15:31:00       67.279       94.639       60.493      100.913       80.451       77.456    10183.339     6472.284     5999.356        1.989        1.133      116.117       69.950        0.363      347.209       26.011      860.218
05/24/2014  15:32:00       99.924      115.753        0.787       73.470       69.769       58.242     5397.879     4867.706     3392.123        1.852        0.683      152.917       46.262        0.092      347.019       25.684      860.227
05/24/2014  15:33:00       89.796      149.435       -3.375       74.561       98.505       53.600     5559.339     9703.302     2873.013        2.427        0.907      174.339       45.893        0.069      346.737       25.197      860.236
05/24/2014  15:34:00      107.138       61.456       22.641       57.480       75.972       52.447     3303.950     5771.755     2750.640        1.379        0.591      123.513       25.402        0.042      346.555       24.885      860.215
05/24/2014  15:35:00       16.505       26.481        7.243       61.721       44.117       27.337     3809.531     1946.320      747.294        0.376        0.325       31.204       24.224        0.603      346.924       25.521      860.197
05/24/2014  15:36:00     -120.672       88.550      -12.651       76.812       66.551       47.445     5900.138     4429.078     2251.067        1.757        0.629      149.676       51.472        0.118      347.049       25.735      860.190
05/24/2014  15:37:00      -20.136      128.180      -14.023       64.109       66.454       38.293     4110.026     4416.108     1466.336        1.351        0.500      129.752       40.750        0.099      346.904       25.487      860.192
05/24/2014  15:38:00       37.514      108.684       -6.405       53.488       96.374       42.176     2861.005     9287.976     1778.792        1.359        0.696      114.976       50.437        0.192      346.982       25.620      860.197
05/24/2014  15:39:00       44.415      212.977      -24.711       86.084      133.127       50.943     7410.403    17722.696     2595.209        3.783        1.386      217.559       68.788        0.100      346.903       25.484      860.236
05/24/2014  15:40:00      -12.826      223.607      -43.290      103.413       82.764       48.893    10694.219     6849.866     2390.547        3.598        0.997      223.974       50.506        0.051      346.815       25.330      860.213
05/24/2014  15:41:00      102.955       59.140       20.213       89.994       44.068       44.163     8098.964     1941.966     1950.385        1.325        0.600      118.731       23.938        0.041      347.123       25.864      860.180
05/24/2014  15:42:00      120.478       77.691        8.237       81.782       57.742       44.153     6688.273     3334.140     1949.454        1.629        0.599      143.355       24.903        0.030      347.143       25.898      860.164
05/24/2014  15:43:00      119.881      104.140        7.824       95.326       81.853       78.514     9087.111     6699.930     6164.443        2.361        1.098      158.797       51.682        0.106      347.119       25.856      860.159
05/24/2014  15:44:00      138.435      166.713       15.492      107.039       98.542       82.571    11457.327     9710.588     6817.978        3.759        1.399      216.697       65.843        0.092      346.922       25.515      860.139
05/24/2014  15:45:00      238.532      207.453       26.711      153.443       95.205       85.561    23544.860     9064.068     7320.623        7.028        1.996      316.124       48.989        0.024      347.103       25.826      860.110
05/24/2014  15:46:00       83.227      360.663      -10.746      156.676      174.488      110.500    24547.384    30446.210    12210.293       10.215        3.360      370.142      115.408        0.097      346.881       25.444      860.168
05/24/2014  15:47:00       21.194      260.138      -15.037      143.524      136.610       70.600    20599.072    18662.350     4984.338        5.629        2.212      261.000       67.538        0.067      347.041       25.719      860.143
05/24/2014  15:48:00      -23.242      381.692      -28.624      161.533      179.496       88.598    26092.803    32218.795     7849.673       10.659        3.308      382.399       97.543        0.065      347.120       25.855      860.153
05/24/2014  15:49:00     -129.160      303.097      -43.363       91.115      121.350       62.425     8301.910    14725.740     3896.901        6.867        1.346      329.469       58.421        0.031      346.978       25.611      860.207
05/24/2014  15:50:00      -72.174      384.951      -48.579       95.785      148.494       60.607     9174.849    22050.321     3673.209        9.532        1.745      391.659       71.003        0.033      347.098       25.817      860.211
05/24/2014  15:51:00     -112.209      308.182      -35.632      106.592      119.116       70.243    11361.844    14188.612     4934.119        6.965        1.524      327.974       64.132        0.038      347.077       25.782      860.213
05/24/2014  15:52:00       37.100      228.944       -5.348      113.928      158.255       84.600    12979.691    25044.716     7157.229        4.949        2.259      231.931       89.689        0.150      347.275       26.124      860.186
05/24/2014  15:53:00     -150.256      324.434      -35.791      122.067      134.659       88.296    14900.335    18133.086     7796.130        8.496        2.041      357.539       82.827        0.054      347.056       25.745      860.192
05/24/2014  15:54:00     -176.817      267.350      -30.498      124.695      124.809       68.676    15548.838    15577.168     4716.339        6.975        1.792      320.531       69.318        0.047      346.985       25.623      860.170
05/24/2014  15:55:00      -37.942      190.171       -3.223       54.038       77.548       48.829     2920.097     6013.711     2384.277        2.446        0.566      193.919       42.979        0.049      347.185       25.969      860.126
05/24/2014  15:56:00      -55.825      102.132       20.149       71.990       72.451       59.436     5182.624     5249.164     3532.666        1.396        0.698      116.393       54.365        0.218      347.415       26.367      860.093
05/24/2014  15:57:00       -4.959       83.202       -8.507       47.328       94.838       50.540     2239.965     8994.340     2554.261        1.040        0.689       83.350       52.749        0.401      347.303       26.173      860.101
05/24/2014  15:58:00      -96.417      167.323       -8.385       69.706      113.365       57.498     4858.857    12851.682     3306.033        2.919        1.051      193.115       58.506        0.092      347.430       26.392      860.093
05/24/2014  15:59:00       87.121      129.848        9.036       86.945       95.484       56.696     7559.515     9117.181     3214.447        2.221        0.995      156.367       39.639        0.064      347.361       26.272      860.069
05/24/2014  16:00:00       45.694      136.862       -3.407       69.310       82.125       50.983     4803.914     6744.513     2599.220        1.749        0.707      144.288       43.123        0.089      347.045       25.728      860.061
05/24/2014  16:01:00       95.556       99.696       -8.551       78.309       84.322       53.491     6132.280     7110.203     2861.260        1.762        0.805      138.095       45.926        0.111      347.069       25.769      860.080
05/24/2014  16:02:00       54.825      200.261       -9.242      105.163      135.378       82.969    11059.251    18327.325     6883.930        3.973        1.814      207.630       88.816        0.183      347.148       25.905      860.062
05/24/2014  16:03:00       41.213      169.242      -19.875       60.278       89.695       47.754     3633.451     8045.255     2280.405        2.234        0.698      174.188       48.049        0.076      347.100       25.823      860.041
05/24/2014  16:04:00      -26.933      288.047      -19.947      100.641      202.321       65.269    10128.569    40933.700     4260.027        6.970        2.766      289.304       87.594        0.092      347.020       25.685      860.023
05/24/2014  16:05:00      -46.586      366.538      -44.965       78.544      121.189       45.396     6169.220    14686.668     2060.767        8.072        1.146      369.486       52.345        0.020      346.818       25.336      860.053
05/24/2014  16:06:00      -43.188      166.250      -21.162       56.020       86.896       44.858     3138.212     7550.852     2012.230        2.132        0.635      171.768       41.667        0.059      346.744       25.210      860.029
05/24/2014  16:07:00      -33.600      160.278      -14.652       54.134       55.283       35.548     2930.541     3056.228     1263.653        1.714        0.363      163.762       30.150        0.034      346.980       25.618      860.007
05/24/2014  16:08:00     -114.029      161.130      -35.157      146.454      116.371       50.633    21448.655    13542.219     2563.716        3.887        1.878      197.397       51.752        0.069      346.968       25.594      860.000
05/24/2014  16:09:00      -21.600      163.226      -29.266       58.171      108.028       31.791     3383.811    11670.124     1010.636        2.201        0.803      164.649       41.069        0.062      347.247       26.076      859.981
05/24/2014  16:10:00       -9.702      126.767        6.924       47.205       69.327       44.931     2228.277     4806.268     2018.783        1.263        0.453      127.137       41.137        0.105      347.540       26.582      859.994
05/24/2014  16:11:00       90.652      170.051       -1.388      102.786       96.266       58.963    10565.044     9267.066     3476.600        3.022        1.165      192.705       47.988        0.062      347.033       25.705      860.005
05/24/2014  16:12:00      207.330      141.343       15.097      131.280       86.420       70.603    17234.452     7468.332     4984.759        4.643        1.484      250.925       45.005        0.032      346.903       25.483      859.963
05/24/2014  16:13:00      207.164      186.213       22.213      164.122      108.677       75.207    26936.008    11810.651     5656.077        6.124        2.220      278.554       52.838        0.036      347.071       25.773      859.904
05/24/2014  16:14:00      184.443      184.050      -25.640      103.602      134.847       82.628    10733.381    18183.804     6827.360        5.214        1.787      260.564       78.497        0.091      347.170       25.943      859.912
05/24/2014  16:15:00      135.788      232.198      -34.167      127.470      147.039       94.017    16248.715    21620.596     8839.280        6.011        2.335      268.988       94.963        0.125      347.155       25.915      859.919
05/24/2014  16:16:00      141.543      228.611       11.887      143.953      162.029      111.831    20722.606    26253.260    12506.063        6.595        2.974      268.881      105.778        0.155      346.885       25.453      859.939
05/24/2014  16:17:00      199.093      251.629       -2.379      148.959      140.659      111.646    22188.920    19785.015    12464.924        7.869        2.722      320.866       89.639        0.078      346.786       25.280      859.952
05/24/2014  16:18:00      193.201      122.972       25.229      101.316       71.092       60.247    10264.994     5054.132     3629.653        3.601        0.947      229.017       46.020        0.040      346.846       25.386      859.960
05/24/2014  16:19:00      124.794       75.718        6.707       70.327       61.448       39.762     4945.933     3775.871     1581.018        1.583        0.515      145.968       28.648        0.039      346.876       25.439      859.916
05/24/2014  16:20:00       97.563       75.011       20.109       90.881       59.168       32.486     8259.286     3500.831     1055.348        1.418        0.641      123.066       25.284        0.042      347.026       25.697      859.907
05/24/2014  16:21:00       32.858      166.948      -12.032       39.372      152.584       47.568     1550.144    23281.883     2262.711        2.809        1.355      170.151       69.735        0.168      347.180       25.960      859.914
05/24/2014  16:22:00      133.845      171.619        6.929      121.162      132.541       72.303    14680.117    17567.165     5227.652        4.244        1.874      217.641       72.846        0.112      347.087       25.800      859.872
05/24/2014  16:23:00      152.669      111.256       47.934      101.844       79.923       76.038    10372.220     6387.751     5781.827        3.026        1.127      188.906       28.758        0.023      347.269       26.114      859.849
05/24/2014  16:24:00       52.522      141.578      -14.058       63.697       90.751       46.012     4057.263     8235.712     2117.107        1.870        0.721      151.006       47.189        0.098      347.024       25.691      859.873
05/24/2014  16:25:00      155.264      109.389       20.969      108.536       76.716       50.032    11780.073     5885.355     2503.245        2.834        1.008      189.928       35.566        0.035      347.113       25.845      859.885
05/24/2014  16:26:00      235.035      159.353       10.745       92.599       75.536       53.862     8574.658     5705.631     2901.131        4.896        0.859      283.963       28.220        0.010      346.988       25.628      859.890
05/24/2014  16:27:00      228.809      126.625       26.131      107.394      104.292       66.366    11533.558    10876.884     4404.462        4.794        1.341      261.510       33.940        0.017      347.206       26.005      859.883
05/24/2014  16:28:00      191.859      124.512       19.999      144.267       93.073       79.008    20812.914     8662.621     6242.274        4.421        1.786      228.721       51.015        0.050      346.921       25.515      859.855
05/24/2014  16:29:00       66.783       93.217       -1.573      145.686      102.939       76.247    21224.467    10596.489     5813.562        2.539        1.882      114.671       54.686        0.227      347.217       26.024      859.843
05/24/2014  16:30:00      -30.300      182.141      -21.327       95.139      109.802       58.843     9051.510    12056.574     3462.517        2.955        1.229      184.644       46.319        0.063      347.464       26.451      859.864
05/24/2014  16:31:00        7.825      194.292       -1.969       84.445      160.521       55.760     7131.010    25767.039     3109.132        3.690        1.800      194.449       72.797        0.140      347.521       26.548      859.836
05/24/2014  16:32:00      -36.642      448.277      -63.003      131.496      153.674       70.117    17291.255    23615.613     4916.437       12.603        2.291      449.772       71.623        0.025      347.064       25.759      859.829
05/24/2014  16:33:00      -94.760      394.258      -44.949      102.509      116.557       64.721    10508.178    13585.581     4188.793        9.736        1.414      405.486       60.907        0.023      347.170       25.943      859.866
05/24/2014  16:34:00     -198.230      367.597      -60.441      127.189      133.660       72.876    16177.115    17864.892     5310.936       10.871        1.968      417.639       71.619        0.029      346.885       25.450      859.903
05/24/2014  16:35:00      -77.651      418.556      -50.749      121.045      175.124       73.201    14651.875    30668.574     5358.436       11.723        2.534      425.698       72.581        0.029      346.958       25.577      859.885
05/24/2014  16:36:00      -26.756      387.203      -49.101       81.553       82.925       46.371     6650.893     6876.596     2150.293        8.436        0.784      388.126       41.798        0.012      346.974       25.604      859.869
05/24/2014  16:37:00       25.206      340.195      -42.502      135.942      171.565       85.200    18480.192    29434.626     7258.970        8.666        2.759      341.127       87.708        0.066      347.169       25.942      859.887
05/24/2014  16:38:00       30.909      364.690      -36.563      111.903      167.474       77.746    12522.227    28047.503     6044.381        9.094        2.331      365.998       86.686        0.056      346.891       25.461      859.916
05/24/2014  16:39:00     -111.045      242.761      -38.625      123.293      142.522       73.414    15201.215    20312.432     5389.602        5.682        2.045      266.953       75.442        0.080      347.144       25.897      859.921
05/24/2014  16:40:00      -79.702      250.243      -20.148      107.858      198.452       62.320    11633.368    39383.028     3883.808        6.213        2.745      262.629       82.288        0.098      347.080       25.789      859.929
05/24/2014  16:41:00        0.092      124.766       -7.892       64.335      111.106       46.586     4138.937    12344.487     2170.285        1.714        0.933      124.766       52.430        0.177      347.328       26.217      859.930
05/24/2014  16:42:00       96.864      105.543        9.335       67.195       85.373       57.668     4515.181     7288.562     3325.617        1.787        0.756      143.255       49.536        0.120      347.233       26.053      859.923
05/24/2014  16:43:00      271.771      182.679       20.043      150.279       89.890       82.901    22583.794     8080.263     6872.658        7.258        1.877      327.461       18.156        0.003      347.082       25.789      859.903
05/24/2014  16:44:00      128.898      169.269       -1.997      129.117      111.752       76.101    16671.242    12488.528     5791.295        4.010        1.748      212.760       67.731        0.101      346.836       25.369      859.922
05/24/2014  16:45:00       54.431      341.461      -18.584      127.060      175.072      106.887    16144.258    30650.283    11424.862        8.905        2.911      345.772      101.541        0.086      346.818       25.336      859.912
05/24/2014  16:46:00      200.358      238.904        0.304      198.750      120.686       82.439    39501.491    14565.052     6796.228        7.903        3.043      311.799       70.177        0.051      346.708       25.147      859.931
05/24/2014  16:47:00      107.698      335.929      -20.836      130.333      223.963      104.579    16986.611    50159.271    10936.749       10.147        3.904      352.771      115.999        0.108      346.818       25.336      859.940
05/24/2014  16:48:00       11.906      363.367      -45.096      128.087      141.062       82.782    16406.329    19898.488     6852.933        8.868        2.158      363.562       73.823        0.041      346.947       25.558      859.974
05/24/2014  16:49:00       68.838      289.329       -3.581      142.172      149.012       99.248    20212.808    22204.644     9850.091        7.035        2.613      297.405       96.059        0.104      346.941       25.546      859.987
05/24/2014  16:50:00       57.803      319.340      -28.327       93.851      163.580       85.859     8808.035    26758.542     7371.720        7.452        2.147      324.529       84.230        0.067      346.754       25.224      860.008
05/24/2014  16:51:00       22.163      204.338       -1.275       63.783      113.693       72.385     4068.309    12926.188     5239.593        3.224        1.112      205.536       67.905        0.109      346.781       25.273      860.003
05/24/2014  16:52:00      -16.367      303.848      -41.329       64.329       69.044       37.528     4138.199     4767.109     1408.380        5.230        0.516      304.288       35.918        0.014      346.690       25.115      859.975
05/24/2014  16:53:00       -1.492      355.786      -44.198      109.439      126.781       64.342    11976.994    16073.468     4139.860        8.036        1.610      355.789       68.406        0.037      346.891       25.460      859.966
05/24/2014  16:54:00       96.377      300.634      -10.446       98.229      165.684      116.820     9648.906    27451.034    13646.990        7.525        2.537      315.704      110.051        0.122      346.748       25.213      860.000
05/24/2014  16:55:00       39.862      114.783       -1.329       55.954      112.954       54.403     3130.868    12758.712     2959.658        1.680        0.942      121.507       64.551        0.282      346.858       25.407      860.006
05/24/2014  16:56:00       -5.481       41.307        0.780       51.752       39.338       26.378     2678.259     1547.446      695.776        0.333        0.246       41.669       12.983        0.097      347.189       25.978      859.973
05/24/2014  16:57:00      118.014      121.478       29.847      136.884      100.469       65.925    18737.320    10093.926     4346.084        3.137        1.659      169.364       33.423        0.039      347.094       25.814      859.989
05/24/2014  16:58:00      109.053      316.520      -17.136      150.012      183.412       89.784    22503.533    33640.079     8061.137        8.828        3.210      334.780      106.961        0.102      346.837       25.367      859.998
05/24/2014  16:59:00       93.739      106.995       12.349      112.199      125.309       64.125    12588.694    15702.464     4112.042        2.639        1.620      142.250       61.113        0.185      347.019       25.682      860.010
05/24/2014  17:00:00      224.411      159.350       13.344      121.834      112.555       92.079    14843.595    12668.553     8478.629        5.595        1.800      275.232       65.270        0.056      346.908       25.491      859.984
05/24/2014  17:01:00      221.436      132.344       64.562      104.176       86.146       82.564    10852.689     7421.068     6816.796        4.790        1.255      257.971       53.225        0.043      346.928       25.526      859.944
05/24/2014  17:02:00      256.767      118.653       54.051      140.651      112.537       88.404    19782.728    12664.681     7815.211        6.159        2.013      282.857       80.093        0.080      346.814       25.329      859.914
05/24/2014  17:03:00      160.752      116.496       27.262      116.672       88.812       67.450    13612.384     7887.529     4549.485        3.310        1.302      198.526       47.819        0.058      346.903       25.483      859.918
05/24/2014  17:04:00      190.481      140.850       67.910       92.970       86.488       97.137     8643.370     7480.151     9435.670        4.314        1.278      236.900       49.637        0.044      347.009       25.663      859.910
05/24/2014  17:05:00      255.464      144.007       33.968      134.477      101.082       74.717    18083.994    10217.651     5582.566        6.051        1.694      293.257       53.089        0.033      346.841       25.376      859.889
05/24/2014  17:06:00      279.625      171.563       42.749      156.825      116.660       87.940    24594.004    13609.518     7733.383        7.768        2.297      328.061       25.668        0.006      346.814       25.329      859.878
05/24/2014  17:07:00      279.772      163.993      122.081      161.327      124.845      110.919    26026.394    15586.252    12303.074        8.698        2.696      324.293      105.260        0.105      346.736       25.193      859.819
05/24/2014  17:08:00      259.804      151.367       18.779      166.371      121.668       68.091    27679.400    14803.006     4636.444        6.893        2.356      300.682       26.631        0.008      346.859       25.406      859.864
05/24/2014  17:09:00      161.390      139.906       13.196       81.046       94.068       88.358     6568.455     8848.786     7807.082        3.450        1.161      213.589       70.535        0.109      346.887       25.454      859.889
05/24/2014  17:10:00      116.286      121.195        6.376      104.076       92.510       61.796    10831.731     8558.118     3818.784        2.573        1.160      167.960       53.969        0.103      347.018       25.681      859.897
05/24/2014  17:11:00      199.061      126.344       48.373      118.255       99.655       82.981    13984.151     9931.076     6885.808        4.436        1.540      235.772       48.605        0.042      347.001       25.649      859.905
05/24/2014  17:12:00       81.900      284.090      -19.953      103.093      164.256       87.830    10628.216    26980.175     7714.075        6.656        2.266      295.659       89.842        0.092      346.838       25.371      859.919
05/24/2014  17:13:00       42.674      270.752      -27.136       74.460      133.018       56.922     5544.246    17693.738     3240.119        5.117        1.324      274.095       65.177        0.057      346.843       25.380      859.899
05/24/2014  17:14:00      154.836      146.193       40.496      145.370       87.237       87.230    21132.485     7610.335     7608.991        4.166        1.818      212.947       37.261        0.031      347.051       25.739      859.889
05/24/2014  17:15:00      228.851      177.247       21.386      148.768       86.588       84.307    22131.848     7497.460     7107.706        6.048        1.837      289.464       59.652        0.042      346.782       25.273      859.900
05/24/2014  17:16:00      183.121      129.309       11.232      102.274       80.888       65.331    10459.888     6542.828     4268.098        3.582        1.064      224.174       41.001        0.033      346.956       25.574      859.871
05/24/2014  17:17:00      185.666       91.228       13.177       99.422       62.305       47.894     9884.664     3881.912     2293.800        2.951        0.803      206.868       25.399        0.015      347.106       25.833      859.853
05/24/2014  17:18:00      334.220      207.997       28.251      154.226      112.878       82.346    23785.531    12741.421     6780.858        9.953        2.165      393.656       23.093        0.003      346.891       25.459      859.829
05/24/2014  17:19:00      310.264      183.940       38.695      142.657       96.733       78.087    20350.957     9357.361     6097.586        8.369        1.790      360.691       36.358        0.010      346.961       25.581      859.823
05/24/2014  17:20:00      293.436      184.803       66.545      133.423      117.256      115.499    17801.622    13749.050    13340.051        8.478        2.245      346.781       47.973        0.019      346.850       25.391      859.801
05/24/2014  17:21:00      236.020      133.377       65.643      155.777      118.363       88.678    24266.576    14009.856     7863.783        6.196        2.307      271.099       83.326        0.094      346.898       25.473      859.776
05/24/2014  17:22:00      253.271      159.311       71.238      160.405       99.086       96.107    25729.694     9817.955     9236.560        6.968        2.239      299.209       49.832        0.028      347.022       25.686      859.772
05/24/2014  17:23:00       97.806      200.121      -16.274       98.850      112.922       68.606     9771.244    12751.277     4706.745        3.855        1.361      222.743       69.396        0.097      347.032       25.704      859.798
05/24/2014  17:24:00       59.452       73.024       20.661       75.506       48.698       45.482     5701.193     2371.495     2068.587        0.972        0.507       94.165       33.084        0.123      347.071       25.773      859.774
05/24/2014  17:25:00       85.864      121.613       -9.478       54.782       81.261       34.599     3001.065     6603.366     1197.104        1.652        0.540      148.870       35.281        0.056      346.967       25.595      859.761
05/24/2014  17:26:00      121.211      100.211       -1.108       74.587      103.054       54.038     5563.278    10620.077     2920.081        2.192        0.955      157.271       53.910        0.118      346.995       25.642      859.766
05/24/2014  17:27:00       77.744      114.197       -6.582       68.479      105.612       47.872     4689.342    11153.948     2291.762        1.863        0.907      138.148       54.628        0.156      347.146       25.903      859.787
05/24/2014  17:28:00       74.377       76.792       -3.892       51.345       77.299       42.326     2636.357     5975.095     1791.467        1.092        0.520      106.906       35.566        0.111      346.961       25.586      859.780
05/24/2014  17:29:00       82.593       70.765       54.108      111.604       66.512       42.233    12455.351     4423.863     1783.624        1.671        0.933      108.763       52.821        0.236      347.113       25.847      859.777
05/24/2014  17:30:00      294.265      148.754       44.276       96.015       81.064       68.825     9218.831     6571.319     4736.895        6.560        1.026      329.727       43.005        0.017      347.045       25.728      859.769
05/24/2014  17:31:00      117.406       37.957       34.020      125.231       70.305       56.200    15682.790     4942.851     3158.438        2.008        1.189      123.389       54.662        0.196      347.225       26.038      859.753
05/24/2014  17:32:00      144.284      126.431        5.757      121.836       87.600       66.996    14843.988     7673.843     4488.410        3.192        1.350      191.840       45.391        0.056      347.139       25.889      859.766
05/24/2014  17:33:00      133.671       99.013        8.475       73.009       69.078       48.095     5330.322     4771.706     2313.120        2.008        0.621      166.348       32.486        0.038      347.178       25.957      859.756
05/24/2014  17:34:00      140.199      113.888       40.334      158.250       93.744       79.836    25043.169     8787.965     6373.761        3.722        2.010      180.627       38.019        0.044      347.139       25.889      859.746
05/24/2014  17:35:00     -100.276      162.778      -28.525       71.625      138.791       47.253     5130.105    19262.864     2232.802        3.199        1.331      191.185       52.695        0.076      347.414       26.364      859.762
05/24/2014  17:36:00      -27.269      340.992      -53.039       75.821      134.544       44.529     5748.812    18102.105     1982.856        7.283        1.292      342.081       53.843        0.025      347.076       25.779      859.814
05/24/2014  17:37:00        8.952      407.343      -50.142       69.919      120.683       42.593     4888.713    14564.488     1814.133        9.489        1.063      407.441       43.191        0.011      347.174       25.948      859.811
05/24/2014  17:38:00        2.947      242.820      -25.372       73.315       99.248       58.137     5375.073     9850.229     3379.951        3.911        0.930      242.838       60.486        0.062      347.271       26.116      859.802
05/24/2014  17:39:00      -13.018      168.043      -21.205       76.963      113.338       38.239     5923.325    12845.516     1462.244        2.454        1.012      168.547       34.525        0.042      347.262       26.100      859.774
05/24/2014  17:40:00        5.598      162.241      -11.079       87.590       86.494       48.573     7672.029     7481.274     2359.368        2.199        0.876      162.338       45.514        0.079      347.233       26.050      859.760
05/24/2014  17:41:00      -46.211      180.716      -14.243       73.243       70.133       54.287     5364.475     4918.674     2947.082        2.411        0.662      186.531       36.826        0.039      347.298       26.164      859.745
05/24/2014  17:42:00       51.249      148.414      -11.294       69.951       81.873       53.543     4893.181     6703.202     2866.862        1.962        0.723      157.013       44.370        0.080      347.288       26.148      859.754
05/24/2014  17:43:00      103.773      170.399        4.471       97.470       81.043       57.577     9500.327     6567.893     3315.085        2.960        0.969      199.511       47.560        0.057      347.233       26.051      859.769
05/24/2014  17:44:00      100.938      138.431        4.141       90.256       88.179       60.798     8146.179     7775.493     3696.423        2.449        0.981      171.323       55.385        0.105      347.212       26.016      859.768
05/24/2014  17:45:00       37.439      324.527      -33.145       93.102      167.693       71.974     8667.990    28121.011     5180.281        7.489        2.098      326.679       88.012        0.073      347.101       25.824      859.763
05/24/2014  17:46:00      119.671      151.435        3.868      100.589      106.792       70.918    10118.198    11404.622     5029.384        3.191        1.328      193.013       58.987        0.093      347.143       25.897      859.762
05/24/2014  17:47:00      149.605      152.795       11.209      125.020      105.897       89.146    15630.088    11214.228     7946.958        4.032        1.740      213.841       72.375        0.115      347.075       25.777      859.765
05/24/2014  17:48:00       57.801       61.693        9.512       56.993       74.050       37.888     3248.192     5483.380     1435.531        0.870        0.508       84.539       30.047        0.126      347.241       26.067      859.769
05/24/2014  17:49:00      -23.190      325.411      -47.116       44.527      112.257       40.719     1982.641    12601.703     1658.002        6.244        0.812      326.236       37.483        0.013      347.061       25.754      859.801
05/24/2014  17:50:00        3.064      200.533      -24.846       56.183       77.488       37.449     3156.576     6004.411     1402.444        2.570        0.528      200.557       38.464        0.037      347.167       25.937      859.821
05/24/2014  17:51:00      -49.400      238.398      -29.785       56.280       77.706       35.186     3167.409     6038.205     1238.064        3.530        0.522      243.462       35.846        0.022      347.144       25.898      859.794
05/24/2014  17:52:00      -85.770      200.379      -37.213      104.326       92.214       41.536    10883.935     8503.480     1725.207        3.500        1.056      217.964       38.351        0.031      347.209       26.009      859.806
05/24/2014  17:53:00        3.692       91.444       -1.053       72.558       65.464       36.379     5264.730     4285.511     1323.427        0.962        0.544       91.518       36.860        0.162      347.249       26.080      859.788
05/24/2014  17:54:00       78.797      104.538       -6.173       62.897       81.852       54.537     3956.078     6699.681     2974.271        1.540        0.682      130.908       41.680        0.101      347.345       26.247      859.781
05/24/2014  17:55:00        4.165      186.151      -31.066       53.043       81.337       38.332     2813.609     6615.759     1469.331        2.326        0.545      186.197       41.869        0.051      347.258       26.096      859.785
05/24/2014  17:56:00      -40.263      188.281      -22.553       84.601       79.039       41.464     7157.383     6247.218     1719.302        2.635        0.756      192.538       35.718        0.034      347.329       26.216      859.773
05/24/2014  17:57:00      -51.164      174.259      -17.776       86.114      110.699       42.388     7415.700    12254.277     1796.777        2.738        1.073      181.614       53.450        0.087      347.189       25.977      859.768
05/24/2014  17:58:00        4.685      356.748      -40.551       98.168      118.498       67.451     9636.985    14041.817     4549.697        7.858        1.411      356.779       60.230        0.028      347.282       26.133      859.789
05/24/2014  17:59:00      -17.264      490.890      -65.737      110.072      136.037       60.840    12115.778    18505.947     3701.558       13.995        1.716      491.194       65.856        0.018      347.078       25.784      859.809
05/24/2014  18:00:00      -26.053      251.038      -36.055       63.008      126.817       48.947     3969.973    16082.542     2395.778        4.372        1.122      252.387       58.346        0.053      347.150       25.910      859.821
05/24/2014  18:01:00      -79.866      164.723      -26.877       84.788       98.541       41.261     7189.090     9710.339     1702.474        2.641        0.930      183.063       40.165        0.048      347.198       25.990      859.823
05/24/2014  18:02:00      -60.359      150.350      -19.014       80.623       89.985       38.675     6500.139     8097.278     1495.775        2.135        0.805      162.013       40.203        0.062      347.203       26.000      859.798
05/24/2014  18:03:00      -62.521      212.571      -30.646       70.364      122.137       39.695     4951.149    14917.390     1575.674        3.574        1.072      221.575       47.431        0.046      347.177       25.954      859.799
05/24/2014  18:04:00      -85.321      209.201      -24.128       73.495      118.258       55.361     5401.484    13985.046     3064.806        3.703        1.123      225.931       51.866        0.053      347.265       26.107      859.798
05/24/2014  18:05:00     -128.958      120.451      -23.446       82.136       58.919       40.217     6746.259     3471.494     1617.399        2.176        0.592      176.461       44.282        0.063      347.456       26.436      859.811
05/24/2014  18:06:00     -100.445       99.471      -23.574       56.770       55.784       28.023     3222.875     3111.854      785.272        1.383        0.356      141.363       27.381        0.038      347.503       26.519      859.827
05/24/2014  18:07:00      -85.912      235.926      -23.506       70.534      109.385       58.760     4974.987    11965.155     3452.760        4.199        1.020      251.081       42.969        0.029      347.311       26.183      859.834
05/24/2014  18:08:00      -75.206      198.362      -23.610       85.475       86.738       41.114     7305.892     7523.529     1690.375        3.104        0.826      212.140       41.797        0.039      347.108       25.838      859.830
05/24/2014  18:09:00      -83.652      185.626      -27.445      101.497       77.802       52.013    10301.734     6053.223     2705.326        3.063        0.953      203.604       46.441        0.052      347.140       25.891      859.799
05/24/2014  18:10:00      -75.851      227.339      -20.361       74.530      123.918       63.417     5554.656    15355.776     4021.675        4.139        1.247      239.659       70.207        0.086      347.267       26.111      859.817
05/24/2014  18:11:00      -69.511      229.580      -25.479       62.064       86.951       43.664     3851.999     7560.428     1906.564        3.575        0.666      239.873       42.678        0.032      347.271       26.117      859.833
05/24/2014  18:12:00      -50.209      281.031      -30.080       82.425       88.775       46.900     6793.910     7881.008     2199.638        4.964        0.844      285.481       44.647        0.024      347.203       25.998      859.838
05/24/2014  18:13:00      -94.362      217.236      -27.847       51.743      101.445       41.643     2677.299    10291.045     1734.174        3.578        0.735      236.846       44.672        0.036      347.266       26.108      859.840
05/24/2014  18:14:00      -64.168      221.012      -22.111       88.628       81.497       44.099     7854.974     6641.683     1944.717        3.494        0.822      230.139       45.407        0.039      347.229       26.044      859.842
05/24/2014  18:15:00      -59.971      172.391      -31.409       82.374      110.877       48.782     6785.553    12293.812     2379.716        2.788        1.073      182.524       56.497        0.096      347.286       26.143      859.844
05/24/2014  18:16:00      -71.339      307.909      -46.068       92.458      113.699       54.306     8548.409    12927.522     2949.115        6.322        1.221      316.065       57.484        0.033      347.127       25.868      859.859
05/24/2014  18:17:00      -78.047      295.463      -24.069       80.507      117.265       49.492     6481.361    13751.073     2449.473        5.832        1.134      305.597       57.199        0.035      347.132       25.875      859.872
05/24/2014  18:18:00      -47.782      386.402      -55.325       64.071      127.702       41.515     4105.132    16307.855     1723.505        8.839        1.107      389.345       42.093        0.012      347.116       25.847      859.870
05/24/2014  18:19:00      -27.293      450.292      -62.802       64.239       75.948       38.077     4126.589     5768.162     1449.856       10.940        0.567      451.119       34.112        0.006      347.024       25.690      859.870
05/24/2014  18:20:00      -71.053      313.382      -40.809       74.430      107.834       40.354     5539.877    11628.249     1628.438        6.186        0.940      321.336       41.431        0.017      347.100       25.820      859.861
05/24/2014  18:21:00      -15.383      216.127      -13.435      102.757      143.307       64.624    10558.952    20537.032     4176.321        4.119        1.764      216.673       65.830        0.092      347.155       25.918      859.863
05/24/2014  18:22:00      -63.582      395.622      -49.547       86.835      123.411       43.702     7540.378    15230.266     1909.878        9.384        1.234      400.699       35.562        0.008      347.088       25.801      859.870
05/24/2014  18:23:00      127.617      185.889       28.751      131.846      108.974       88.524    17383.291    11875.438     7836.571        4.437        1.855      225.479       73.477        0.106      347.053       25.741      859.886
05/24/2014  18:24:00       63.224      125.631       13.020       71.659      106.093       69.074     5135.035    11255.675     4771.267        2.055        1.058      140.643       69.258        0.242      346.974       25.606      859.875
05/24/2014  18:25:00       55.065      101.727        2.536       83.981       74.764       60.018     7052.802     5589.626     3602.129        1.481        0.812      115.674       51.038        0.195      346.986       25.626      859.859
05/24/2014  18:26:00       69.112      225.529      -16.395      112.781      155.361       79.424    12719.497    24137.014     6308.145        4.953        2.158      235.880       87.028        0.136      346.994       25.638      859.838
05/24/2014  18:27:00      -49.972      343.736      -38.573       80.396      125.399       53.795     6463.535    15725.008     2893.937        7.361        1.254      347.350       61.621        0.031      347.091       25.805      859.842
05/24/2014  18:28:00      -13.471      410.618      -46.154      109.546      106.145       63.636    12000.420    11266.762     4049.522        9.911        1.366      410.839       61.510        0.022      346.988       25.628      859.853
05/24/2014  18:29:00     -115.067      258.182      -27.900      112.085      108.302       64.185    12563.109    11729.337     4119.741        5.454        1.421      282.663       59.355        0.044      347.024       25.692      859.842
05/24/2014  18:30:00      -67.754      453.432      -56.549      107.920      135.442       60.966    11646.736    18344.528     3716.820       12.354        1.685      458.466       65.291        0.020      346.998       25.646      859.848
05/24/2014  18:31:00      -62.576      295.608      -46.985       69.596      105.768       43.406     4843.614    11186.817     1884.075        5.571        0.896      302.158       46.810        0.024      347.080       25.785      859.853
05/24/2014  18:32:00      -50.222      279.766      -30.557       70.588       93.337       40.174     4982.718     8711.775     1613.969        4.851        0.765      284.238       41.101        0.021      347.087       25.799      859.854
05/24/2014  18:33:00     -115.057      213.469      -29.031       92.275      109.318       55.153     8514.632    11950.339     3041.886        4.157        1.175      242.502       57.624        0.056      347.157       25.921      859.867
05/24/2014  18:34:00      -30.588      144.315       -6.579       80.889       98.924       48.702     6543.065     9786.026     2371.875        2.025        0.935      147.521       60.823        0.170      347.183       25.966      859.869
05/24/2014  18:35:00        4.004      293.117      -21.455      122.564      154.843       79.227    15021.935    23976.414     6276.865        6.583        2.264      293.144       88.755        0.092      346.971       25.598      859.868
05/24/2014  18:36:00       32.908      329.812      -25.024       96.678      166.457       79.146     9346.551    27707.850     6264.168        7.689        2.166      331.450       90.058        0.074      346.985       25.625      859.858
05/24/2014  18:37:00      -28.617      450.733      -66.870      116.792      118.390       61.371    13640.409    14016.150     3766.450       11.993        1.571      451.641       63.020        0.019      346.960       25.582      859.859
05/24/2014  18:38:00      -13.273      464.992      -60.996       86.300      129.884       60.044     7447.633    16869.814     3605.239       12.401        1.396      465.181       61.174        0.017      346.922       25.515      859.881
05/24/2014  18:39:00       18.648      378.654      -56.409       93.399      120.346       62.071     8723.374    14483.222     3852.789        8.698        1.353      379.113       57.871        0.023      346.895       25.467      859.872
05/24/2014  18:40:00      -89.548      307.477      -40.834       89.310      105.888       50.091     7976.325    11212.216     2509.128        6.296        1.085      320.251       50.345        0.025      346.933       25.533      859.886
05/24/2014  18:41:00      -56.263      447.804      -54.904      118.373      126.732       66.644    14012.267    16060.969     4441.417       12.060        1.726      451.325       69.101        0.023      346.886       25.451      859.891
05/24/2014  18:42:00        2.182      336.730      -30.088       75.664      105.651       56.975     5725.097    11162.179     3246.112        6.721        1.007      336.737       50.228        0.022      346.864       25.414      859.893
05/24/2014  18:43:00       40.430      308.190      -25.536       86.183      141.738       75.634     7427.572    20089.759     5720.490        6.525        1.662      310.830       87.024        0.078      346.884       25.449      859.897
05/24/2014  18:44:00       49.437      313.473      -45.177       71.783       84.019       55.515     5152.737     7059.273     3081.907        5.902        0.765      317.348       50.651        0.025      346.908       25.489      859.896
05/24/2014  18:45:00        0.270      164.897      -22.539       98.332       74.531       50.672     9669.088     5554.918     2567.637        2.274        0.890      164.898       39.665        0.058      347.003       25.655      859.901
05/24/2014  18:46:00      -65.342      328.809      -46.905       83.606      113.199       44.459     6989.920    12814.000     1976.641        6.818        1.089      335.239       45.482        0.018      346.931       25.530      859.904
05/24/2014  18:47:00       33.994      426.913      -56.325       62.601      163.761       63.863     3918.843    26817.607     4078.476       11.069        1.741      428.265       85.039        0.039      346.856       25.401      859.911
05/24/2014  18:48:00       -8.530      376.971      -26.128       71.818      168.256       71.048     5157.845    28310.161     5047.822        9.068        1.926      377.067       95.153        0.064      346.905       25.484      859.929
05/24/2014  18:49:00       33.127      279.227      -20.943       89.938      149.090       71.159     8088.923    22227.829     5063.601        5.743        1.769      281.185       79.435        0.080      346.938       25.542      859.925
05/24/2014  18:50:00       19.195      170.970        1.844       82.794      110.962       67.736     6854.874    12312.549     4588.158        2.667        1.188      172.044       72.660        0.178      346.989       25.630      859.945
05/24/2014  18:51:00       -1.887      203.387      -35.540       64.218      129.021       44.689     4123.966    16646.479     1997.121        3.270        1.138      203.396       59.118        0.084      347.041       25.720      859.948
05/24/2014  18:52:00     -114.173      200.919      -36.114       71.180       95.793       44.229     5066.632     9176.322     1956.181        3.545        0.810      231.093       39.634        0.029      347.082       25.791      859.967
05/24/2014  18:53:00     -154.633      250.970      -48.337      112.529      108.240       58.863    12662.772    11715.796     3464.828        5.853        1.392      294.783       50.693        0.030      346.993       25.636      859.967
05/24/2014  18:54:00       10.072      252.727      -25.383       81.684       93.799       55.556     6672.203     8798.305     3086.500        4.158        0.928      252.928       56.396        0.050      347.039       25.715      859.971
05/24/2014  18:55:00       -6.860      183.511       -7.699       87.076      143.382       72.195     7582.298    20558.494     5212.071        3.356        1.668      183.639       78.426        0.182      346.936       25.541      859.969
05/24/2014  18:56:00       56.517      251.760      -24.690       99.531      135.289       70.915     9906.372    18303.158     5028.881        5.021        1.662      258.026       73.717        0.082      346.924       25.517      859.940
05/24/2014  18:57:00       38.738      269.286      -17.768       88.773      148.201       80.171     7880.717    21963.672     6427.311        5.529        1.814      272.058       89.562        0.108      346.936       25.537      859.940
05/24/2014  18:58:00      -35.280      219.374      -31.266       61.886       95.221       41.424     3829.894     9066.975     1715.935        3.248        0.731      222.193       44.718        0.041      346.982       25.618      859.969
05/24/2014  18:59:00      -52.220      172.312      -33.920       70.837      117.067       41.155     5017.909    13704.579     1693.749        2.699        1.021      180.051       43.193        0.058      347.014       25.673      859.964
05/24/2014  19:00:00      -66.674      511.449      -68.996       83.550      140.340       49.569     6980.665    19695.383     2457.102       14.995        1.457      515.777       55.714        0.012      346.939       25.545      859.965
05/24/2014  19:01:00     -107.661      412.634      -55.485       72.440      110.298       47.441     5247.512    12165.573     2250.659       10.230        0.983      426.447       50.366        0.014      346.904       25.482      859.986
05/24/2014  19:02:00      -43.101      421.295      -44.122       73.580      138.850       64.903     5414.055    19279.303     4212.353       10.509        1.445      423.494       62.759        0.022      346.927       25.524      859.978
05/24/2014  19:03:00      -43.062      380.619      -58.587       81.117      140.762       40.722     6580.027    19813.809     1658.260        8.910        1.403      383.048       46.079        0.014      346.941       25.547      859.987
05/24/2014  19:04:00      -56.397      209.681      -17.109       91.605       91.790       49.631     8391.534     8425.349     2463.203        3.336        0.964      217.133       48.651        0.050      346.978       25.612      859.992
05/24/2014  19:05:00      -13.760      262.033      -37.175       75.224       80.179       51.583     5658.716     6428.725     2660.851        4.249        0.737      262.394       46.226        0.031      346.989       25.631      860.014
05/24/2014  19:06:00      -27.748      263.071      -20.407       93.619      108.802       57.314     8764.444    11837.860     3284.935        4.714        1.194      264.530       59.018        0.050      346.965       25.589      860.017
05/24/2014  19:07:00       86.556      198.013       -8.877      109.000      113.648       78.695    11880.921    12915.819     6192.868        3.888        1.549      216.105       58.190        0.073      346.918       25.507      860.027
05/24/2014  19:08:00       42.526      181.161      -12.503       68.198       85.022       59.889     4651.017     7228.789     3586.678        2.512        0.773      186.086       43.087        0.054      346.884       25.448      860.040
05/24/2014  19:09:00      -27.458      289.054      -36.476       64.416      136.717       39.061     4149.387    18691.499     1525.725        5.500        1.218      290.356       33.920        0.014      346.863       25.414      860.046
05/24/2014  19:10:00      -11.193      316.157      -41.310       86.385       76.548       42.370     7462.424     5859.582     1795.208        5.845        0.756      316.355       37.044        0.014      346.859       25.405      860.040
05/24/2014  19:11:00       72.167      133.916        4.383      136.062       95.099       56.858    18512.980     9043.899     3232.834        2.697        1.539      152.124       38.100        0.063      346.849       25.393      860.038
05/24/2014  19:12:00       34.314      258.740      -17.008       80.108       97.926       65.868     6417.257     9589.582     4338.585        4.438        1.017      261.005       62.178        0.057      346.817       25.335      860.027
05/24/2014  19:13:00       43.827      148.707       -7.396       63.115      100.774       55.963     3983.477    10155.414     3131.811        2.068        0.864      155.031       57.878        0.139      346.819       25.339      860.035
05/24/2014  19:14:00       46.983      197.597      -24.630       70.265      121.422       54.534     4937.138    14743.376     2973.989        3.225        1.133      203.106       67.363        0.110      346.810       25.323      860.038
05/24/2014  19:15:00       47.545      191.050      -15.542       65.247      126.677       57.418     4257.179    16047.177     3296.879        3.130        1.180      196.877       72.219        0.135      346.801       25.308      860.053
05/24/2014  19:16:00        8.071      264.505      -38.150       75.729      109.499       41.212     5734.820    11990.027     1698.433        4.545        0.971      264.628       41.248        0.024      346.797       25.301      860.050
05/24/2014  19:17:00       33.909      190.306      -27.347       54.224       64.810       42.277     2940.294     4200.363     1787.368        2.352        0.446      193.303       40.412        0.044      346.798       25.303      860.053
05/24/2014  19:18:00      -40.073      194.097      -23.848       57.737      104.189       39.382     3333.538    10855.363     1550.959        2.779        0.787      198.191       47.174        0.057      346.837       25.368      860.069
05/24/2014  19:19:00       -2.498      232.800      -27.711       55.227       88.289       49.565     3050.015     7794.886     2456.729        3.413        0.665      232.814       51.375        0.049      346.840       25.372      860.072
05/24/2014  19:20:00       22.115      136.536      -18.057       46.710       94.232       40.924     2181.836     8879.605     1674.802        1.609        0.637      138.316       48.461        0.123      346.808       25.321      860.069
05/24/2014  19:21:00       22.080      128.555      -17.400       52.257       80.977       37.921     2730.836     6557.204     1437.968        1.402        0.536      130.438       41.765        0.103      346.793       25.296      860.094
05/24/2014  19:22:00       -3.536      233.921      -38.951       68.595      100.576       46.099     4705.307    10115.487     2125.077        3.659        0.847      233.948       48.857        0.044      346.837       25.368      860.118
05/24/2014  19:23:00       12.397      334.660      -45.424       86.807      100.436       63.415     7535.418    10087.471     4021.504        6.793        1.082      334.890       58.092        0.030      346.830       25.355      860.131
05/24/2014  19:24:00      -55.831      377.074      -47.274       88.991       98.253       49.090     7919.474     9653.615     2409.808        8.376        0.999      381.185       40.448        0.011      346.807       25.318      860.155
05/24/2014  19:25:00       94.938      233.359        4.596      140.035      183.208       99.381    19609.894    33565.313     9876.493        6.326        3.153      251.932      103.692        0.169      346.759       25.235      860.168
05/24/2014  19:26:00       -1.604      258.404      -17.134       99.111      129.004       70.322     9822.993    16641.909     4945.147        4.923        1.571      258.409       67.116        0.067      346.754       25.225      860.197
05/24/2014  19:27:00      -27.024      342.777      -43.346       86.639      132.074       44.109     7506.399    17443.508     1945.599        7.349        1.345      343.840       49.625        0.021      346.749       25.218      860.198
05/24/2014  19:28:00      -15.805      346.353      -50.993       51.108      108.884       35.973     2612.004    11855.819     1294.070        6.928        0.788      346.714       47.042        0.018      346.764       25.242      860.194
05/24/2014  19:29:00       27.968      283.771      -25.766       87.666      136.767       61.972     7685.356    18705.202     3840.506        5.610        1.512      285.146       71.820        0.063      346.737       25.196      860.199
05/24/2014  19:30:00       43.899      184.223      -15.438       57.791       99.963       57.165     3339.842     9992.608     3267.809        2.635        0.830      189.381       62.139        0.108      346.719       25.166      860.195
05/24/2014  19:31:00        9.099      298.704      -42.498       76.490       94.302       47.282     5850.685     8892.782     2235.608        5.404        0.849      298.843       50.838        0.029      346.685       25.106      860.193
05/24/2014  19:32:00       17.097      343.571      -57.863       54.323       93.087       37.685     2951.035     8665.135     1420.135        6.736        0.652      343.997       41.651        0.015      346.709       25.148      860.196
05/24/2014  19:33:00       50.392      330.853      -45.359       91.930      123.596       56.527     8451.210    15275.960     3195.328        7.049        1.346      334.669       61.688        0.034      346.631       25.013      860.205
05/24/2014  19:34:00       28.470      262.905      -42.703       56.667       74.919       37.818     3211.109     5612.890     1430.220        4.100        0.513      264.442       31.597        0.014      346.590       24.942      860.216
05/24/2014  19:35:00        5.033      218.177      -24.624       63.154       87.281       37.335     3988.383     7617.989     1393.907        3.061        0.650      218.235       43.459        0.040      346.583       24.931      860.221
05/24/2014  19:36:00       59.503      194.115      -22.808       92.608       99.064       67.930     8576.286     9813.727     4614.525        3.237        1.150      203.030       58.150        0.082      346.541       24.860      860.229
05/24/2014  19:37:00       37.046      211.953      -14.267       95.119      111.070       68.841     9047.647    12336.586     4739.118        3.631        1.306      215.166       69.165        0.103      346.531       24.844      860.244
05/24/2014  19:38:00      112.008      304.770      -37.556      113.836      159.658       79.919    12958.564    25490.559     6387.016        7.583        2.242      324.701       78.054        0.058      346.511       24.809      860.243
05/24/2014  19:39:00      -18.482      280.838      -16.446       81.729      115.152       60.375     6679.600    13259.985     3645.190        5.153        1.179      281.446       63.637        0.051      346.477       24.749      860.249
05/24/2014  19:40:00      100.127      306.731      -31.510      114.397      160.918       78.971    13086.675    25894.506     6236.402        7.515        2.261      322.660       89.599        0.077      346.462       24.723      860.242
05/24/2014  19:41:00       75.123      360.342      -30.434       91.179      165.016       89.508     8313.589    27230.308     8011.642        8.998        2.178      368.089      100.580        0.075      346.474       24.745      860.246
05/24/2014  19:42:00        0.881      380.992      -43.620       87.086      124.398       63.742     7584.002    15474.961     4063.037        8.708        1.356      380.993       66.302        0.030      346.446       24.696      860.261
05/24/2014  19:43:00       -2.745      250.615      -21.609       80.667      101.242       59.345     6507.095    10249.991     3521.849        4.178        1.014      250.631       54.879        0.048      346.420       24.651      860.258
05/24/2014  19:44:00       44.826      225.745      -15.995       95.708      112.024       70.470     9160.023    12549.378     4966.012        3.995        1.334      230.152       74.845        0.106      346.415       24.643      860.252
05/24/2014  19:45:00       23.097      246.239      -33.989       66.829       91.667       42.294     4466.146     8402.900     1788.794        3.849        0.733      247.320       38.762        0.025      346.378       24.579      860.273
05/24/2014  19:46:00       -5.178      363.128      -47.748       66.524      133.384       55.987     4425.500    17791.424     3134.502        7.975        1.268      363.165       68.373        0.035      346.422       24.654      860.284
05/24/2014  19:47:00        1.970      256.812      -27.573       97.968       94.747       57.627     9597.791     8976.948     3320.859        4.430        1.095      256.819       52.731        0.042      346.372       24.567      860.298
05/24/2014  19:48:00      -15.885      357.417      -41.195       91.701      100.217       48.936     8409.062    10043.421     2394.764        7.527        1.042      357.769       51.123        0.020      346.443       24.691      860.316
05/24/2014  19:49:00       28.807      259.823      -27.414       80.252      144.545       63.694     6440.316    20893.375     4056.983        5.023        1.570      261.415       78.055        0.089      346.392       24.604      860.350
05/24/2014  19:50:00       19.799      165.560       -5.472       52.549       80.625       48.875     2761.367     6500.334     2388.777        1.974        0.583      166.740       47.984        0.083      346.320       24.481      860.369
05/24/2014  19:51:00       45.024      178.758       -7.908       71.338      137.401       65.692     5089.140    18878.931     4315.503        3.116        1.414      184.340       74.253        0.162      346.308       24.459      860.377
05/24/2014  19:52:00       41.371      139.198       -6.094       65.396      122.016       56.734     4276.589    14887.938     3218.691        2.175        1.119      145.216       63.932        0.194      346.265       24.388      860.399
05/24/2014  19:53:00       59.090      151.970       -3.469       63.821      114.008       65.958     4073.177    12997.896     4350.497        2.401        1.071      163.054       65.408        0.161      346.241       24.346      860.416
05/24/2014  19:54:00       30.549      145.344       -0.033       60.552      100.754       53.323     3666.543    10151.345     2843.313        1.936        0.833      148.520       51.541        0.120      346.228       24.321      860.440
05/24/2014  19:55:00       41.898      245.668      -22.392       75.159      119.711       68.286     5648.886    14330.810     4662.971        4.362        1.232      249.215       74.330        0.089      346.215       24.299      860.445
05/24/2014  19:56:00       28.365      280.534      -39.821       64.161       65.972       39.913     4116.692     4352.288     1593.086        4.557        0.503      281.965       38.013        0.018      346.229       24.319      860.470
05/24/2014  19:57:00       34.226      345.504      -47.016       60.628       68.226       41.400     3675.784     4654.808     1713.984        6.640        0.502      347.195       36.188        0.011      346.264       24.381      860.485
05/24/2014  19:58:00       30.743      319.794      -48.366       61.470       66.927       35.427     3778.573     4479.270     1255.105        5.753        0.476      321.269       24.652        0.006      346.210       24.290      860.500
05/24/2014  19:59:00       58.503      285.818      -28.964       70.295      114.750       61.555     4941.317    13167.547     3789.037        5.392        1.095      291.744       67.164        0.053      346.181       24.240      860.516
05/24/2014  20:00:00       49.042      177.947       -1.584       71.396      127.483       64.800     5097.453    16252.041     4199.016        2.981        1.277      184.581       71.573        0.150      346.142       24.173      860.532
05/24/2014  20:01:00       39.764      209.078       -5.969       81.267      105.861       70.116     6604.279    11206.543     4916.281        3.402        1.136      212.826       64.563        0.092      346.125       24.145      860.556
05/24/2014  20:02:00       44.124      243.176      -33.787       52.144      131.398       48.080     2719.022    17265.387     2311.682        4.226        1.115      247.146       64.074        0.067      346.158       24.202      860.571
05/24/2014  20:03:00       36.981      196.035      -19.500       61.186       99.383       45.135     3743.717     9876.925     2037.173        2.791        0.783      199.493       51.908        0.068      346.134       24.160      860.575
05/24/2014  20:04:00       18.093      273.354      -34.159       50.055       84.016       38.170     2505.512     7058.625     1456.985        4.362        0.551      273.952       35.869        0.017      346.152       24.189      860.592
05/24/2014  20:05:00        9.395      239.842      -35.428       46.831       58.517       30.162     2193.156     3424.284      909.763        3.270        0.326      240.026       28.768        0.014      346.136       24.163      860.595
05/24/2014  20:06:00       46.041      166.654      -14.746       57.068      100.908       57.030     3256.776    10182.469     3252.440        2.340        0.835      172.897       56.523        0.107      346.078       24.063      860.613
05/24/2014  20:07:00       26.580      230.540      -26.827       43.800       67.510       42.136     1918.432     4557.606     1775.419        3.141        0.413      232.067       38.682        0.028      346.125       24.143      860.625
05/24/2014  20:08:00       65.688      204.838      -27.014       63.592       77.693       44.304     4043.928     6036.140     1962.809        2.952        0.602      215.113       43.449        0.041      346.092       24.088      860.631
05/24/2014  20:09:00       43.901      206.508      -23.539       59.135      102.633       50.669     3496.921    10533.566     2567.355        3.086        0.830      211.123       56.450        0.071      346.081       24.069      860.642
05/24/2014  20:10:00       75.932      149.685       -1.838       85.937       85.705       53.260     7385.139     7345.270     2836.595        2.287        0.878      167.843       49.557        0.087      346.078       24.066      860.648
05/24/2014  20:11:00       35.399      138.103      -13.914       46.735      107.598       36.985     2184.164    11577.227     1367.874        1.782        0.756      142.567       50.137        0.124      346.070       24.051      860.673
05/24/2014  20:12:00       52.663      193.310      -19.576       58.373       81.433       48.151     3407.378     6631.348     2318.481        2.644        0.618      200.355       51.606        0.066      346.002       23.934      860.685
05/24/2014  20:13:00       51.604      113.918        3.456       57.682       82.402       47.211     3327.247     6790.074     2228.858        1.400        0.617      125.061       45.167        0.130      346.003       23.936      860.709
05/24/2014  20:14:00       31.691      122.055      -13.641       48.283       74.091       41.490     2331.253     5489.544     1721.408        1.281        0.477      126.102       38.739        0.094      346.027       23.979      860.714
05/24/2014  20:15:00       34.045      217.785      -32.640       38.263       70.865       36.982     1464.043     5021.881     1367.636        2.875        0.393      220.430       41.516        0.035      346.030       23.982      860.731
05/24/2014  20:16:00       35.281      122.163       -7.836       41.887       74.883       39.887     1754.542     5607.470     1590.982        1.259        0.448      127.156       44.165        0.121      345.937       23.823      860.736
05/24/2014  20:17:00       33.545      153.447      -10.850       44.121       76.339       40.355     1946.658     5827.716     1628.491        1.709        0.470      157.071       39.456        0.063      345.945       23.836      860.749
05/24/2014  20:18:00       36.333      177.745      -31.302       38.151       65.311       24.932     1455.464     4265.539      621.581        2.012        0.317      181.420       26.714        0.022      345.963       23.867      860.757
05/24/2014  20:19:00       40.985      186.323      -20.291       55.563       58.705       44.796     3087.221     3446.225     2006.723        2.267        0.427      190.777       48.984        0.066      345.939       23.826      860.769
05/24/2014  20:20:00       10.098      185.696      -26.262       39.876       39.760       24.333     1590.115     1580.873      592.093        1.952        0.188      185.970       22.522        0.015      345.934       23.818      860.782
05/24/2014  20:21:00       11.734      202.100      -33.706       32.163       34.880       19.252     1034.469     1216.595      370.651        2.237        0.131      202.441       20.562        0.010      345.931       23.813      860.793
05/24/2014  20:22:00       -2.646      203.574      -24.399       38.712       35.041       21.522     1498.599     1227.899      463.191        2.262        0.159      203.591       18.694        0.008      345.939       23.826      860.798
05/24/2014  20:23:00      -10.342      221.934      -35.886       48.091       29.005       18.266     2312.713      841.315      333.642        2.707        0.174      222.175       16.828        0.006      345.984       23.902      860.803
05/24/2014  20:24:00      -33.376      137.455      -15.754       25.330       56.960       23.546      641.634     3244.468      554.408        1.235        0.222      141.449       29.241        0.043      345.827       23.635      860.812
05/24/2014  20:25:00      -25.441       87.775      -13.782       31.055       51.785       21.242      964.388     2681.643      451.203        0.632        0.205       91.387       23.812        0.068      345.839       23.656      860.814
05/24/2014  20:26:00      -24.927      102.096      -16.872       31.715       45.082       20.663     1005.870     2032.395      426.955        0.740        0.173      105.095       19.000        0.033      345.878       23.722      860.831
05/24/2014  20:27:00      -77.685      113.857      -17.733       41.796       33.203       23.772     1746.905     1102.444      565.096        1.136        0.171      137.835       23.502        0.029      345.879       23.724      860.831
05/24/2014  20:28:00      -82.597      111.820      -26.555       29.825       42.119       18.801      889.524     1774.044      353.492        1.152        0.151      139.018       18.717        0.018      345.927       23.809      860.838
05/24/2014  20:29:00      -88.159       63.305      -17.145       33.156       41.174       18.252     1099.315     1695.268      333.127        0.760        0.156      108.534       18.053        0.028      345.950       23.847      860.835
05/24/2014  20:30:00      -85.857       52.048       -4.520       47.587       34.037       30.618     2264.555     1158.506      937.481        0.723        0.218      100.401       28.465        0.080      345.865       23.700      860.848
05/24/2014  20:31:00     -114.328       58.248      -16.822       33.016       24.136       19.454     1090.066      582.529      378.471        0.940        0.103      128.311        9.678        0.006      345.833       23.646      860.863
05/24/2014  20:32:00     -100.067      118.776      -15.162       33.814       41.937       23.857     1143.361     1758.723      569.158        1.391        0.174      155.310       20.204        0.017      345.764       23.528      860.892
05/24/2014  20:33:00     -104.344       84.501      -17.144       37.888       41.583       27.479     1435.499     1729.114      755.075        1.112        0.196      134.268       27.467        0.042      345.692       23.404      860.900
05/24/2014  20:34:00     -129.662      102.576      -30.027       31.029       33.253       23.177      962.801     1105.784      537.178        1.542        0.130      165.330       24.817        0.023      345.727       23.466      860.922
05/24/2014  20:35:00     -119.703       48.829      -13.234       32.198       43.287       24.264     1036.681     1873.804      588.756        1.019        0.175      129.279       22.642        0.031      345.693       23.406      860.926
05/24/2014  20:36:00     -122.559       21.804       -9.150       50.908       34.162       21.224     2591.590     1167.060      450.463        0.989        0.210      124.484       13.795        0.012      345.684       23.390      860.931
05/24/2014  20:37:00     -137.407       37.221      -18.341       35.982       47.900       24.502     1294.734     2294.392      600.357        1.240        0.209      142.359       15.098        0.011      345.711       23.437      860.938
05/24/2014  20:38:00     -113.229       31.369      -12.401       53.486       40.562       26.253     2860.732     1645.287      689.211        0.958        0.260      117.494       25.256        0.046      345.647       23.326      860.942
05/24/2014  20:39:00     -144.463       85.551      -23.190       36.816       57.792       28.567     1355.396     3339.928      816.094        1.712        0.276      167.894       25.815        0.024      345.612       23.266      860.952
05/24/2014  20:40:00     -139.372      134.421      -34.856       52.687       52.218       28.806     2775.890     2726.751      829.768        2.252        0.317      193.632       28.143        0.021      345.601       23.244      860.951
05/24/2014  20:41:00     -144.219       74.176      -18.262       35.044       41.297       25.769     1228.076     1705.443      664.064        1.512        0.180      162.176       19.780        0.015      345.589       23.226      860.966
05/24/2014  20:42:00     -114.842       70.580      -17.596       36.578       39.844       28.395     1337.937     1587.574      806.284        1.111        0.187      134.797       22.218        0.027      345.547       23.157      860.967
05/24/2014  20:43:00     -115.845       86.347      -23.883       41.326       38.679       28.873     1707.873     1496.069      833.673        1.274        0.202      144.485       24.131        0.028      345.623       23.286      860.981
05/24/2014  20:44:00     -132.971      105.686      -20.935       36.800       41.176       27.038     1354.254     1695.426      731.065        1.653        0.189      169.855       20.840        0.015      345.582       23.213      860.985
05/24/2014  20:45:00     -106.552       65.861      -11.520       40.054       31.447       33.689     1604.311      988.934     1134.934        0.978        0.186      125.264       28.065        0.050      345.586       23.223      860.987
05/24/2014  20:46:00     -123.981       83.156      -11.997       55.021       48.638       34.812     3027.279     2365.691     1211.842        1.452        0.330      149.285       35.612        0.057      345.553       23.165      860.982
05/24/2014  20:47:00     -134.027      120.079      -27.366       36.587       61.594       29.559     1338.583     3793.809      873.734        1.957        0.300      179.950       32.807        0.033      345.621       23.281      860.983
05/24/2014  20:48:00     -116.618       79.208      -18.941       42.831       39.191       31.697     1834.479     1535.958     1004.696        1.230        0.219      140.974       23.418        0.028      345.612       23.266      860.989
05/24/2014  20:49:00     -105.655       98.136      -21.485       42.380       39.561       25.825     1796.070     1565.076      666.926        1.264        0.201      144.200       22.585        0.025      345.569       23.194      860.995
05/24/2014  20:50:00     -103.363       59.911      -19.945       42.916       44.728       28.805     1841.749     2000.617      829.711        0.967        0.234      119.471       25.290        0.045      345.599       23.245      861.001
05/24/2014  20:51:00     -115.931       47.939       -7.719       36.179       28.627       23.039     1308.917      819.526      530.775        0.923        0.133      125.452       21.805        0.030      345.622       23.283      861.010
05/24/2014  20:52:00     -138.912       49.301      -16.714       34.569       31.304       21.903     1195.038      979.926      479.750        1.233        0.133      147.401       20.538        0.019      345.643       23.319      861.013
05/24/2014  20:53:00     -111.710       17.513      -15.224       20.521       26.469       16.865      421.113      700.602      284.442        0.721        0.070      113.075        7.775        0.005      345.628       23.294      861.030
05/24/2014  20:54:00     -115.114       12.339      -15.317       37.307       32.062       21.083     1391.816     1027.959      444.509        0.825        0.143      115.773       21.261        0.034      345.557       23.171      861.038
05/24/2014  20:55:00     -113.699       13.175       -8.650       21.517       22.345       17.494      462.976      499.317      306.042        0.722        0.063      114.460       12.682        0.012      345.459       23.003      861.053
05/24/2014  20:56:00     -122.487      -12.946       -8.105       29.282       32.296       16.153      857.459     1043.033      260.918        0.870        0.108      123.169       14.618        0.014      345.312       22.751      861.067
05/24/2014  20:57:00     -119.315      -12.001      -13.020       33.058       22.199       22.435     1092.821      492.774      503.346        0.832        0.104      119.917       21.467        0.032      345.278       22.693      861.076
05/24/2014  20:58:00     -121.544       -5.662      -18.411       19.323       19.837       11.987      373.394      393.507      143.692        0.803        0.046      121.676        9.749        0.006      345.182       22.529      861.096
05/24/2014  20:59:00     -110.790       10.715      -17.087       35.744       20.942       15.215     1277.624      438.573      231.506        0.731        0.097      111.307       16.158        0.021      345.162       22.495      861.119
05/24/2014  21:00:00     -136.407      -22.911      -11.600       40.972       22.070       23.120     1678.686      487.070      534.535        1.098        0.135      138.318       23.053        0.028      345.078       22.354      861.139
05/24/2014  21:01:00     -145.102      -36.591      -13.836       43.542       32.222       25.437     1895.947     1038.255      647.038        1.308        0.179      149.644       23.039        0.024      344.999       22.218      861.162
05/24/2014  21:02:00     -189.193      -36.906      -25.777       28.716       31.253       22.666      824.630      976.769      513.754        2.007        0.116      192.759        7.263        0.001      344.941       22.116      861.181
05/24/2014  21:03:00     -198.674      -29.947      -19.395       37.178       34.485       25.329     1382.234     1189.211      641.559        2.198        0.161      200.918       20.690        0.011      344.874       22.000      861.194
05/24/2014  21:04:00     -178.819      -28.159      -18.590       46.510       49.103       25.183     2163.184     2411.106      634.168        1.916        0.260      181.022       21.996        0.015      344.825       21.917      861.215
05/24/2014  21:05:00     -178.026      -14.979      -15.074       50.418       39.920       26.743     2541.993     1593.590      715.165        1.850        0.243      178.655       23.855        0.018      344.821       21.911      861.230
05/24/2014  21:06:00     -149.894      -10.051      -15.571       41.906       32.842       25.437     1756.132     1078.614      647.054        1.315        0.174      150.231       19.941        0.018      344.833       21.932      861.258
05/24/2014  21:07:00     -188.697      -15.720      -30.650       43.371       42.131       22.193     1881.062     1775.020      492.533        2.047        0.207      189.350       21.028        0.012      344.803       21.879      861.273
05/24/2014  21:08:00     -126.560       -1.640      -14.918       35.422       37.755       25.012     1254.698     1425.407      625.610        0.977        0.165      126.571       15.602        0.015      344.783       21.846      861.289
05/24/2014  21:09:00      -97.981      -25.896      -14.107       30.431       36.045       20.847      926.040     1299.254      434.604        0.656        0.133      101.345       13.692        0.018      344.799       21.874      861.293
05/24/2014  21:10:00     -120.961      -13.784      -16.991       41.435       45.448       27.340     1716.868     2065.505      747.484        0.982        0.226      121.743       22.254        0.033      344.890       22.029      861.299
05/24/2014  21:11:00      -72.447      -31.235        0.891       44.187       40.996       28.583     1952.481     1680.644      816.989        0.534        0.223       78.894       22.716        0.083      344.927       22.094      861.295
05/24/2014  21:12:00      -33.709       -6.740       -5.434       40.377       24.797       24.891     1630.293      614.900      619.575        0.204        0.143       34.376       25.285        0.541      344.842       21.949      861.295
05/24/2014  21:13:00      -36.928      -27.411       -1.714       34.411       19.935       26.181     1184.145      397.405      685.470        0.219        0.113       45.989       21.144        0.211      344.976       22.176      861.302
05/24/2014  21:14:00      -59.883        6.012      -13.549       27.794       38.505       21.681      772.505     1482.665      470.055        0.326        0.136       60.184       10.496        0.030      345.061       22.324      861.305
05/24/2014  21:15:00      -48.684        5.620       -9.572       29.695       26.417       14.202      881.782      697.878      201.692        0.214        0.089       49.008        6.265        0.016      345.056       22.312      861.298
05/24/2014  21:16:00      -36.770       32.206       -1.238       25.048       32.725       13.649      627.423     1070.897      186.287        0.214        0.094       48.880        6.769        0.019      345.081       22.357      861.293
05/24/2014  21:17:00      -49.255       12.910       -4.216       28.408       25.114       18.206      806.998      630.723      331.467        0.219        0.088       50.918       21.897        0.185      345.175       22.517      861.292
05/24/2014  21:18:00      -43.655       11.088       -8.571       20.309       18.139       11.134      412.443      329.032      123.960        0.148        0.043       45.041       12.008        0.071      345.128       22.436      861.303
05/24/2014  21:19:00      -53.414       -8.691       -6.341       14.387       18.446       10.541      206.975      340.272      111.111        0.181        0.033       54.117        4.211        0.006      345.074       22.345      861.305
05/24/2014  21:20:00      -62.012       -1.181      -11.524       15.446       16.831        8.295      238.573      283.270       68.810        0.229        0.030       62.023        6.853        0.012      345.023       22.258      861.332
05/24/2014  21:21:00      -82.545      -24.031      -13.126       10.307       11.435        6.311      106.242      130.748       39.827        0.392        0.014       85.972        2.161        0.001      344.947       22.128      861.338
05/24/2014  21:22:00      -86.888       -3.572      -15.390       25.922       16.071       15.063      671.969      258.264      226.890        0.448        0.058       86.962       13.541        0.024      344.871       21.997      861.360
05/24/2014  21:23:00      -76.200       -1.234       -5.845       22.691       17.908       14.150      514.865      320.686      200.229        0.344        0.052       76.210       13.872        0.033      344.852       21.966      861.371
05/24/2014  21:24:00      -75.618       -7.120       -9.754       16.336       13.499       10.368      266.853      182.217      107.504        0.321        0.028       75.952        8.954        0.014      344.881       22.015      861.373
05/24/2014  21:25:00      -67.427      -11.035       -8.583       18.070       16.622       12.095      326.508      276.280      146.295        0.275        0.037       68.324       10.068        0.022      344.896       22.040      861.378
05/24/2014  21:26:00      -90.519      -12.904      -11.648       16.739       20.758       13.031      280.195      430.892      169.795        0.469        0.044       91.434        8.427        0.008      344.873       22.002      861.372
05/24/2014  21:27:00      -92.745      -11.786       -9.792       23.744       15.253       13.931      563.794      232.668      194.078        0.491        0.050       93.491       13.045        0.019      344.730       21.754      861.380
05/24/2014  21:28:00      -98.197      -14.808       -6.946       16.302       15.743       10.949      265.748      247.852      119.885        0.527        0.032       99.307        9.559        0.009      344.725       21.746      861.381
05/24/2014  21:29:00     -113.104      -21.027      -10.584       18.408       17.823       10.931      338.845      317.676      119.481        0.706        0.039      115.042        7.316        0.004      344.696       21.698      861.394
05/24/2014  21:30:00      -81.192      -42.069       -7.284       22.047       15.741        9.466      486.091      247.783       89.599        0.462        0.041       91.443        7.742        0.007      344.753       21.795      861.406
05/24/2014  21:31:00      -88.786      -67.417       -5.765       27.058       22.727       15.834      732.158      516.504      250.703        0.698        0.075      111.481       11.670        0.011      344.703       21.709      861.420
05/24/2014  21:32:00      -85.133      -57.068        5.135       41.641       30.353       22.416     1733.973      921.329      502.467        0.684        0.158      102.491       18.760        0.034      344.629       21.583      861.448
05/24/2014  21:33:00      -93.967      -77.112        2.816       54.747       35.403       25.962     2997.217     1253.407      674.032        0.985        0.246      121.557       22.174        0.033      344.556       21.458      861.470
05/24/2014  21:34:00     -122.529      -72.539       -1.420       87.254       61.656       37.519     7613.208     3801.422     1407.690        1.655        0.641      142.391       45.767        0.103      344.557       21.458      861.494
05/24/2014  21:35:00     -142.419     -109.339        9.095       73.112       52.826       38.878     5345.317     2790.597     1511.490        2.098        0.482      179.550       34.958        0.038      344.661       21.636      861.531
05/24/2014  21:36:00     -260.713     -185.919       -7.557       77.059       81.617       51.764     5938.023     6661.279     2679.534        5.893        0.764      320.215       42.543        0.018      344.721       21.738      861.548
05/24/2014  21:37:00     -119.913      -76.095       -1.853       67.488       72.042       33.872     4554.654     5190.077     1147.281        1.553        0.545      142.019       36.020        0.064      344.804       21.882      861.566
05/24/2014  21:38:00     -236.454      -14.247      -11.404       88.690       66.603       35.807     7865.953     4435.921     1282.133        3.491        0.679      236.883       34.442        0.021      344.935       22.104      861.561
05/24/2014  21:39:00     -204.775      -25.652       -6.676      100.334       70.410       47.895    10066.942     4957.612     2293.964        2.997        0.866      206.375       55.030        0.071      344.951       22.132      861.572
05/24/2014  21:40:00      -65.997      -13.633       21.392       75.907       66.295       43.484     5761.836     4395.033     1890.884        0.852        0.602       67.390       36.314        0.290      344.789       21.857      861.589
05/24/2014  21:41:00     -198.334      -77.366      -13.368      117.750       69.305       38.543    13865.094     4803.201     1485.590        3.282        1.008      212.889       42.808        0.040      344.841       21.942      861.604
05/24/2014  21:42:00     -145.883      -33.753       -0.582      101.296       64.348       39.463    10260.806     4140.697     1557.326        1.919        0.798      149.737       48.612        0.105      344.692       21.689      861.631
05/24/2014  21:43:00     -148.135      -63.316       -0.741       68.953       55.931       30.518     4754.529     3128.263      931.373        1.738        0.441      161.100       32.350        0.040      344.723       21.741      861.645
05/24/2014  21:44:00     -180.728      -29.509        0.336       56.593       53.703       30.160     3202.739     2884.049      909.632        2.026        0.350      183.121       22.181        0.015      344.810       21.891      861.654
05/24/2014  21:45:00     -145.473      -34.010      -12.375       77.301       56.527       35.495     5975.431     3195.342     1259.922        1.645        0.522      149.396       39.304        0.069      344.815       21.901      861.666
05/24/2014  21:46:00     -200.135      -13.247      -21.401       58.576       67.429       29.022     3431.181     4546.641      842.255        2.475        0.441      200.573       18.165        0.008      344.896       22.038      861.673
05/24/2014  21:47:00     -190.594      -44.167      -19.374       66.042       51.138       40.537     4361.593     2615.128     1643.219        2.363        0.431      195.645       34.374        0.031      344.885       22.017      861.700
05/24/2014  21:48:00     -184.706      -59.092       -3.089       92.476       75.832       39.563     8551.869     5750.442     1565.263        2.674        0.793      193.929       42.818        0.049      344.936       22.107      861.718
05/24/2014  21:49:00     -152.761      -55.212       -8.085       65.694       55.414       34.444     4315.682     3070.656     1186.398        1.751        0.429      162.432       36.741        0.051      344.955       22.140      861.743
05/24/2014  21:50:00     -176.318      -29.248      -18.085       51.498       42.513       28.167     2652.003     1807.314      793.361        1.876        0.263      178.727       26.523        0.022      345.011       22.236      861.769
05/24/2014  21:51:00     -197.499       -8.024      -22.531       51.480       33.583       27.717     2650.180     1127.786      768.215        2.206        0.227      197.662       25.604        0.017      344.877       22.006      861.773
05/24/2014  21:52:00     -154.231      -68.564       -8.837       49.811       35.093       25.799     2481.144     1231.497      665.600        1.647        0.219      168.784       23.194        0.019      344.863       21.984      861.782
05/24/2014  21:53:00     -192.082      -17.941      -17.834       59.739       42.821       28.637     3568.765     1833.608      820.053        2.188        0.311      192.918       31.139        0.026      344.920       22.080      861.796
05/24/2014  21:54:00     -204.763       27.466      -21.863       41.671       27.394       23.026     1736.479      750.413      530.180        2.309        0.151      206.597       22.864        0.012      344.938       22.109      861.794
05/24/2014  21:55:00     -109.670        4.145       -6.085       84.192       40.440       30.464     7088.299     1635.397      928.079        1.086        0.483      109.748       42.200        0.148      344.855       21.971      861.816
05/24/2014  21:56:00      -80.805       14.553       -1.202       34.394       44.437       25.021     1182.958     1974.613      626.066        0.526        0.189       82.105       13.484        0.027      344.900       22.047      861.815
05/24/2014  21:57:00      -87.769      -19.606       -5.225       49.233       33.336       32.464     2423.877     1111.257     1053.892        0.635        0.229       89.932       24.201        0.072      344.917       22.075      861.818
05/24/2014  21:58:00     -124.632      -57.687       -7.931       72.940       45.251       30.931     5320.242     2047.684      956.715        1.362        0.416      137.335       22.072        0.026      344.841       21.944      861.818
05/24/2014  21:59:00     -180.279      -28.585      -19.085       48.416       40.586       24.286     2344.062     1647.197      589.799        1.913        0.229      182.531       18.137        0.010      344.856       21.970      861.811
05/24/2014  22:00:00     -181.171      -47.761      -21.271       39.717       32.484       23.488     1577.417     1055.216      551.687        1.937        0.159      187.361       17.707        0.009      344.860       21.977      861.818
05/24/2014  22:01:00     -178.034      -41.512      -10.252       65.476       49.283       36.326     4287.109     2428.795     1319.611        2.078        0.402      182.809       38.773        0.045      344.813       21.895      861.831
05/24/2014  22:02:00     -151.434      -41.695      -17.342       49.817       43.728       23.213     2481.684     1912.109      538.856        1.495        0.247      157.069       23.026        0.021      344.849       21.961      861.841
05/24/2014  22:03:00      -87.923       -9.784      -23.367       39.329       35.178       19.799     1546.787     1237.504      392.011        0.577        0.159       88.466       12.143        0.019      344.896       22.041      861.861
05/24/2014  22:04:00      -81.894       10.098      -10.641       47.963       42.973       26.634     2300.467     1846.682      709.367        0.589        0.243       82.514       24.651        0.089      345.000       22.218      861.886
05/24/2014  22:05:00      -52.291       15.318      -11.891       40.385       30.955       21.519     1630.934      958.235      463.053        0.308        0.153       54.488       13.320        0.060      344.973       22.172      861.919
05/24/2014  22:06:00     -107.926       62.770       -5.562       52.595       54.202       35.688     2766.258     2937.875     1273.617        1.130        0.349      124.852       17.397        0.019      345.047       22.299      861.947
05/24/2014  22:07:00     -138.577      171.941      -28.797       49.326       56.823       36.426     2433.010     3228.836     1326.877        2.829        0.349      220.833       27.195        0.015      345.127       22.432      861.981
05/24/2014  22:08:00     -146.424      144.841      -26.117       53.602       60.727       38.174     2873.138     3687.719     1457.285        2.556        0.401      205.959       31.555        0.023      345.034       22.274      862.001
05/24/2014  22:09:00     -117.292       67.333      -21.829       44.221       61.439       24.381     1955.532     3774.739      594.414        1.254        0.316      135.245       23.292        0.030      345.014       22.241      862.010
05/24/2014  22:10:00     -117.080       66.932      -19.804       56.593       36.512       19.548     3202.791     1333.123      382.115        1.175        0.246      134.862       20.793        0.024      344.940       22.115      862.029
05/24/2014  22:11:00      -90.979        0.198      -22.500       30.696       30.733       23.113      942.271      944.533      534.227        0.560        0.121       90.979       17.856        0.039      344.930       22.099      862.021
05/24/2014  22:12:00     -120.646      -29.934       -8.187       65.440       30.717       20.352     4282.406      943.534      414.205        1.058        0.282      124.304       16.825        0.018      344.819       21.908      862.015
05/24/2014  22:13:00     -128.965      -32.733      -12.155       52.402       44.329       29.060     2746.011     1965.035      844.486        1.170        0.278      133.055       16.038        0.015      344.817       21.904      862.022
05/24/2014  22:14:00     -125.048      -24.709       -6.093       80.395       56.891       23.659     6463.425     3236.597      559.770        1.327        0.513      127.466       17.430        0.019      344.760       21.806      862.013
05/24/2014  22:15:00     -130.735      -13.010       -9.148       42.606       54.440       21.957     1815.297     2963.766      482.114        1.130        0.263      131.381       24.508        0.035      344.794       21.866      862.019
05/24/2014  22:16:00      -92.783      -18.232       -3.247       40.615       40.369       23.553     1649.549     1629.630      554.724        0.639        0.192       94.557       24.338        0.066      344.695       21.697      862.021
05/24/2014  22:17:00      -81.154      -27.035       -7.980       32.047       35.751       16.776     1027.003     1278.112      281.431        0.498        0.129       85.539       16.150        0.036      344.669       21.652      862.024
05/24/2014  22:18:00     -106.004      -54.718       -6.390       40.087       27.180       20.371     1607.004      738.775      414.978        0.852        0.138      119.294       14.698        0.015      344.650       21.619      862.028
05/24/2014  22:19:00     -140.500      -61.366       -8.537       44.703       47.116       29.899     1998.343     2219.881      893.956        1.434        0.256      153.317       17.565        0.013      344.621       21.569      862.050
05/24/2014  22:20:00      -47.847       23.406       -2.445       30.752       27.693       19.747      945.677      766.926      389.946        0.247        0.105       53.265       15.747        0.087      344.565       21.474      862.042
05/24/2014  22:21:00      -51.805       45.934       -4.465       35.397       25.701       22.211     1252.931      660.561      493.344        0.361        0.120       69.237       18.611        0.072      344.673       21.659      862.044
05/24/2014  22:22:00      -82.877       67.131      -14.163       30.605       23.135       20.141      936.648      535.215      405.650        0.673        0.094      106.654       17.624        0.027      344.683       21.675      862.055
05/24/2014  22:23:00      -88.444       66.175      -15.347       26.587       30.347       20.824      706.871      920.961      433.629        0.725        0.103      110.460       15.717        0.020      344.670       21.653      862.057
05/24/2014  22:24:00      -71.535       83.770       -6.694       38.562       45.624       29.761     1487.009     2081.577      885.708        0.832        0.223      110.158       27.721        0.063      344.717       21.734      862.046
05/24/2014  22:25:00      -81.414       53.200      -18.376       26.935       30.334       15.013      725.520      920.169      225.390        0.583        0.094       97.255       11.798        0.015      344.745       21.781      862.052
05/24/2014  22:26:00      -68.766      -11.606      -18.362       15.390       28.111       13.603      236.860      790.221      185.040        0.321        0.061       69.739       12.722        0.033      344.686       21.683      862.056
05/24/2014  22:27:00      -44.985      -21.832      -12.382       41.682       22.881       21.357     1737.423      523.535      456.138        0.268        0.136       50.003       20.389        0.166      344.696       21.695      862.045
05/24/2014  22:28:00      -38.953       12.129       -6.071       21.024       22.046       11.912      442.011      486.011      141.889        0.139        0.053       40.797        7.080        0.030      344.658       21.632      862.049
05/24/2014  22:29:00      -61.696       31.515      -13.540       18.090       21.294        9.654      327.259      453.432       93.193        0.293        0.044       69.279        4.002        0.003      344.661       21.638      862.050
05/24/2014  22:30:00      -58.512        1.024       -6.814       19.789       14.906       15.935      391.593      222.190      253.911        0.217        0.043       58.521       13.400        0.052      344.646       21.612      862.059
05/24/2014  22:31:00      -55.400      -32.127      -13.291       23.691       17.611       10.310      561.240      310.139      106.295        0.263        0.049       64.041        7.348        0.013      344.543       21.435      862.048
05/24/2014  22:32:00      -32.267      -29.900       -1.598       14.412       17.124        9.503      207.700      293.221       90.301        0.126        0.030       43.990        8.660        0.039      344.646       21.613      862.036
05/24/2014  22:33:00      -40.047       -7.175       -7.063       10.413       11.680        7.500      108.425      136.418       56.252        0.100        0.015       40.684        5.864        0.021      344.721       21.741      862.039
05/24/2014  22:34:00      -13.667       -9.285       -1.353       10.527        8.029        6.285      110.826       64.462       39.500        0.024        0.011       16.522        2.558        0.024      344.629       21.585      862.038
05/24/2014  22:35:00      -13.892       -0.339       -3.962        6.422        6.817        3.355       41.243       46.476       11.258        0.015        0.005       13.896        3.475        0.063      344.586       21.509      862.026
05/24/2014  22:36:00       -7.279       -4.161       -1.343        5.823        3.458        3.326       33.909       11.955       11.064        0.006        0.003        8.384        2.633        0.099      344.575       21.491      862.019
05/24/2014  22:37:00      -27.854       -4.038       -0.243       12.923        8.491        5.521      166.993       72.093       30.482        0.053        0.013       28.146        5.291        0.035      344.639       21.602      862.017
05/24/2014  22:38:00      -14.908      -14.392       -0.929       10.632       14.460        8.456      113.043      209.098       71.505        0.041        0.020       20.721        8.126        0.154      344.558       21.463      862.015
05/24/2014  22:39:00      -22.832       18.828       -4.486       13.320       13.533        8.443      177.428      183.151       71.285        0.066        0.022       29.594        4.465        0.023      344.562       21.471      862.022
05/24/2014  22:40:00       -0.989       30.451       -5.172        6.666       15.492        5.562       44.434      240.003       30.932        0.064        0.016       30.467        5.070        0.028      344.459       21.293      862.018
05/24/2014  22:41:00       -6.316        3.379       -0.683        4.330        3.791        2.905       18.749       14.373        8.441        0.005        0.002        7.163        2.084        0.085      344.422       21.232      862.009
05/24/2014  22:42:00       -9.753        0.009       -1.197        5.626        8.242        4.023       31.655       67.931       16.188        0.011        0.006        9.753        2.470        0.064      344.452       21.281      862.000
05/24/2014  22:43:00       16.411      -21.253        5.542       20.596       16.956       15.545      424.176      287.500      241.654        0.085        0.048       26.851       14.660        0.298      344.441       21.264      861.992
05/24/2014  22:44:00      -20.178      -21.350       -5.519       18.052       12.558        8.068      325.887      157.699       65.097        0.072        0.027       29.376        7.202        0.060      344.482       21.332      861.992
05/24/2014  22:45:00      -86.916      -31.514       -3.235       29.857       19.403       14.769      891.466      376.465      218.113        0.502        0.074       92.453       10.200        0.012      344.337       21.084      861.989
05/24/2014  22:46:00      -71.230      -34.643       -8.738       42.236       28.395       18.124     1783.857      806.298      328.494        0.463        0.146       79.208       18.076        0.052      344.285       20.995      861.982
05/24/2014  22:47:00      -98.222      -63.928        0.073       33.058       27.678       17.934     1092.844      766.062      321.613        0.796        0.109      117.194       15.493        0.017      344.503       21.367      861.970
05/24/2014  22:48:00      -83.177      -52.399        3.195       49.724       32.739       26.425     2472.501     1071.813      698.302        0.696        0.212       98.306       30.442        0.096      344.511       21.381      861.976
05/24/2014  22:49:00      -73.341      -21.620        2.655       44.530       37.541       25.465     1982.924     1409.320      648.470        0.495        0.202       76.462       20.170        0.070      344.463       21.300      861.985
05/24/2014  22:50:00      -98.638      -61.580       -0.237       49.612       44.221       26.387     2461.388     1955.539      696.255        0.932        0.256      116.282       25.232        0.047      344.542       21.434      861.980
05/24/2014  22:51:00     -147.328       -9.646       -9.560       46.217       57.118       20.398     2136.052     3262.458      416.060        1.385        0.291      147.644       21.239        0.021      344.518       21.392      861.981
05/24/2014  22:52:00     -155.115       -5.915      -17.509       32.378       28.396       19.800     1048.304      806.355      392.050        1.332        0.112      155.227       19.326        0.016      344.503       21.369      861.984
05/24/2014  22:53:00     -117.433      -31.116       -3.559       33.148       33.641       21.554     1098.782     1131.730      464.554        0.873        0.135      121.485       18.957        0.024      344.470       21.312      861.974
05/24/2014  22:54:00     -108.373       -7.432       -4.266       39.125       36.858       27.270     1530.774     1358.515      743.680        0.772        0.182      108.627       25.293        0.054      344.488       21.342      861.985
05/24/2014  22:55:00     -140.064      -17.335       -0.946       80.762       46.770       30.320     6522.474     2187.479      919.308        1.477        0.481      141.132       31.874        0.051      344.470       21.312      861.990
05/24/2014  22:56:00      -72.393      -23.177        2.752       55.884       32.101       24.002     3123.017     1030.460      576.112        0.526        0.236       76.013       14.545        0.037      344.460       21.294      861.987
05/24/2014  22:57:00     -136.552      -12.394      -10.923       35.736       32.600       25.940     1277.061     1062.786      672.858        1.097        0.151      137.113       18.726        0.019      344.470       21.311      861.991
05/24/2014  22:58:00     -143.953      -35.830       -4.867       64.294       52.905       34.562     4133.720     2798.958     1194.544        1.508        0.406      148.345       27.540        0.034      344.504       21.368      862.003
05/24/2014  22:59:00      -61.320      -22.228       -5.922       35.566       31.650       22.483     1264.951     1001.717      505.496        0.353        0.139       65.224       23.318        0.128      344.410       21.210      862.002
05/24/2014  23:00:00     -105.438      -35.310      -10.935       43.051       23.655       21.910     1853.409      559.541      480.041        0.769        0.145      111.193       20.593        0.034      344.493       21.351      862.010
05/24/2014  23:01:00      -92.031      -27.576      -10.280       32.274       36.217       17.708     1041.637     1311.661      313.589        0.600        0.133       96.073       10.151        0.011      344.527       21.410      862.020
05/24/2014  23:02:00     -101.389      -26.955       -0.967       63.972       39.109       22.783     4092.454     1529.485      519.059        0.857        0.307      104.911       26.173        0.062      344.447       21.272      862.012
05/24/2014  23:03:00     -108.303      -40.271       -2.166       49.124       35.341       20.428     2413.186     1248.964      417.290        0.872        0.204      115.548       19.634        0.029      344.555       21.458      862.003
05/24/2014  23:04:00      -92.808        5.201       -2.868       41.238       52.173       23.637     1700.600     2722.048      558.700        0.681        0.249       92.954       16.920        0.033      344.536       21.424      862.013
05/24/2014  23:05:00     -132.026       11.504      -20.501       51.156       75.528       29.273     2616.951     5704.444      856.920        1.358        0.459      132.526       27.282        0.042      344.670       21.653      862.018
05/24/2014  23:06:00     -135.152       -3.678       -5.491       76.597       57.970       35.231     5867.024     3360.567     1241.190        1.439        0.523      135.202       34.191        0.064      344.643       21.608      862.025
05/24/2014  23:07:00     -129.426      -17.257      -19.800       79.375       53.464       39.669     6300.406     2858.444     1573.642        1.408        0.537      130.572       36.542        0.078      344.714       21.725      862.031
05/24/2014  23:08:00     -135.147       49.413      -20.543       73.161       75.752       48.767     5352.521     5738.331     2378.264        1.730        0.673      143.897       48.473        0.113      344.752       21.793      862.026
05/24/2014  23:09:00      -72.799       -4.431       -7.315       43.782       51.063       24.438     1916.902     2607.400      597.220        0.525        0.256       72.934       14.762        0.041      344.753       21.796      862.034
05/24/2014  23:10:00     -118.012      -19.020       12.986       61.408       81.815       42.095     3770.885     6693.652     1771.978        1.334        0.612      119.535       27.527        0.053      344.759       21.807      862.032
05/24/2014  23:11:00     -129.041       56.519      -16.025       69.508       83.335       39.233     4831.305     6944.789     1539.218        1.671        0.666      140.876       42.583        0.091      344.785       21.850      862.037
05/24/2014  23:12:00      -86.493        3.797       -3.728       52.926       52.143       23.866     2801.214     2718.891      569.580        0.680        0.304       86.576        8.225        0.009      344.687       21.682      862.045
05/24/2014  23:13:00      -48.872       90.967      -14.724       25.414       43.821       22.183      645.865     1920.313      492.080        0.697        0.153      103.264        9.248        0.008      344.736       21.768      862.054
05/24/2014  23:14:00      -91.277       49.807      -12.554       58.273       88.474       24.961     3395.751     7827.661      623.072        1.141        0.592      103.982       24.660        0.056      344.817       21.904      862.057
05/24/2014  23:15:00      -56.033      107.217        0.170       36.346       50.353       36.092     1321.047     2535.457     1302.644        0.990        0.258      120.976       23.603        0.038      344.822       21.913      862.061
05/24/2014  23:16:00     -106.183      122.881      -24.455       47.899       62.828       35.541     2294.326     3947.340     1263.146        1.724        0.375      162.403       26.781        0.027      344.867       21.989      862.066
05/24/2014  23:17:00     -119.402      168.349      -27.973       76.758       67.522       38.066     5891.865     4559.260     1449.004        2.764        0.595      206.393       40.157        0.038      344.865       21.984      862.065
05/24/2014  23:18:00     -145.563      142.387      -31.175       53.269       71.435       38.764     2837.631     5102.956     1502.661        2.594        0.472      203.624       38.463        0.036      344.830       21.924      862.080
05/24/2014  23:19:00      -75.124      147.996       -9.191       56.793       73.122       42.190     3225.496     5346.884     1780.001        1.899        0.518      165.971       40.903        0.061      344.703       21.710      862.069
05/24/2014  23:20:00      -75.074       85.427      -13.818       37.290       42.343       24.631     1390.551     1792.959      606.689        0.846        0.190      113.727       22.921        0.041      344.710       21.721      862.063
05/24/2014  23:21:00     -157.338      140.521      -49.899       82.726       90.785       45.918     6843.596     8241.928     2108.451        3.209        0.860      210.954       58.523        0.077      344.716       21.729      862.065
05/24/2014  23:22:00     -110.350      108.739       -8.657       77.716       79.112       46.500     6039.777     6258.767     2162.267        1.927        0.723      154.923       42.184        0.074      344.641       21.601      862.068
05/24/2014  23:23:00      -98.617      138.689      -15.707       68.633       68.779       42.757     4710.494     4730.552     1828.136        2.024        0.563      170.176       42.093        0.061      344.587       21.509      862.082
05/24/2014  23:24:00     -113.755       86.914      -16.750       64.231      120.712       39.079     4125.568    14571.474     1527.203        2.050        1.011      143.158       30.959        0.047      344.614       21.556      862.075
05/24/2014  23:25:00      -69.796      146.577      -22.748       83.485      118.186       48.460     6969.747    13967.990     2348.342        2.508        1.164      162.346       58.609        0.130      344.622       21.569      862.084
05/24/2014  23:26:00     -103.118      105.616      -21.396       63.962       64.171       31.634     4091.115     4117.889     1000.723        1.573        0.460      147.608       41.526        0.079      344.631       21.585      862.091
05/24/2014  23:27:00      -96.607      122.799      -23.755       55.338       50.602       26.424     3062.274     2560.588      698.223        1.565        0.316      156.245       20.975        0.018      344.598       21.529      862.082
05/24/2014  23:28:00      -77.260      144.780      -19.185       57.400       67.841       36.650     3294.816     4602.449     1343.259        1.827        0.462      164.104       31.334        0.036      344.525       21.404      862.085
05/24/2014  23:29:00      -85.693       35.278       -4.409       49.027       55.333       25.135     2403.656     3061.701      631.753        0.735        0.305       92.671       25.915        0.078      344.482       21.334      862.091
05/24/2014  23:30:00     -138.193      124.136      -25.661       51.729       60.240       37.385     2675.889     3628.804     1397.618        2.143        0.385      185.761       27.379        0.022      344.444       21.264      862.106
05/24/2014  23:31:00     -119.642      123.338      -25.414       62.879       54.752       38.830     3953.725     2997.793     1507.747        1.931        0.423      171.833       39.115        0.052      344.383       21.162      862.109
05/24/2014  23:32:00      -95.104      132.625      -21.188       63.602       63.342       34.313     4045.194     4012.256     1177.365        1.816        0.462      163.200       34.137        0.044      344.335       21.079      862.107
05/24/2014  23:33:00      -93.315      121.635       -3.055       87.874       76.554       46.022     7721.818     5860.557     2118.049        1.960        0.785      153.306       47.026        0.094      344.256       20.943      862.127
05/24/2014  23:34:00      -77.742      134.446      -14.730       68.468       90.759       43.887     4687.836     8237.251     1926.032        1.959        0.743      155.305       56.882        0.134      344.222       20.886      862.158
05/24/2014  23:35:00      -44.330       85.428       -3.212       67.034       78.963       38.053     4493.592     6235.085     1448.050        1.072        0.609       96.245       32.798        0.116      344.185       20.823      862.175
05/24/2014  23:36:00      -56.632       93.527      -11.670       52.081       57.766       39.326     2712.384     3336.879     1546.541        0.984        0.380      109.336       33.019        0.091      344.148       20.761      862.195
05/24/2014  23:37:00      -84.548      136.089      -23.629       68.294       65.998       36.628     4664.120     4355.784     1341.602        1.829        0.518      160.214       40.987        0.065      344.152       20.767      862.189
05/24/2014  23:38:00      -76.833       74.323       -8.451       61.485       54.527       30.883     3780.396     2973.139      953.750        0.960        0.385      106.898       27.549        0.066      344.104       20.686      862.200
05/24/2014  23:39:00     -126.179      193.009      -37.872       73.272       72.408       41.503     5368.843     5242.910     1722.520        3.347        0.617      230.593       43.081        0.035      344.126       20.721      862.213
05/24/2014  23:40:00     -118.296      143.709      -27.918       82.282       71.736       44.407     6770.364     5146.090     1971.987        2.465        0.694      186.135       43.545        0.055      344.119       20.710      862.212
05/24/2014  23:41:00      -54.839      123.453      -23.626       43.729       59.822       28.722     1912.266     3578.720      824.951        1.256        0.316      135.085       20.731        0.024      344.095       20.670      862.223
05/24/2014  23:42:00      -55.930      178.933      -12.622       56.071       68.920       37.688     3143.964     4749.986     1420.391        2.231        0.466      187.471       28.056        0.022      344.106       20.685      862.242
05/24/2014  23:43:00      -67.602       84.522      -12.591       52.552       71.723       30.084     2761.672     5144.258      905.054        1.034        0.441      108.231       34.045        0.099      344.095       20.670      862.242
05/24/2014  23:44:00      -67.546       71.235       -2.024       40.708       34.817       30.507     1657.131     1212.215      930.692        0.672        0.190       98.167       24.002        0.060      344.067       20.623      862.232
05/24/2014  23:45:00      -35.075       70.080       -9.575       48.431       35.136       27.552     2345.570     1234.561      759.112        0.529        0.217       78.368       24.529        0.098      344.055       20.602      862.240
05/24/2014  23:46:00      -65.911       88.071       -9.466       31.975       44.067       27.746     1022.407     1941.906      769.861        0.796        0.187      110.003       21.233        0.037      344.033       20.566      862.256
05/24/2014  23:47:00      -54.785       37.141       -9.158       40.174       35.449       23.667     1613.972     1256.649      560.106        0.395        0.172       66.188       17.857        0.073      344.076       20.637      862.265
05/24/2014  23:48:00      -90.505       89.640      -30.308       29.387       41.984       18.446      863.573     1762.681      340.247        1.006        0.148      127.383       17.564        0.019      344.117       20.708      862.273
05/24/2014  23:49:00      -86.935       54.162       -7.886       46.651       34.993       23.800     2176.357     1224.476      566.426        0.726        0.198      102.427       19.946        0.038      344.109       20.695      862.301
05/24/2014  23:50:00      -20.242       58.456       -9.163       23.328       18.688       15.194      544.176      349.235      230.862        0.252        0.056       61.861       10.256        0.027      344.077       20.640      862.336
05/24/2014  23:51:00       12.177       37.124       -2.685       17.174       20.587       18.990      294.941      423.805      360.623        0.131        0.054       39.070       10.936        0.078      344.084       20.653      862.356
05/24/2014  23:52:00       13.863       24.810       -1.329       20.237       16.507       14.075      409.525      272.486      198.094        0.084        0.044       28.421       11.689        0.169      344.017       20.538      862.376
05/24/2014  23:53:00        1.218       -2.175        4.862       25.894       14.426       13.671      670.495      208.118      186.889        0.055        0.053        2.493        5.603        5.052      343.896       20.330      862.402
05/24/2014  23:54:00       11.781      -52.947       -6.409       42.828       22.526       18.268     1834.246      507.401      333.732        0.283        0.134       54.242       12.759        0.055      344.099       20.676      862.420
05/24/2014  23:55:00       10.862     -107.085      -10.812       30.580       42.737       38.008      935.128     1826.437     1444.627        0.795        0.210      107.635        9.726        0.008      344.150       20.765      862.432
05/24/2014  23:56:00       11.444      -96.917        6.834       34.157       37.603       27.284     1166.714     1413.955      744.440        0.645        0.166       97.590       16.459        0.028      344.146       20.757      862.419
05/24/2014  23:57:00      137.315     -137.363      -29.839       45.149       56.676       31.803     2038.390     3212.177     1011.413        2.244        0.313      194.227       32.330        0.028      344.116       20.704      862.403
05/24/2014  23:58:00       96.114     -118.222      -26.555       40.021       56.289       30.186     1601.680     3168.508      911.209        1.480        0.284      152.363       19.673        0.017      344.069       20.625      862.415
05/24/2014  23:59:00       54.142      -47.053       16.644       49.319       62.165       38.105     2432.344     3864.471     1451.984        0.658        0.387       71.731       43.863        0.374      343.926       20.382      862.416
